     2              OBSERVATION DATA    GPS                 RINEX VERSION / TYPE
ASHTORIN MIT 05 - JUN - 97 17:40                            PGM / RUN BY / DATE
                                                            COMMENT
--> THIS IS THE START OF A NEW SITE <---                    COMMENT
--> THIS IS THE START OF A NEW SITE <---                    COMMENT
Original Marker Name: GS18                                  COMMENT
Campaign Name: China Lake May 1997                          COMMENT
4-Character Station Name: GS18                              COMMENT
6-Character Antenna Code: ASHGD3                            COMMENT
Vertical Measurement Point: TGP                             COMMENT
Vertical Offset to Rinex Ref. Point: 0.0640                 COMMENT
Radial Measurement Point: RRP                               COMMENT
Radial Offset to Rinex Ref. Point: 0.0000                   COMMENT
Antenna Height from Field Measurement: 0.2210 m             COMMENT
Additional Antenna Identification Info.:                    COMMENT
The Whopper (700718AB)                                      COMMENT
Original XYZ: -2409663.0700 -4612270.0000 3677373.7400      COMMENT
New XYZ position is based on association with SCEC monument COMMENT
E1F4B1S3+0011. Position of that monument is believed to be  COMMENT
valid to within 1 m horizontally; vertical accuracy         COMMENT
should be no worse than 3-times this value.                 COMMENT
                                                            COMMENT
Revised Rinex header created by UCSD GPS archive for        COMMENT
GSAC on 01-Aug-2000 (2000:214) 01:27:11 GMT                 COMMENT
For assistance contact dagnew@ucsd.edu                      COMMENT
or anderson@python.ucsd.edu                                 COMMENT
                                                            COMMENT
BLM 065-94-66 GO18                                          MARKER NAME
gs18                                                        MARKER NUMBER
KEA US DEFENSE MAPPING AGENCY                               OBSERVER / AGENCY
426 ASHTECH Z-XII3 1G001C7                                  REC # / TYPE / VERS
452 ASHTECH GEODETIC III                                    ANT # / TYPE
 -2427917.3244 -4591286.9051  3691236.9642                  APPROX POSITION XYZ
        0.1570        0.0000        0.0000                  ANTENNA: DELTA H/E/N
     1     1     0                                          WAVELENGTH FACT L1/2
     7    L1    L2    C1    P1    P2    D1    D2            # / TYPES OF OBSERV
    30                                                      INTERVAL
  1997     4    24    15    24   30.000000                  TIME OF FIRST OBS
  1997     4    24    21    29   60.000000                  TIME OF LAST OBS
                                                            END OF HEADER
 97  4 24 15 24 30.0000000  0  6 31 27  2 19 18 10                   0.002044290
      7332.29219      1585.19554  17782406.424           0.0005          0.0005
      -875.555        -682.251
    -20060.46419     -4295.53356  16261626.788           0.0005          0.0005
      2364.485        1842.456
    -24809.69519     -4588.56551  17475680.890           0.0005          0.0005
      2531.650        1972.714
       369.81119        75.33556  16470096.833           0.0005          0.0005
       -42.017         -32.741
     18271.20319      4092.12654  17832317.463           0.0005          0.0005
     -2257.812       -1759.334
      2132.15319       907.67952  19523716.159           0.0005          0.0005
      -149.474        -116.473
 97  4 24 15 25  0.0000000  0  7 31 27  2 19  7 18 10                0.002025184
     33752.158 9     22171.92758  17787434.275    17787435.0635   17787440.4965
      -887.233        -691.350
    -90992.322 9    -59567.02958  16248128.906    16248131.0185   16248136.9385
      2362.931        1841.245
   -100755.337 9    -63517.09054  17461228.173           0.0004          0.0005
      2529.868        1971.326
      1665.156 9      1084.58058  16470343.783    16470344.7335   16470350.8795
       -45.704         -35.614
    -79024.70119    -29792.49952  19982748.836           0.0005          0.0005
      4608.292        3590.877
     86025.202 9     56887.42057  17845211.345    17845213.2895   17845219.6285
     -2260.670       -1761.561
      6701.243 9      4467.46456  19524586.054           0.0004          0.0005
      -156.658        -122.071
 97  4 24 15 25 30.0000000  3  2
GS18                                                        MARKER NAME
--> THIS IS THE START OF A NEW SITE <---                    COMMENT
 97  4 24 15 25 30.0000000  0  6 31 27  2 19 18 10                   0.000229751
     60533.301 9     43040.33648  22289417.800    22289418.2334   22289423.6974
      -899.476        -700.890
   -161818.762 9   -114756.46248  20731538.572    20731540.1274   20731545.9744
      2360.849        1839.623
   -176570.650 9   -122142.84656  21943687.881           0.0004          0.0005
      2526.469        1968.677
      3099.816 9      2202.48448  20967502.923    20967504.7494   20967510.7924
       -50.285         -39.183
    153867.524 9    109751.53547  22355007.672    22355010.1704   22355016.5804
     -2264.732       -1764.726
     11515.936 9      8219.24656  24022390.979           0.0005   24022398.2905
      -164.903        -128.496
 97  4 24 15 26  0.0000000  0  7 31 27  2 19  7 18 10                0.000210037
     87649.959 9     64170.18558  22294577.654    22294578.2665   22294583.8015
      -910.138        -709.198
   -232659.266 9   -169956.85158  20718057.570    20718059.5885   20718065.4605
      2360.030        1838.984
   -252355.989 9      -563.09052  21929267.226           0.0005          0.0005
      2523.972        1966.731
      4625.629 9      3391.42558  20967793.020    20967795.1455   20967801.1995
       -53.282         -41.518
   -355812.308 9   -245524.23554  24426962.415           0.0004          0.0005
      4619.501        3599.611
    221818.488 9    162700.30757  22367938.527    22367940.8285   22367947.2985
     -2267.156       -1766.615
     16540.526 9     12134.47256  24023340.095    24023346.6005   24023354.1815
      -171.874        -133.928
 97  4 24 15 26 30.0000000  0  7 31 27  2 19  7 18 10                0.000190337
    115143.458 9     85593.67048  22299809.793    22299810.0914   22299815.6164
      -922.054        -718.484
   -303412.607 9   -225089.32148  20704593.995    20704595.7244   20704601.5734
      2357.670        1837.145
   -328001.155 9    -59507.46958  21914872.553    21914873.2645   21914879.6595
      2520.035        1963.664
      6303.808 9      4699.08648  20968112.594    20968114.5344   20968120.5604
       -57.555         -44.848
   -494453.477 9    -22627.92352  24400580.881           0.0005          0.0005
      4624.213        3603.283
    289901.204 9    215751.74547  22380894.755    22380896.6034   22380903.0944
     -2270.822       -1769.472
     21832.482 9     16258.03746  24024348.426    24024353.8764   24024361.2584
      -180.077        -140.320
 97  4 24 15 27  0.0000000  0  7 31 27  2 19  7 18 10                0.000170418
    142903.774 9    107225.06748  22305091.938    22305092.6864   22305098.2264
      -929.914        -724.608
   -374201.454 9   -280249.46248  20691123.388    20691125.0694   20691130.8984
      2360.468        1839.326
   -403627.279 9   -118436.90048  21900481.085    21900482.1815   21900488.5214
      2520.440        1963.979
      8004.980 9      6024.66648  20968436.548    20968438.3074   20968444.2934
       -56.976         -44.397
   -633338.945 9   -130849.95856  24374151.382           0.0004   24374161.5405
      4633.612        3610.607
    357994.297 9    268811.26847  22393852.485    22393854.3624   22393860.8334
     -2270.155       -1768.952
     27267.639 9     20493.19846  24025384.737    24025388.1804   24025395.6124
      -183.634        -143.091
 97  4 24 15 27 30.0000000  0  7 31 27  2 19  7 18 10                0.000150341
    170928.071 9    129062.16048  22310424.791    22310425.5484   22310431.0854
      -938.436        -731.249
   -445044.339 9   -335451.70948  20677642.486    20677644.1494   20677649.9704
      2362.369        1840.807
   -479225.226 9   -177344.37748  21886095.198    21886096.3844   21886102.7814
      2519.634        1963.351
      9721.349 9      7362.08548  20968763.234    20968764.9474   20968770.9254
       -57.351         -44.689
   -772467.900 9   -239262.16056  24347676.108    24347677.8345   24347686.3795
      4641.609        3616.838
    426109.595 9    321888.08747  22406814.400    22406816.2744   22406822.7744
     -2270.715       -1769.388
     32843.130 9     24837.70246  24026446.494    24026449.1904   24026456.6144
      -188.002        -146.495
 97  4 24 15 28  0.0000000  0  7 31 27  2 19  7 18 10                0.000130135
    199278.384 9    151153.29948  22315819.506    22315820.4274   22315825.9554
      -950.490        -740.642
   -515873.880 9   -390643.55748  20664163.999    20664165.7574   20664171.5754
      2360.812        1839.594
   -554744.132 9   -236190.26548  21871724.395    21871725.6424   21871732.0354
      2516.282        1960.739
     11515.526 9      8760.14148  20969104.637    20969106.3934   20969112.3644
       -61.150         -47.649
   -911768.578 9   -347808.09246  24321168.155    24321169.9075   24321178.4214
      4646.426        3620.592
    494304.510 9    375026.95447  22419791.650    22419793.4404   22419799.8754
     -2274.475       -1772.318
     38615.474 9     29335.59746  24027545.321    24027547.6534   24027555.0814
      -195.755        -152.536
 97  4 24 15 28 30.0000000  0  7 31 27  2 19  7 18 10                0.000109861
    228030.503 9    173557.52748  22321290.770    22321291.7834   22321297.3374
      -965.151        -752.066
   -586617.892 9   -445768.76048  20650701.937    20650703.6474   20650709.4684
      2356.501        1836.235
   -630133.642 9   -294935.32448  21857378.165    21857379.4624   21857385.8874
      2511.055        1956.666
     13464.331 9     10278.67848  20969475.530    20969477.2884   20969483.2434
       -67.397         -52.517
  -1051181.171 9   -456441.23046  24294638.979    24294640.7114   24294649.0924
      4648.875        3622.500
    562653.877 9    428286.16647  22432798.198    22432799.9764   22432806.3974
     -2280.856       -1777.290
     44662.132 9     34047.25746  24028696.416    24028698.2844   24028705.7684
      -206.111        -160.606
 97  4 24 15 29  0.0000000  0  7 31 27  2 19  7 18 10                0.000089495
    257148.921 9    196247.18848  22326831.779    22326832.8554   22326838.4204
      -977.323        -761.550
   -657297.648 9   -500843.89648  20637252.032    20637253.7774   20637259.5814
      2354.112        1834.373
   -705441.676 9   -353616.90148  21843047.516    21843048.8684   21843055.2694
      2508.280        1954.504
     15524.038 9     11883.63348  20969867.507    20969869.2754   20969875.2224
       -71.236         -55.509
  -1190731.881 9   -565181.99546  24268083.542    24268084.9394   24268093.4014
      4653.144        3625.826
    631114.887 9    481632.38047  22445825.987    22445827.7134   22445834.1484
     -2284.418       -1780.066
     50948.503 9     38945.70046  24029892.885    24029894.5624   24029902.0104
      -214.346        -167.023
 97  4 24 15 29 30.0000000  0  7 31 27  2 19  7 18 10                0.000069022
    286600.653 9    219196.57148  22332436.195    22332437.4034   22332442.9514
      -985.907        -768.239
   -727913.461 9   -555869.20648  20623814.332    20623816.0774   20623821.8574
      2353.759        1834.098
   -780698.288 9   -412258.41048  21828726.676    21828728.0604   21828734.4154
      2509.218        1955.235
     17678.608 9     13562.51148  20970277.561    20970279.3114   20970285.2594
       -72.195         -56.256
  -1330423.681 9   -674032.70046  24241500.958    24241502.2874   24241510.9094
      4659.908        3631.097
    699651.448 9    535037.46047  22458868.087    22458869.8714   22458876.2904
     -2284.344       -1780.008
     57461.522 9     44020.75146  24031132.357    24031134.0124   24031141.5174
      -219.626        -171.137
 97  4 24 15 30  0.0000000  0  7 31 27  2 19  7 18 10                0.000048422
    316346.330 9    242374.99748  22338096.550    22338097.8834   22338103.4194
      -996.645        -776.606
   -798475.387 9   -610852.52748  20610386.849    20610388.6414   20610394.4044
      2351.032        1831.973
   -855952.922 9   -470898.37248  21814406.215    21814407.5914   21814413.9314
      2508.204        1954.445
     19906.234 9     15298.30948  20970701.393    20970703.2304   20970709.2084
       -75.485         -58.819
  -1470282.942 9   -783013.89946  24214886.305    24214887.9154   24214896.4264
      4664.779        3634.893
    768221.495 9    588468.63047  22471916.571    22471918.3714   22471924.8064
     -2286.375       -1781.591
     64177.765 9     49254.15746  24032410.607    24032412.1074   24032419.6194
      -227.342        -177.150
 97  4 24 15 30 30.0000000  0  7 31 27  2 19  7 18 10                0.000027713
    346419.711 9    265808.78548  22343819.459    22343820.7184   22343826.2534
     -1007.273        -784.888
   -868948.382 9   -665766.54948  20596976.370    20596978.1244   20596983.8764
      2348.084        1829.676
   -931159.426 9   -529500.83148  21800094.911    21800096.2684   21800102.6324
      2506.446        1953.075
     22229.576 9     17108.69648  20971143.536    20971145.3664   20971151.3544
       -78.330         -61.036
  -1610288.093 9   -892108.77546  24188244.202    24188245.7334   24188254.2444
      4669.770        3638.782
    836853.150 9    641947.80747  22484976.817    22484978.5834   22484985.0494
     -2288.069       -1782.911
     71125.318 9     54667.80646  24033732.812    24033734.2424   24033741.7934
      -234.679        -182.867
 97  4 24 15 31  0.0000000  0  7 31 27  2 19  7 18 10                0.000006893
    376822.888 9    289499.54848  22349604.940    22349606.3044   22349611.8174
     -1020.814        -795.439
   -939325.813 9   -720606.10548  20583584.033    20583585.7564   20583591.5144
      2342.731        1825.505
  -1006292.284 9   -588045.90748  21785797.571    21785798.9654   21785805.3234
      2501.153        1948.950
     24649.145 9     18994.06548  20971604.053    20971605.8244   20971611.8044
       -84.314         -65.699
  -1750430.809 9  -1001310.84746  24161576.146    24161577.5534   24161585.9184
      4672.015        3640.531
    905541.417 9    695471.10047  22498047.868    22498049.5794   22498056.0344
     -2292.412       -1786.295
     78306.394 9     60263.40946  24035099.461    24035100.8524   24035108.3224
      -245.202        -191.066
 97  4 24 15 31 30.0000000  0  7 31 27  2 19  7 18 10               -0.000014054
    407534.850 9    313430.92948  22355449.259    22355450.6124   22355456.1374
     -1028.606        -801.511
  -1009645.912 9   -775400.98648  20570202.582    20570204.3034   20570210.0474
      2343.397        1826.024
  -1081362.172 9   -646541.91248  21771512.224    21771513.6314   21771520.0374
      2501.434        1949.169
     27154.722 9     20946.45148  20972080.822    20972082.6314   20972088.6234
       -84.600         -65.922
  -1890745.195 9  -1110646.69846  24134875.222    24134876.6254   24134884.9114
      4680.521        3647.159
    974268.377 9    749024.54447  22511126.242    22511127.9284   22511134.3784
     -2291.380       -1785.491
     85695.211 9     66020.90546  24036505.618    24036506.9764   24036514.4504
      -249.305        -194.264
 97  4 24 15 31 59.9990000  0  7 31 27  2 19  7 18 10               -0.000035120
    438580.633 9    337622.41948  22361357.284    22361358.5054   22361364.0574
     -1040.257        -810.590
  -1079891.139 9   -830137.53448  20556835.330    20556837.0924   20556842.8344
      2340.883        1824.065
  -1156326.616 9   -704955.75848  21757247.013    21757248.4054   21757254.7914
      2497.243        1945.904
     29767.271 9     22982.18948  20972577.975    20972579.7954   20972585.8034
       -88.360         -68.852
  -2031224.327 9  -1220110.91546  24108142.818    24108144.3544   24108152.5824
      4686.024        3651.447
   1043064.907 9    802632.19347  22524217.929    22524219.5344   22524225.9714
     -2294.167       -1787.663
     93302.379 9     71948.52646  24037953.171    24037954.5914   24037962.0754
      -256.843        -200.137
 97  4 24 15 32 29.9990000  0  7 31 27  2 19  7 18 10               -0.000056303
    469964.171 9    362077.10948  22367329.367    22367330.6474   22367336.2284
     -1052.393        -820.046
  -1150077.440 9   -884828.15548  20543479.323    20543481.0904   20543486.8514
      2337.791        1821.655
  -1231172.712 9   -763277.38248  21743004.316    21743005.6734   21743012.0604
      2492.326        1942.072
     32477.010 9     25093.66148  20973093.668    20973095.4504   20973101.4484
       -92.834         -72.338
  -2171878.990 9  -1329711.90746  24081376.978    24081378.6174   24081386.7804
      4690.455        3654.900
   1111930.765 9    856293.86547  22537322.745    22537324.3264   22537330.7764
     -2297.351       -1790.144
    101124.667 9     78043.78746  24039441.663    24039443.1014   24039450.6764
      -265.147        -206.608
 97  4 24 15 32 59.9990000  0  7 31 27  2 19  7 18 10               -0.000077596
    501682.219 9    386792.44948  22373365.134    22373366.4244   22373372.0174
     -1062.497        -827.920
  -1220192.927 9   -939463.60148  20530136.791    20530138.5644   20530144.3364
      2336.337        1820.522
  -1305907.380 9   -821512.17948  21728782.741    21728784.1394   21728790.5674
      2489.871        1940.159
     35302.594 9     27295.40348  20973631.331    20973633.1644   20973639.1604
       -95.730         -74.595
  -2312684.142 9  -1439430.18046  24054582.588    24054584.3574   24054592.3934
      4696.286        3659.444
   1180874.755 9    910016.41647  22550442.418    22550444.0114   22550450.4224
     -2299.260       -1791.631
    109172.208 9     84314.56846  24040973.237    24040974.5654   24040982.1844
      -271.462        -211.529
 97  4 24 15 33 29.9990000  0  7 31 27  2 19  7 18 10               -0.000099005
    533724.263 9    411760.25148  22379462.609    22379463.9004   22379469.4014
     -1072.935        -836.053
  -1290235.125 9   -994041.94148  20516808.222    20516809.9604   20516815.7374
      2333.884        1818.611
  -1380558.921 9   -879682.20148  21714577.027    21714578.4294   21714584.8634
      2487.615        1938.401
     38230.957 9     29577.23348  20974188.573    20974190.4564   20974196.4584
       -98.696         -76.906
  -2453634.618 9  -1549261.66746  24027760.579    24027762.3584   24027770.4574
      4701.065        3663.168
   1249908.593 9    963808.99247  22563579.202    22563580.7814   22563587.1314
     -2302.290       -1793.992
    117420.281 9     90741.60246  24042542.889    24042544.2054   24042551.7864
      -277.770        -216.444
 97  4 24 15 33 59.9990000  0  7 31 27  2 19  7 18 10               -0.000120535
    566068.721 9    436963.70648  22385617.493    22385618.8384   22385624.3574
     -1083.217        -844.065
  -1360217.709 9  -1048573.82648  20503490.974    20503492.7034   20503498.4954
      2331.862        1817.035
  -1455153.146 9   -937807.56448  21700382.230    21700383.6284   21700390.0554
      2485.602        1936.833
     41237.287 9     31919.81848  20974760.752    20974762.5844   20974768.5654
      -101.433         -79.039
  -2594732.194 9  -1659207.80246  24000910.520    24000912.3974   24000920.4104
      4705.518        3666.637
   1319023.361 9   1017664.61947  22576731.248    22576732.8904   22576739.2204
     -2305.104       -1796.185
    125852.526 9     97312.15046  24044147.754    24044148.8924   24044156.4204
      -284.135        -221.404
 97  4 24 15 34 29.9990000  0  7 31 27  2 19  7 18 10               -0.000142177
    598722.665 9    462408.31348  22391831.281    22391832.6294   22391838.2204
     -1093.684        -852.221
  -1430139.228 9  -1103058.12948  20490185.419    20490187.1144   20490192.8754
      2329.622        1815.290
  -1529690.080 9   -995888.28248  21686198.326    21686199.6944   21686206.1634
      2483.786        1935.418
     44326.711 9     34327.14348  20975348.710    20975350.5504   20975356.5224
      -104.353         -81.314
  -2735949.059 9  -1769246.87346  23974037.864    23974039.6954   23974047.7034
      4709.129        3669.451
   1388226.617 9   1071589.20047  22589900.138    22589901.8544   22589908.2014
     -2308.248       -1798.635
    134469.011 9    104026.26146  24045787.571    24045788.6184   24045796.0594
      -290.101        -226.053
 97  4 24 15 34 59.9990000  0  7 31 27  2 19  7 18 10               -0.000163907
    631725.811 9    488125.03248  22398111.497    22398112.9084   22398118.4944
     -1104.077        -860.320
  -1499953.231 9  -1157458.64848  20476900.314    20476901.9894   20476907.7084
      2327.215        1813.414
  -1604133.032 9  -1053895.76448  21672032.310    21672033.6804   21672040.1674
      2481.527        1933.657
     47538.518 9     36829.84248  20975959.943    20975961.7884   20975967.7334
      -107.189         -83.524
  -2877232.280 9  -1879337.64346  23947152.672    23947154.3534   23947162.4084
      4712.196        3671.841
   1457564.807 9   1125618.92147  22603094.747    22603096.4994   22603102.8634
     -2311.644       -1801.281
    143292.096 9    110901.35846  24047466.396    24047467.5114   24047475.0394
      -295.485        -230.248
 97  4 24 15 35 29.9990000  0  7 31 27  2 19  7 18 10               -0.000185769
    665008.993 9    514059.95548  22404445.150    22404446.4894   22404452.0564
     -1114.588        -868.510
  -1569732.894 9  -1211832.41748  20463621.707    20463623.4224   20463629.1114
      2325.029        1811.711
  -1678531.380 9  -1111868.49248  21657874.771    21657876.1584   21657882.6314
      2478.509        1931.306
     50811.796 9     39380.43448  20976582.879    20976584.7214   20976590.6584
      -110.889         -86.407
  -3018632.612 9  -1989519.68446  23920245.241    23920246.7534   23920254.8314
      4714.781        3673.855
   1526967.329 9   1179698.77147  22616301.670    22616303.3784   22616309.8114
     -2314.717       -1803.676
    152244.859 9    117877.50546  24049169.979    24049171.1404   24049178.6944
      -301.166        -234.675
 97  4 24 15 35 59.9990000  0  7 31 27  2 19  7 18 10               -0.000207715
    698654.721 9    540277.38348  22410847.828    22410849.1564   22410854.6934
     -1125.969        -877.378
  -1639399.363 9  -1266117.97748  20450364.667    20450366.3714   20450372.0694
      2321.890        1809.265
  -1752776.809 9  -1169722.06348  21643746.341    21643747.7254   21643754.1924
      2473.889        1927.706
     54254.209 9     42062.82148  20977237.957    20977239.7814   20977245.7504
      -115.984         -90.377
  -3160066.786 9  -2099728.08946  23893331.421    23893332.7444   23893340.7604
      4716.749        3675.389
   1596489.675 9   1233871.99447  22629531.440    22629533.0874   22629539.5214
     -2317.403       -1805.769
    161414.267 9    125022.47546  24050914.864    24050915.9804   24050923.5814
      -307.413        -239.543
 97  4 24 15 36 29.9990000  0  7 31 27  2 19  7 18 10               -0.000229760
    732649.324 9    566766.65948  22417316.939    22417318.2104   22417323.7064
     -1140.033        -888.337
  -1708953.833 9  -1320316.26748  20437128.882    20437130.6074   20437136.2954
      2315.352        1804.170
  -1826880.226 9  -1227464.97548  21629644.827    21629646.2934   21629652.8034
      2466.830        1922.205
     57863.230 9     44875.03348  20977924.712    20977926.5684   20977932.5614
      -124.284         -96.845
  -3301548.081 9  -2209973.20846  23866408.305    23866409.7094   23866417.7614
      4715.915        3674.739
   1666101.426 9   1288114.87747  22642778.240    22642779.8584   22642786.2624
     -2322.824       -1809.993
    170780.334 9    132320.67646  24052697.179    24052698.3104   24052705.8784
      -316.772        -246.835
 97  4 24 15 36 59.9990000  0  7 31 27  2 19  7 18 10               -0.000251898
    766995.007 9    593529.50948  22423852.658    22423853.9634   22423859.5344
     -1150.666        -896.623
  -1778376.566 9  -1374411.90448  20423918.237    20423919.9284   20423925.6304
      2311.867        1801.455
  -1900840.401 9  -1285096.26848  21615570.704    21615572.1404   21615578.6654
      2463.041        1919.253
     61666.979 9     47838.98048  20978648.541    20978650.4044   20978656.4214
      -130.231        -101.479
  -3443073.695 9  -2320252.87146  23839477.075    23839478.2954   23839486.3674
      4718.336        3676.625
   1735799.562 9   1342425.06947  22656041.381    22656043.0294   22656049.4004
     -2324.640       -1811.408
    180370.204 9    139793.26146  24054522.080    24054523.2274   24054530.7954
      -323.565        -252.129
 97  4 24 15 37 29.9990000  0  7 31 27  2 19  7 18 10               -0.000274128
    801682.209 9    620558.47948  22430453.325    22430454.6874   22430460.3444
     -1162.324        -905.707
  -1847667.130 9  -1428404.55348  20410732.705    20410734.3914   20410740.0864
      2307.085        1797.729
  -1974674.061 9  -1342628.97848  21601520.653    21601522.0884   21601528.5944
      2458.886        1916.015
     65669.568 9     50957.86848  20979410.219    20979412.0714   20979418.1314
      -136.790        -106.590
  -3584663.771 9  -2430582.76346  23812533.267    23812534.5664   23812542.5994
      4720.769        3678.521
   1805562.756 9   1396785.96547  22669316.866    22669318.5814   22669324.9364
     -2326.635       -1812.962
    190199.433 9    147452.37046  24056392.739    24056393.7314   24056401.2644
      -331.942        -258.656
 97  4 24 15 37 59.9990000  0  7 31 27  2 19  7 18 10               -0.000296424
    836750.964 9    647884.75947  22437126.524    22437128.0264   22437133.7114
     -1175.597        -916.050
  -1916782.677 9  -1482260.82348  20397580.427    20397582.1654   20397587.8574
      2300.689        1792.745
  -2048363.022 9  -1400048.94048  21587498.153    21587499.5594   21587506.0314
      2453.887        1912.120
     69880.485 9     54239.08448  20980211.528    20980213.4034   20980219.4794
      -143.708        -111.980
  -3726307.567 9  -2540954.51246  23785579.206    23785580.6024   23785588.6364
      4722.158        3679.604
   1875409.776 9   1451212.17147  22682608.339    22682610.0644   22682616.4184
     -2329.951       -1815.546
    200303.415 9    155325.55946  24058315.488    24058316.4994   24058324.0334
      -341.586        -266.171
 97  4 24 15 38 29.9990000  0  7 31 27  2 19  7 18 10               -0.000318756
    872226.732 9    675528.19347  22443877.489    22443878.9454   22443884.5764
     -1189.010        -926.501
  -1985697.198 9  -1535960.45448  20384466.444    20384468.1654   20384473.8934
      2294.069        1787.586
  -2121897.223 9  -1457348.30948  21573504.974    21573506.4714   21573512.9314
      2448.842        1908.189
     74299.567 9     57682.50748  20981052.501    20981054.3804   20981060.4074
      -150.337        -117.146
  -3867981.896 9  -2651350.05546  23758619.435    23758620.8404   23758628.9224
      4723.275        3680.474
   1945378.854 9   1505733.49447  22695923.086    22695924.7634   22695931.1054
     -2334.066       -1818.753
    210714.405 9    163437.98946  24060296.775    24060297.6964   24060305.2384
      -351.972        -274.264
 97  4 24 15 38 59.9990000  0  7 31 27  2 19  7 18 10               -0.000341136
    908091.296 9    703474.58547  22450702.413    22450703.7854   22450709.3824
     -1202.768        -937.222
  -2054427.750 9  -1589516.72848  20371387.446    20371389.1514   20371394.8804
      2287.355        1782.355
  -2195286.633 9  -1514534.85248  21559539.472    21559540.9614   21559547.4014
      2443.106        1903.719
     78897.977 9     61265.67348  20981927.563    20981929.4424   20981935.4584
      -156.764        -122.154
  -4009703.294 9  -2761782.27246  23731650.716    23731652.1904   23731660.1714
      4724.069        3681.093
   2015454.841 9   1560338.12047  22709258.180    22709259.8274   22709266.2044
     -2338.505       -1822.212
    221418.339 9    171778.68446  24062333.833    24062334.6354   24062342.1914
      -362.234        -282.260
 97  4 24 15 39 29.9990000  0  8 31 27  2 19  7 18 10 26            -0.000363551
    944360.740 9    731736.46047  22457604.263    22457605.6494   22457611.2384
     -1215.356        -947.031
  -2122972.524 9  -1642928.24548  20358343.752    20358345.5124   20358351.2354
      2282.315        1778.427
  -2268518.101 9  -1571598.32848  21545604.089    21545605.5264   21545611.9254
      2438.888        1900.432
     83666.830 9     64981.64648  20982835.104    20982836.9834   20982842.9754
      -161.208        -125.617
  -4151459.912 9  -2872241.94246  23704675.238    23704676.7814   23704684.7254
      4726.186        3682.742
   2085656.516 9   1615040.68647  22722617.134    22722618.7894   22722625.1934
     -2341.806       -1824.784
    232410.077 9    180343.64046  24064425.428    24064426.3524   24064433.9984
      -370.397        -288.621
   -303769.48718   -214655.45956  25135245.324    25135246.4275   25135253.3255
      4422.271        3445.925
 97  4 24 15 39 59.9990000  0  8 31 27  2 19  7 18 10 26            -0.000385970
    981087.298 9    760354.53447  22464593.067    22464594.4814   22464600.1184
     -1231.005        -959.225
  -2191291.956 9  -1696164.16748  20345343.008    20345344.7624   20345350.4834
      2274.329        1772.204
  -2341542.339 9  -1628500.31948  21531708.051    21531709.4704   21531715.8924
      2431.373        1894.576
     88661.057 9     68873.23648  20983785.464    20983787.3824   20983793.4014
      -169.876        -132.371
  -4293193.133 9  -2982683.37946  23677704.205    23677705.8024   23677713.7494
      4724.570        3681.483
   2156046.675 9   1669890.11447  22736011.841    22736013.5934   22736020.0844
     -2348.928       -1830.334
    243721.583 9    189157.76946  24066577.949    24066578.9374   24066586.6174
      -381.834        -297.533
   -436334.007 9   -317952.47256  25110015.876    25110020.3665   25110026.6315
      4417.402        3442.131
 97  4 24 15 40 29.9990000  0  8 31 27  2 19  7 18 10 26            -0.000408424
   1018212.466 9    789283.22047  22471657.725    22471659.1594   22471664.8454
     -1242.950        -968.532
  -2259433.854 9  -1749261.74948  20332376.066    20332377.7974   20332383.5034
      2269.441        1768.396
  -2414405.694 9  -1685276.95148  21517842.553    21517843.9734   21517850.4064
      2427.244        1891.359
     93864.253 9     72927.65948  20984775.737    20984777.5674   20984783.5854
      -176.044        -137.177
  -4434936.679 9  -3093132.84746  23650731.244    23650732.8364   23650740.9444
      4725.966        3682.571
   2226583.139 9   1724853.55847  22749434.511    22749436.2864   22749442.7704
     -2352.275       -1832.942
    255316.435 9    198192.68546  24068784.423    24068785.3894   24068793.1004
      -390.071        -303.951
   -568808.958 9   -421179.69846  25084806.738    25084811.2574   25084817.5684
      4415.308        3440.500
 97  4 24 15 40 59.9990000  0  8 31 27  2 19  7 18 10 26            -0.000430914
   1055731.465 9    818518.77747  22478797.366    22478798.8344   22478804.5004
     -1257.698        -980.024
  -2327392.606 9  -1802216.62148  20319443.960    20319445.6804   20319451.3764
      2261.810        1762.449
  -2487106.973 9  -1741927.28848  21504007.944    21504009.3424   21504015.7894
      2420.196        1885.867
     99299.894 9     77163.21248  20985810.155    20985811.9714   20985817.9874
      -185.786        -144.768
  -4576675.447 9  -3203578.60146  23623759.306    23623760.8434   23623768.9334
      4723.818        3680.897
   2297250.556 9   1779919.03347  22762882.177    22762883.8404   22762890.3384
     -2358.271       -1837.614
    267195.640 9    207449.16946  24071044.967    24071045.9414   24071053.6474
      -401.194        -312.619
   -701181.564 9   -524327.16646  25059618.334    25059621.4504   25059627.9304
      4410.181        3436.505
 97  4 24 15 41 29.9990000  0  8 31 27  2 19  7 18 10 26            -0.000453446
   1093633.385 9    848052.70947  22486009.999    22486011.3204   22486016.9864
     -1270.059        -989.656
  -2395178.711 9  -1855036.96548  20306544.765    20306546.4394   20306552.1314
      2256.126        1758.020
  -2559659.239 9  -1798461.51648  21490201.686    21490203.1054   21490209.5624
      2415.489        1882.199
    104978.072 9     81587.75148  20986890.642    20986892.4994   20986898.5224
      -193.705        -150.939
  -4718402.667 9  -3314015.36446  23596789.341    23596791.0714   23596799.1374
      4723.515        3680.661
   2368032.325 9   1835073.61047  22776351.468    22776353.2024   22776359.7454
     -2361.510       -1840.138
    279346.995 9    216917.71546  24073357.282    24073358.2494   24073365.9304
      -409.859        -319.371
   -833468.332 9   -627407.76546  25034445.258    25034448.1354   25034454.6244
      4408.018        3434.819
 97  4 24 15 41 59.9990000  0  8 31 27  2 19  7 18 10 26            -0.000476020
   1131919.274 9    877885.84347  22493295.533    22493296.9494   22493302.5454
     -1282.844        -999.619
  -2462767.294 9  -1907703.39648  20293683.143    20293684.7664   20293690.4814
      2249.143        1752.579
  -2632042.868 9  -1854864.33348  21476427.568    21476428.9854   21476435.4154
      2409.400        1877.455
    110918.000 9     86216.25448  20988020.931    20988022.8434   20988028.8754
      -202.655        -157.913
  -4860089.323 9  -3424420.52446  23569827.374    23569829.0054   23569837.0614
      4721.692        3679.241
   2438926.281 9   1890315.60647  22789842.177    22789843.9074   22789850.4754
     -2365.278       -1843.074
    291780.415 9    226606.06047  24075723.195    24075724.1804   24075731.9754
      -419.732        -327.064
   -965669.628 9   -730421.76246  25009288.377    25009291.0874   25009297.5064
      4405.017        3432.481
 97  4 24 15 42 29.9990000  0  8 31 27  2 19  7 18 10 26            -0.000498630
   1170594.478 9    908022.34247  22500655.214    22500656.6154   22500662.2244
     -1294.617       -1008.792
  -2530131.694 9  -1960195.13748  20280864.102    20280865.7564   20280871.4494
      2242.851        1747.676
  -2704226.416 9  -1911111.24248  21462691.551    21462692.9324   21462699.3754
      2403.867        1873.143
    117123.520 9     91051.71248  20989201.871    20989203.7494   20989209.7864
      -209.882        -163.544
  -5001712.009 9  -3534775.82646  23542877.623    23542879.1174   23542887.1024
      4720.954        3678.665
   2509940.058 9   1945650.96747  22803355.789    22803357.3574   22803363.9644
     -2367.935       -1845.144
    304513.843 9    236528.17147  24078146.354    24078147.3634   24078155.0644
      -428.014        -333.517
  -1097776.653 9   -833362.29746  24984149.273    24984151.9774   24984158.3174
      4403.157        3431.031
 97  4 24 15 42 59.9990000  0  8 31 27  2 19  7 18 10 26            -0.000521290
   1209650.529 9    938455.59647  22508087.354    22508088.7504   22508094.3974
     -1307.927       -1019.164
  -2597283.459 9  -2012521.19248  20268085.546    20268087.2084   20268092.8944
      2235.129        1741.659
  -2776212.896 9  -1967204.59448  21448992.975    21448994.3704   21449000.7774
      2396.580        1867.465
    123560.109 9     96067.21948  20990426.722    20990428.5994   20990434.6824
      -217.900        -169.792
  -5143289.410 9  -3645095.84946  23515936.161    23515937.7514   23515945.7754
      4718.822        3677.004
   2581069.937 9   2001076.80147  22816891.429    22816892.9624   22816899.5634
     -2372.905       -1849.017
    317509.221 9    246654.39947  24080619.406    24080620.3554   24080628.0274
      -437.006        -340.524
  -1229807.880 9   -936243.77246  24959024.727    24959027.2274   24959033.4914
      4400.071        3428.627
 97  4 24 15 43 29.9990000  0  8 31 27  2 19  7 18 10 26            -0.000543997
   1249091.252 9    969188.60347  22515592.661    22515594.1074   22515599.8124
     -1323.165       -1031.038
  -2664212.464 9  -2064673.66348  20255349.484    20255351.0974   20255356.7574
      2225.189        1733.914
  -2847997.365 9  -2023140.53548  21435332.830    21435334.2394   21435340.6644
      2387.469        1860.365
    130209.915 9    101248.87148  20991692.124    20991694.0094   20991700.1144
      -226.867        -176.779
  -5284819.448 9  -3755378.97046  23489003.924    23489005.4964   23489013.4604
      4715.024        3674.045
   2652342.005 9   2056613.43147  22830453.985    22830455.5954   22830462.2054
     -2380.238       -1854.731
    330755.441 9    256976.09546  24083140.098    24083141.1384   24083148.7784
      -447.659        -348.825
  -1361760.137 9  -1039063.69746  24933915.333    24933917.5544   24933923.8084
      4395.056        3424.719
 97  4 24 15 43 59.9990000  0  8 31 27  2 19  7 18 10 26            -0.000566742
   1288930.941 9   1000232.49047  22523173.922    22523175.3654   22523181.0894
     -1334.275       -1039.695
  -2730902.103 9  -2116639.61248  20242658.936    20242660.5394   20242666.1614
      2219.427        1729.424
  -2919561.993 9  -2078905.16748  21421714.498    21421715.9334   21421722.4084
      2382.249        1856.298
    137063.709 9    106589.47748  20992996.312    20992998.2394   20993004.3354
      -231.487        -180.379
  -5426297.583 9  -3865621.63746  23462081.521    23462083.0934   23462091.0394
      4715.517        3674.429
   2723779.083 9   2112278.63547  22844048.159    22844049.7364   22844056.2604
     -2383.586       -1857.340
    344261.519 9    267500.26946  24085710.200    24085711.2864   24085718.9344
      -454.246        -353.958
  -1493612.721 9  -1141805.96046  24908824.452    24908826.9104   24908833.1394
      4393.654        3423.626
 97  4 24 15 44 29.9990000  0  8 31 27  2 19  7 18 10 26            -0.000589519
   1329176.085 9   1031592.31747  22530832.448    22530833.8024   22530839.4984
     -1348.749       -1050.973
  -2797347.268 9  -2168415.06748  20230014.859    20230016.4834   20230022.1014
      2210.397        1722.387
  -2990907.597 9  -2134499.13848  21408137.908    21408139.3064   21408145.7494
      2374.424        1850.201
    144118.463 9    112086.67248  20994338.782    20994340.7204   20994346.8104
      -238.852        -186.118
  -5567728.387 9  -3975827.42846  23435168.120    23435169.6604   23435177.6134
      4713.375        3672.760
   2795383.649 9   2168074.35847  22857674.161    22857675.6994   22857682.1894
     -2389.893       -1862.254
    358028.300 9    278227.59447  24088329.809    24088330.9284   24088338.7454
      -463.398        -361.089
  -1625352.188 9  -1244460.07246  24883755.447    24883757.7694   24883763.9514
      4389.025        3420.019
 97  4 24 15 44 59.9990000  0  8 31 27  2 19  7 18 10 26            -0.000612320
   1369839.921 9   1063278.39147  22538570.546    22538571.8974   22538577.5874
     -1362.985       -1062.066
  -2863536.537 9  -2219991.12248  20217419.482    20217421.0734   20217426.7164
      2201.293        1715.293
  -3062038.553 9  -2189925.84848  21394602.135    21394603.5134   21394609.9674
      2366.808        1844.266
    151385.793 9    117749.51348  20995721.729    20995723.6814   20995729.7404
      -246.603        -192.158
  -5709106.180 9  -4085991.90746  23408264.660    23408266.2954   23408274.2674
      4710.732        3670.700
   2867161.987 9   2224005.47947  22871333.134    22871334.7334   22871341.2254
     -2396.100       -1867.091
    372059.143 9    289160.68846  24090999.838    24091000.9444   24091008.7614
      -472.980        -368.556
  -1756961.383 9  -1347012.67346  24858711.159    24858713.3754   24858719.4774
      4384.020        3416.119
 97  4 24 15 45 29.9990000  0  8 31 27  2 19  7 18 10 26            -0.000635135
   1410922.436 9   1095290.71747  22546388.223    22546389.6504   22546395.3124
     -1375.309       -1071.669
  -2929456.274 9  -2271357.15048  20204875.401    20204876.9704   20204882.5864
      2193.905        1709.536
  -3132949.223 9  -2245180.90348  21381108.256    21381109.6484   21381116.1094
      2360.982        1839.726
    158888.028 9    123595.39648  20997149.384    20997151.3444   20997157.4224
      -253.151        -197.261
  -5850409.902 9  -4196098.67346  23381375.718    23381377.0894   23381385.0554
      4710.150        3670.247
   2939105.962 9   2280065.67447  22885023.694    22885025.3194   22885031.7544
     -2399.655       -1869.861
    386383.059 9    300322.13847  24093725.719    24093726.7114   24093734.6054
      -481.450        -375.156
  -1888422.037 9  -1449449.51946  24833695.332    24833697.3484   24833703.2834
      4380.557        3413.421
 97  4 24 15 45 59.9990000  0  8 31 27  2 19  7 18 10 26            -0.000657975
   1452407.864 9   1127616.99647  22554282.637    22554284.1134   22554289.7294
     -1388.625       -1082.045
  -2995113.162 9  -2322518.36648  20192381.332    20192382.9244   20192388.5284
      2184.982        1702.583
  -3203637.038 9  -2300262.31148  21367656.805    21367658.1724   21367664.6854
      2353.381        1833.803
    166635.824 9    129632.61848  20998623.735    20998625.7144   20998631.8004
      -261.675        -203.903
  -5991662.365 9  -4306165.49746  23354496.326    23354497.6084   23354505.5974
      4708.384        3668.871
   3011186.833 9   2336232.53847  22898740.339    22898741.8944   22898748.3104
     -2404.060       -1873.293
    401002.976 9    311714.23747  24096507.839    24096508.8484   24096516.7174
      -491.426        -382.929
  -2019734.782 9  -1551771.12446  24808707.269    24808709.3764   24808715.2204
      4375.526        3409.501
 97  4 24 15 46 29.9990000  0  8 31 27  2 19  7 18 10 26            -0.000680833
   1494306.829 9   1160265.51647  22562255.732    22562257.2714   22562262.8754
     -1403.953       -1093.989
  -3060484.351 9  -2373456.95648  20179941.670    20179943.2554   20179948.8224
      2173.859        1693.916
  -3274084.244 9  -2355156.22648  21354251.164    21354252.5394   21354259.0604
      2343.780        1826.322
    174661.650 9    135886.49148  21000151.032    21000153.0194   21000159.0924
      -272.726        -212.514
  -6132846.792 9  -4416179.30646  23327629.730    23327631.1714   23327639.0614
      4704.414        3665.777
   3083415.715 9   2392514.73447  22912484.980    22912486.6444   22912493.0674
     -2410.637       -1878.418
    415938.327 9    323352.12847  24099350.218    24099351.0654   24099358.8474
      -503.478        -392.321
  -2150876.109 9  -1653959.15146  24783751.798    24783753.9674   24783759.8394
      4368.104        3403.717
 97  4 24 15 46 59.9990000  0  8 31 27  2 19  7 18 10 26            -0.000703719
   1536596.084 9   1193218.15347  22570303.141    22570304.6554   22570310.2974
     -1415.432       -1102.934
  -3125590.761 9  -2424189.22648  20167552.406    20167553.9454   20167559.4924
      2166.385        1688.092
  -3344299.096 9  -2409869.08748  21340889.804    21340891.1184   21340897.6124
      2337.179        1821.178
    182964.993 9    142356.61148  21001731.121    21001733.0944   21001739.1734
      -280.790        -218.797
  -6273965.643 9  -4526142.02946  23300775.696    23300777.1194   23300785.0374
      4703.246        3664.867
   3155789.082 9   2448909.51947  22926257.178    22926258.8534   22926265.3574
     -2414.263       -1881.244
    431174.856 9    335224.70947  24102249.834    24102250.5944   24102258.1964
      -512.320        -399.210
  -2281863.726 9  -1756027.40646  24758825.692    24758827.7364   24758833.7424
      4364.322        3400.770
 97  4 24 15 47 29.9990000  0  8 31 27  2 19  7 18 10 26            -0.000726658
   1579228.380 9   1226438.09647  22578415.976    22578417.3484   22578422.9734
     -1428.610       -1113.203
  -3190469.058 9  -2474743.74648  20155206.412    20155208.0014   20155213.5614
      2157.118        1680.871
  -3414319.204 9  -2464430.20048  21327565.395    21327566.7284   21327573.2124
      2329.038        1814.835
    191512.407 9    149016.91648  21003357.750    21003359.6564   21003365.7104
      -290.848        -226.635
  -6415045.450 9  -4636074.31646  23273929.187    23273930.5744   23273938.4254
      4700.291        3662.564
   3228263.834 9   2505383.30347  22940048.688    22940050.3584   22940056.8964
     -2419.436       -1885.275
    446671.172 9    347299.72747  24105198.626    24105199.4504   24105207.0674
      -522.430        -407.088
  -2412735.778 9  -1858005.61346  24733921.628    24733923.6264   24733929.5774
      4358.609        3396.319
 97  4 24 15 47 59.9990000  0  8 31 27  2 19  7 18 10 26            -0.000749607
   1622275.894 9   1259981.58247  22586607.674    22586609.0324   22586614.6584
     -1442.578       -1124.087
  -3255060.987 9  -2525075.12648  20142914.960    20142916.5664   20142922.1434
      2147.712        1673.542
  -3484085.003 9  -2518793.15248  21314289.373    21314290.7504   21314297.2254
      2320.886        1808.483
    200370.872 9    155919.59848  21005043.557    21005045.4234   21005051.4474
      -300.984        -234.533
  -6556010.484 9  -4745917.16446  23247104.452    23247105.7534   23247113.5974
      4695.878        3659.126
   3300918.203 9   2561997.04047  22953874.356    22953876.0744   22953882.6104
     -2425.506       -1890.005
    462470.741 9    359611.04147  24108205.124    24108206.0194   24108213.6744
      -532.097        -414.621
  -2543422.126 9  -1959839.11746  24709052.836    24709054.8274   24709060.8344
      4352.530        3391.582
 97  4 24 15 48 29.9990000  0  8 31 27  2 19  7 18 10 26            -0.000772566
   1665730.779 9   1293842.50847  22594876.893    22594878.2634   22594883.8914
     -1453.861       -1132.879
  -3319383.053 9  -2575196.21848  20130674.839    20130676.4834   20130682.0744
      2141.039        1668.342
  -3553632.970 9  -2572986.36648  21301054.877    21301056.2274   21301062.7034
      2316.256        1804.875
    209521.503 9    163049.94248  21006784.884    21006786.7484   21006792.7534
      -308.413        -240.322
  -6696843.566 9  -4855657.19446  23220304.703    23220306.0464   23220313.9494
      4693.531        3657.297
   3373746.734 9   2618746.48647  22967733.252    22967734.9244   22967741.4504
     -2429.166       -1892.857
    478540.666 9    372133.02147  24111263.126    24111264.0144   24111271.7604
      -538.663        -419.737
  -2673936.351 9  -2061538.49946  24684216.864    24684218.7974   24684224.7994
      4348.982        3388.817
 97  4 24 15 48 59.9990000  0  8 31 27  2 19  7 18 10 26            -0.000795536
   1709584.022 9   1328013.82847  22603221.843    22603223.2404   22603228.9064
     -1468.115       -1143.986
  -3383444.736 9  -2625114.41648  20118484.320    20118485.9554   20118491.5304
      2131.286        1660.742
  -3622988.317 9  -2627029.48748  21287857.013    21287858.3774   21287864.8214
      2309.122        1799.316
    218950.116 9    170396.89148  21008579.099    21008580.9444   21008586.9874
      -318.370        -248.081
  -6837545.228 9  -4965294.82346  23193529.746    23193531.4034   23193539.3664
      4688.338        3653.250
   3446745.301 9   2675628.44247  22981624.422    22981626.1124   22981632.7384
     -2435.579       -1897.854
    494867.785 9    384855.41047  24114370.079    24114370.9894   24114378.7434
      -548.200        -427.169
  -2804289.027 9  -2163112.00446  24659411.505    24659413.5034   24659419.4824
      4342.667        3383.896
 97  4 24 15 49 29.9990000  0  8 31 27  2 19  7 18 10 26            -0.000818503
   1753853.028 9   1362509.12947  22611645.973    22611647.3514   22611653.0194
     -1482.951       -1155.546
  -3447233.655 9  -2674820.06648  20106345.668    20106347.3104   20106352.8954
      2121.592        1653.188
  -3692153.742 9  -2680924.61248  21274695.286    21274696.6414   21274703.0604
      2301.952        1793.729
    228656.703 9    177960.45748  21010426.138    21010428.0544   21010434.1304
      -328.476        -255.955
  -6978113.227 9  -5074828.29346  23166780.448    23166782.2234   23166790.1434
      4683.196        3649.244
   3519908.822 9   2732638.93647  22995547.021    22995548.7134   22995555.3254
     -2441.912       -1902.789
    511460.468 9    397784.73347  24117527.621    24117528.5584   24117536.3044
      -557.801        -434.650
  -2934470.261 9  -2264551.91146  24634638.725    24634640.9114   24634646.8484
      4336.261        3378.905
 97  4 24 15 49 59.9990000  0  9 31 27 15  2 19  7 18 10 26         -0.000841465
   1798535.961 9   1397326.97447  22620148.919    22620150.2634   22620155.9604
     -1496.102       -1165.794
  -3510760.229 9  -2724321.29448  20094256.922    20094258.5884   20094264.2014
      2113.116        1646.584
  -2274064.82418  -1487840.81556  24854190.773    24854192.2475   24854200.2065
      3593.226        2799.916
  -3761125.300 9  -2734668.67948  21261570.424    21261571.7884   21261578.2134
      2295.891        1789.006
    238631.951 9    185733.35748  21012324.449    21012326.3074   21012332.4344
      -336.744        -262.398
  -7118557.371 9  -5184265.27046  23140054.785    23140056.5984   23140064.4974
      4679.585        3646.430
   3593235.487 9   2789776.53947  23009500.705    23009502.3794   23009508.9574
     -2446.517       -1906.377
    528319.594 9    410921.67047  24120735.946    24120736.7874   24120744.5204
      -566.450        -441.390
  -3064494.933 9  -2365869.82446  24609895.862    24609898.0524   24609904.0054
      4331.782        3375.415
 97  4 24 15 50 29.9990000  0  9 31 27 15  2 19  7 18 10 26         -0.000864426
   1843625.937 9   1432461.98747  22628729.298    22628730.6314   22628736.3654
     -1510.532       -1177.038
  -3574005.923 9  -2773603.65448  20082221.619    20082223.3314   20082228.9804
      2102.628        1638.411
  -2381803.473 9  -1571792.97546  24833688.755    24833690.3014   24833698.3144
      3588.711        2796.398
  -3829887.947 9  -2788249.95448  21248485.260    21248486.6634   21248493.1234
      2287.439        1782.420
    248879.679 9    193718.58148  21014274.433    21014276.3924   21014282.5464
      -347.154        -270.510
  -7258883.456 9  -5293610.24446  23113351.756    23113353.4454   23113361.2694
      4674.796        3642.698
   3666709.981 9   2847029.34247  23023482.375    23023484.1704   23023490.7404
     -2452.470       -1911.016
    545466.653 9    424282.98047  24123998.718    24123999.7584   24124007.5564
      -577.459        -449.968
  -3194360.158 9  -2467063.49146  24585183.401    24585185.3944   24585191.5284
      4325.249        3370.324
 97  4 24 15 50 59.9990000  0  9 31 27 15  2 19  7 18 10 26         -0.000887304
   1889131.846 9   1467921.10647  22637388.874    22637390.1724   22637395.8604
     -1523.227       -1186.930
  -3636960.181 9  -2822658.92248  20070241.790    20070243.5124   20070249.1824
      2094.124        1631.785
  -2489427.259 8  -1655655.64146  24813208.723    24813210.1724   24813218.1314
      3586.125        2794.383
  -3898406.946 9  -2841641.37348  21235446.506    21235447.9254   21235454.3884
      2280.243        1776.813
    259421.562 9    201933.01948  21016280.460    21016282.4584   21016288.6164
      -355.726        -277.189
  -7399090.538 9  -5402862.49146  23086671.273    23086672.9964   23086680.7174
      4672.147        3640.634
   3740334.827 9   2904399.30146  23037492.705    23037494.5704   23037501.1784
     -2455.837       -1913.639
    562934.671 9    437894.37147  24127322.775    24127323.8454   24127331.7224
      -587.189        -457.550
  -3324051.169 9  -2568121.40546  24560503.954    24560506.0074   24560512.1714
      4320.659        3366.747
 97  4 24 15 51 29.9990000  0  9 31 27 15  2 19  7 18 10 26         -0.000910234
   1935071.938 9   1503718.55547  22646131.110    22646132.3724   22646138.0104
     -1538.028       -1198.463
  -3699598.536 9  -2871468.03348  20058322.062    20058323.8174   20058329.5034
      2083.115        1623.206
  -2596914.441 9  -1739411.86646  24792754.530    24792755.9774   24792763.9864
      3580.997        2790.387
  -3966642.520 9  -2894811.94248  21222461.686    21222463.1044   21222469.5994
      2270.176        1768.968
    270288.430 9    210400.69148  21018348.369    21018350.3764   21018356.5294
      -367.302        -286.209
  -7539155.709 9  -5512004.16246  23060017.864    23060019.5134   23060027.1474
      4666.847        3636.504
   3814110.476 9   2961886.75846  23051531.979    23051533.6734   23051540.3434
     -2461.282       -1917.882
    580750.122 9    451776.50347  24130713.019    24130714.0214   24130721.9564
      -599.101        -466.832
  -3453538.889 9  -2669020.92246  24535863.046    24535865.2474   24535871.4714
      4313.233        3360.961
 97  4 24 15 51 59.9990000  0  9 31 27 15  2 19  7 18 10 26         -0.000933161
   1981424.976 9   1539837.77147  22654951.860    22654953.1304   22654958.7334
     -1553.281       -1210.349
  -3761925.691 9  -2920034.64648  20046461.542    20046463.3074   20046469.0284
      2070.900        1613.688
  -2704271.667 8  -1823066.81646  24772324.845    24772326.4754   24772334.5954
      3575.072        2785.770
  -4034601.901 9  -2947767.29548  21209529.490    21209530.8844   21209537.3544
      2259.653        1760.769
    281473.134 9    219116.03048  21020476.761    21020478.7684   21020484.9074
      -379.364        -295.608
  -7679086.357 9  -5621040.99546  23033389.818    23033391.5734   23033399.2264
      4660.730        3631.738
   3888021.726 9   3019479.88246  23065596.881    23065598.5324   23065605.2084
     -2467.083       -1922.402
    598894.666 9    465915.05947  24134165.874    24134166.8664   24134174.8184
      -611.343        -476.371
  -3582823.800 9  -2769762.40246  24511260.802    24511263.1114   24511269.3614
      4304.617        3354.247
 97  4 24 15 52 29.9990000  0  9 31 27 15  2 19  7 18 10 26         -0.000956086
   2028189.164 9   1576277.36047  22663850.783    22663852.1064   22663857.6754
     -1564.671       -1219.224
  -3823933.399 9  -2968352.34248  20034661.912    20034663.6294   20034669.3514
      2062.768        1607.352
  -2811494.286 8  -1906616.90446  24751920.960    24751922.4974   24751930.8404
      3572.855        2784.043
  -4102301.534 9  -3000520.25448  21196646.634    21196648.0634   21196654.5584
      2253.503        1755.976
    292974.118 9    228077.81748  21022665.290    21022667.3294   21022673.4684
      -387.532        -301.973
  -7818875.376 9  -5729967.47646  23006788.797    23006790.6504   23006798.2654
      4658.190        3629.758
   3962061.374 9   3077173.05546  23079686.067    23079687.8004   23079694.4934
     -2469.231       -1924.076
    617350.991 9    480296.56647  24137678.053    24137679.0394   24137686.9944
      -619.245        -482.529
  -3711889.622 9  -2870333.14946  24486700.248    24486702.6264   24486708.9854
      4299.570        3350.314
 97  4 24 15 52 59.9990000  0  9 31 27 15  2 19  7 18 10 26         -0.000978997
   2075377.663 9   1613047.58747  22672830.515    22672831.7684   22672837.3624
     -1578.611       -1230.086
  -3885619.673 9  -3016419.56848  20022923.361    20022925.1364   20022930.8434
      2052.260        1599.164
  -2918573.685 8  -1990055.39246  24731544.535    24731545.8864   24731554.2214
      3568.327        2780.515
  -4169747.797 9  -3053075.77348  21183811.940    21183813.4414   21183819.9574
      2245.643        1749.852
    304784.786 9    237280.91848  21024912.818    21024914.8384   21024920.9854
      -397.127        -309.450
  -7958509.137 9  -5838772.97546  22980217.372    22980219.2474   22980226.8134
      4653.401        3626.027
   4036236.692 9   3134971.94746  23093801.126    23093802.8834   23093809.6504
     -2473.073       -1927.070
    636108.556 9    494912.80347  24141247.485    24141248.4954   24141256.4974
      -628.431        -489.686
  -3840728.164 9  -2970726.82246  24462183.108    24462185.5014   24462191.8344
      4292.420        3344.743
 97  4 24 15 53 29.9990000  0  9 31 27 15  2 19  7 18 10 26         -0.001001904
   2122994.075 9   1650151.25647  22681891.701    22681892.8934   22681898.4714
     -1595.263       -1243.062
  -3946975.831 9  -3064229.55948  20011247.646    20011249.3924   20011255.1674
      2038.895        1588.749
  -3025502.201 8  -2073376.31046  24711196.438    24711198.1534   24711206.3754
      3560.764        2774.621
  -4236946.190 9  -3105438.14448  21171024.508    21171025.9744   21171032.5174
      2235.008        1741.565
    316895.162 9    246717.55748  21027217.436    21027219.4314   21027225.5564
      -409.540        -319.122
  -8097982.958 9  -5947453.84246  22953676.497    22953678.2774   22953685.8054
      4645.398        3619.791
   4110540.061 9   3192870.61546  23107940.698    23107942.3604   23107949.1494
     -2479.940       -1932.421
    655133.446 9    509737.36047  24144867.737    24144868.8494   24144876.8634
      -639.269        -498.132
  -3969341.601 9  -3070945.06246  24437708.663    24437711.0984   24437717.5174
      4282.444        3336.969
 97  4 24 15 53 59.9980000  0  9 31 27 15  2 19  7 18 10 26         -0.001024796
   2171044.505 9   1687593.11747  22691035.354    22691036.6144   22691042.2274
     -1608.553       -1253.418
  -4007995.559 9  -3111777.40248  19999635.983    19999637.7034   19999643.4744
      2028.969        1581.015
  -3132260.746 9  -2156564.76746  24690880.920    24690882.7904   24690890.8584
      3556.463        2771.270
  -4303894.321 9  -3157605.51648  21158284.745    21158286.1884   21158292.7004
      2228.104        1736.185
    329302.719 9    256385.76648  21029578.583    21029580.5414   21029586.6614
      -418.039        -325.745
  -8237271.965 9  -6055990.70747  22927170.791    22927172.4184   22927179.9224
      4640.502        3615.976
   4184983.282 9   3250878.25146  23122106.687    23122108.4664   23122115.2954
     -2483.349       -1935.077
    674418.647 9    524764.74347  24148537.724    24148538.7074   24148546.7044
      -646.812        -504.009
  -4097719.697 9  -3170979.92246  24413279.273    24413281.5904   24413287.9434
      4276.100        3332.026
 97  4 24 15 54 29.9980000  0  9 31 27 15  2 19  7 18 10 26         -0.001047695
   2219495.367 9   1725347.01147  22700255.218    22700256.5404   22700262.2084
     -1621.927       -1263.839
  -4068726.709 9  -3159100.37948  19988079.221    19988080.9534   19988086.6984
      2019.373        1573.537
  -3238893.305 9  -2239655.04446  24670589.577    24670591.1674   24670599.3254
      3551.943        2767.748
  -4370630.723 9  -3209607.90048  21145585.231    21145586.6794   21145593.1914
      2220.534        1730.286
    341969.806 9    266256.20848  21031989.061    21031991.0134   21031997.1624
      -426.813        -332.582
  -8376418.242 9  -6164416.36047  22900692.175    22900693.6984   22900701.2394
      4635.604        3612.159
   4259533.526 9   3308969.29746  23136293.101    23136294.9644   23136301.7364
     -2487.094       -1937.995
    693936.926 9    539973.74847  24152251.877    24152252.9134   24152260.8924
      -654.800        -510.234
  -4225904.546 9  -3270864.20346  24388886.481    24388888.7774   24388895.2154
      4269.291        3326.720
 97  4 24 15 54 59.9980000  0  9 31 27 15  2 19  7 18 10 26         -0.001070590
   2268359.487 9   1763422.91947  22709553.657    22709555.0934   22709560.7684
     -1635.234       -1274.208
  -4129151.262 9  -3206184.44548  19976580.788    19976582.5374   19976588.2764
      2009.250        1565.649
  -3345373.498 9  -2322626.59646  24650327.079    24650328.6014   24650336.7134
      3546.984        2763.884
  -4437116.294 9  -3261414.83348  21132933.419    21132934.8794   21132941.3974
      2212.121        1723.731
    354918.233 9    276345.87148  21034453.072    21034455.0264   21034461.1784
      -436.224        -339.915
  -8515407.568 9  -6272719.70647  22874243.351    22874244.8814   22874252.4964
      4630.654        3608.302
   4334207.222 9   3367156.53146  23150503.179    23150504.9534   23150511.7194
     -2490.960       -1941.008
    713705.146 9    555377.52047  24156013.628    24156014.6274   24156022.6974
      -662.803        -516.470
  -4353868.919 9  -3370576.68346  24364535.557    24364538.0484   24364544.4174
      4262.124        3321.136
 97  4 24 15 55 29.9980000  0  9 31 27 15  2 19  7 18 10 26         -0.001093491
   2317604.900 9   1801795.93647  22718924.734    22718926.1814   22718931.9354
     -1648.644       -1284.658
  -4189278.896 9  -3253037.14748  19965138.914    19965140.6474   19965146.3694
      1998.340        1557.148
  -3451707.274 9  -2405484.06846  24630092.449    24630093.9994   24630102.1344
      3541.094        2759.294
  -4503350.350 9  -3313025.77748  21120329.463    21120330.9624   21120337.4774
      2202.777        1716.450
    368156.079 9    286661.05848  21036972.171    21036974.1464   21036980.3184
      -447.138        -348.419
  -8654245.265 9  -6380904.89247  22847823.219    22847824.8814   22847832.5654
      4624.446        3603.464
   4409003.098 9   3425438.97846  23164736.604    23164738.1904   23164745.0004
     -2496.427       -1945.268
    733716.921 9    570971.05647  24159821.907    24159822.7864   24159830.8664
      -672.348        -523.908
  -4481622.355 9  -3470124.80046  24340224.998    24340227.3794   24340233.6914
      4253.901        3314.728
 97  4 24 15 55 59.9980000  0  9 31 27 15  2 19  7 18 10 26         -0.001116397
   2367209.064 9   1840448.50147  22728364.182    22728365.5574   22728371.3344
     -1660.124       -1293.603
  -4249110.966 9  -3299659.54348  19953753.231    19953754.9734   19953760.7064
      1988.700        1549.636
  -3557901.365 9  -2488232.68046  24609884.397    24609885.9524   24609894.0874
      3536.761        2755.918
  -4569347.802 9  -3364452.35948  21107770.623    21107772.0814   21107778.5684
      2195.261        1710.593
    381681.931 9    297200.66248  21039546.038    21039548.0274   21039554.2104
      -456.427        -355.657
  -8792945.220 9  -6488982.74947  22821429.386    22821431.0714   22821438.8494
      4620.458        3600.357
   4483938.174 9   3483829.87946  23178996.175    23178997.9004   23179004.7114
     -2501.021       -1948.848
    753989.171 9    586767.58147  24163679.742    24163680.5774   24163688.6344
      -680.813        -530.504
  -4609160.788 9  -3569505.36546  24315955.515    24315957.6094   24315963.9444
      4247.047        3309.387
 97  4 24 15 56 29.9980000  0  9 31 27 15  2 19  7 18 10 26         -0.001139282
   2417211.112 9   1879411.10647  22737879.267    22737880.6784   22737886.4354
     -1671.785       -1302.690
  -4308597.911 9  -3346013.01048  19942433.231    19942434.9914   19942440.7284
      1978.485        1541.677
  -3663907.761 8  -2570835.03846  24589711.792    24589713.5404   24589721.7224
      3531.755        2752.017
  -4635057.227 9  -3415654.50248  21095266.520    21095267.9854   21095274.4984
      2186.912        1704.087
    395552.961 9    308009.24148  21042185.603    21042187.6184   21042193.7904
      -466.610        -363.592
  -8931469.072 9  -6596923.38447  22795069.071    22795070.8084   22795078.6294
      4616.018        3596.897
   4559076.559 9   3542379.20446  23193294.518    23193296.2264   23193303.1194
     -2506.639       -1953.225
    774559.728 9    602796.54447  24167594.297    24167595.1144   24167603.1304
      -688.998        -536.882
  -4736439.073 9  -3668683.22346  24291735.317    24291737.3744   24291743.8184
      4239.748        3303.700
 97  4 24 15 56 59.9980000  0  9 31 27 15  2 19  7 18 10 26         -0.001162168
   2467573.334 9   1918654.35847  22747462.981    22747464.3474   22747470.0734
     -1683.703       -1311.976
  -4367753.697 9  -3392108.43248  19931176.306    19931178.0254   19931183.7614
      1967.335        1532.988
  -3769747.711 8  -2653307.69046  24569571.305    24569572.8464   24569581.0624
      3526.312        2747.776
  -4700505.995 9  -3466653.53648  21082811.990    21082813.4844   21082819.9894
      2178.515        1697.544
    409746.224 9    319068.90848  21044886.536    21044888.5554   21044894.6914
      -477.542        -372.111
  -9069841.137 9  -6704745.74147  22768737.677    22768739.4664   22768747.2844
      4610.614        3592.686
   4634398.240 9   3601071.36046  23207627.583    23207629.4854   23207636.4064
     -2512.710       -1957.956
    795389.316 9    619027.34547  24171557.977    24171558.8574   24171566.8594
      -697.685        -543.651
  -4863487.951 9  -3767682.33346  24267558.542    24267560.7764   24267567.2174
      4232.278        3297.879
 97  4 24 15 57 29.9980000  0  9 31 27 15  2 19  7 18 10 26         -0.001185063
   2518276.777 9   1958163.50547  22757111.496    22757112.8864   22757118.6214
     -1697.787       -1322.951
  -4426595.838 9  -3437959.45148  19919978.995    19919980.7434   19919986.4784
      1954.307        1522.837
  -3875441.374 9  -2735666.35346  24549458.410    24549459.9674   24549468.2274
      3518.881        2741.985
  -4765732.164 9  -3517479.11848  21070399.863    21070401.3584   21070407.8484
      2168.798        1689.972
    424240.247 9    330362.93248  21047644.664    21047646.6774   21047652.8154
      -489.670        -381.561
  -9208062.813 9  -6812450.91747  22742434.836    22742436.7644   22742444.4944
      4603.068        3586.806
   4709878.728 9   3659887.26046  23221991.001    23221992.9834   23221999.9224
     -2520.391       -1963.941
    816464.965 9    635449.87947  24175568.356    24175569.4484   24175577.4604
      -708.451        -552.040
  -4990334.315 9  -3866523.63146  24243420.585    24243422.7744   24243429.1444
      4222.981        3290.635
 97  4 24 15 57 59.9980000  0  9 31 27 15  2 19  7 18 10 26         -0.001207932
   2569383.670 9   1997987.01947  22766836.742    22766838.2234   22766843.9704
     -1709.912       -1332.399
  -4485069.590 9  -3483523.41348  19908851.813    19908853.5654   19908859.3074
      1943.590        1514.486
  -3980933.640 9  -2817868.08646  24529383.862    24529385.4584   24529393.6114
      3513.550        2737.831
  -4830689.573 9  -3568095.27748  21058038.900    21058040.3734   21058046.8784
      2161.337        1684.159
    439067.203 9    341916.38448  21050466.138    21050468.1694   21050474.3184
      -499.078        -388.892
  -9346076.675 9  -6919994.16047  22716171.760    22716173.5804   22716181.2834
      4597.325        3582.331
   4785564.002 9   3718862.72546  23236393.612    23236395.5504   23236402.4724
     -2525.447       -1967.881
    837832.699 9    652100.02447  24179634.630    24179635.6364   24179643.6534
      -716.356        -558.199
  -5116926.724 9  -3965167.04646  24219330.930    24219333.0214   24219339.4144
      4216.196        3285.348
 97  4 24 15 58 29.9980000  0  9 31 27 15  2 19  7 18 10 26         -0.001230806
   2620851.765 9   2038091.98947  22776630.672    22776632.2384   22776638.0634
     -1722.839       -1342.472
  -4543221.346 9  -3528836.47148  19897785.939    19897787.6904   19897793.4334
      1931.698        1505.219
  -4086268.104 9  -2899946.84446  24509339.208    24509340.8434   24509349.0954
      3507.267        2732.935
  -4895425.106 9  -3618538.54148  21045720.157    21045721.6094   21045728.1094
      2153.035        1677.690
    454169.665 9    353684.51548  21053340.030    21053342.0754   21053348.2534
      -508.925        -396.565
  -9483911.090 9  -7027397.56747  22689942.741    22689944.5384   22689952.2204
      4590.207        3576.785
   4861380.200 9   3777940.21846  23250821.320    23250822.9844   23250829.8144
     -2530.172       -1971.562
    859435.784 9    668933.55647  24183745.633    24183746.6604   24183754.5834
      -725.346        -565.205
  -5243313.911 9  -4063650.53946  24195280.139    24195282.3014   24195288.7274
      4208.002        3278.963
 97  4 24 15 58 59.9980000  0  9 31 27 15  2 19  7 18 10 26         -0.001253669
   2672707.751 9   2078499.21247  22786498.564    22786500.1104   22786505.9174
     -1735.625       -1352.435
  -4601020.803 9  -3573875.01548  19886787.132    19886788.8354   19886794.5554
      1920.298        1496.336
  -4191421.754 9  -2981884.71746  24489329.057    24489330.5794   24489338.9914
      3501.575        2728.500
  -4959926.149 9  -3668799.09348  21033446.028    21033447.4754   21033453.9764
      2145.637        1671.925
    469548.496 9    365667.99848  21056266.575    21056268.6144   21056274.8114
      -517.800        -403.481
  -9621535.080 9  -7134637.02147  22663753.826    22663755.5664   22663763.1754
      4583.371        3571.458
   4937318.220 9   3837112.63846  23265272.225    23265273.5524   23265280.4324
     -2533.568       -1974.209
    881304.001 9    685973.67647  24187907.242    24187908.1034   24187916.0064
      -733.858        -571.837
  -5369463.300 9  -4161948.73446  24171274.586    24171276.8084   24171283.2764
      4200.668        3273.248
 97  4 24 15 59 29.9980000  0  9 31 27 15  2 19  7 18 10 26         -0.001276503
   2724996.018 9   2119243.28347  22796448.760    22796450.2584   22796456.0524
     -1749.991       -1363.629
  -4658433.396 9  -3618612.10448  19875861.884    19875863.5994   19875869.3184
      1907.347        1486.244
  -4296354.026 9  -3063650.08746  24469360.850    24469362.5304   24469371.0874
      3493.982        2722.583
  -5024155.292 9  -3718847.77148  21021223.688    21021225.0864   21021231.5994
      2136.410        1664.735
    485230.931 9    377888.05948  21059250.929    21059252.9154   21059259.1054
      -527.672        -411.173
  -9758915.743 9  -7241686.86347  22637611.137    22637612.8544   22637620.4894
      4575.565        3565.375
   5013398.843 9   3896396.16946  23279750.039    23279751.2294   23279758.2194
     -2538.352       -1977.937
    903469.435 9    703245.39547  24192125.115    24192126.0344   24192133.9694
      -743.602        -579.430
  -5495348.753 9  -4260041.27646  24147319.381    24147321.5674   24147328.0904
      4191.710        3266.268
 97  4 24 15 59 59.9980000  0  9 31 27 15  2 19  7 18 10 26         -0.001299346
   2777653.504 9   2160275.05047  22806469.125    22806470.7034   22806476.4924
     -1761.663       -1372.724
  -4715508.302 9  -3663086.06148  19865000.951    19865002.6574   19865008.3314
      1896.627        1477.891
  -4401110.174 9  -3145278.21346  24449426.429    24449428.1514   24449436.6844
      3488.569        2718.365
  -5088160.753 9  -3768722.14948  21009043.847    21009045.2624   21009051.7694
      2129.599        1659.428
    501167.893 9    390306.44948  21062283.622    21062285.6464   21062291.8074
      -535.985        -417.651
  -9896116.409 9  -7348596.45647  22611502.609    22611504.4384   22611512.0344
      4570.029        3561.062
   5089566.424 9   3955747.46246  23294244.163    23294245.4604   23294252.5634
     -2540.412       -1979.542
    925870.409 9    720700.64647  24196387.881    24196388.8234   24196396.7954
      -751.015        -585.206
  -5621009.828 9  -4357958.96846  24123406.806    24123409.0154   24123415.5374
      4184.541        3260.681
 97  4 24 16  0 29.9980000  0  9 31 27 15  2 19  7 18 10 26         -0.001322188
   2830684.041 9   2201597.50447  22816560.662    22816562.1234   22816567.9034
     -1773.016       -1381.571
  -4772238.758 9  -3707291.61448  19854205.578    19854207.2414   19854212.8884
      1886.176        1469.748
  -4505676.101 9  -3226758.12946  24429528.347    24429529.8914   24429538.4084
      3483.188        2714.172
  -5151939.939 9  -3818420.20948  20996907.103    20996908.5064   20996915.0234
      2122.972        1654.264
    517387.844 9    402945.35348  21065370.206    21065372.2244   21065378.3594
      -544.736        -424.470
 -10033131.878 9  -7455361.72547  22585429.456    22585431.2504   22585438.8564
      4565.009        3557.150
   5165805.556 9   4015154.50546  23308751.764    23308753.2974   23308760.5604
     -2541.606       -1980.472
    948523.081 9    738352.03847  24200698.565    24200699.4884   24200707.4834
      -758.470        -591.015
  -5746423.048 9  -4455683.53546  24099541.443    24099543.6404   24099550.1454
      4177.092        3254.877
 97  4 24 16  0 59.9980000  0  9 31 27 15  2 19  7 18 10 26         -0.001345033
   2884075.604 9   2243201.28647  22826720.926    22826722.2764   22826728.0114
     -1786.820       -1392.327
  -4828636.236 9  -3751237.70048  19843473.493    19843475.1314   19843480.7994
      1873.259        1459.682
  -4610055.638 9  -3308092.80346  24409665.530    24409667.1264   24409675.6064
      3474.872        2707.692
  -5215493.713 9  -3867942.62148  20984813.268    20984814.6484   20984821.1764
      2113.384        1646.793
    533905.650 9    415816.35848  21068513.354    21068515.4474   21068521.6004
      -557.155        -434.147
 -10169977.681 9  -7561994.79647  22559388.704    22559390.3784   22559398.0084
      4557.543        3551.332
   5242107.340 9   4074610.37146  23323271.493    23323273.1454   23323280.4314
     -2545.834       -1983.767
    971423.642 9    756196.59046  24205056.452    24205057.3284   24205065.4004
      -768.756        -599.031
  -5871594.144 9  -4553219.43546  24075722.133    24075724.3604   24075730.7944
      4167.243        3247.202
 97  4 24 16  1 29.9980000  0  9 31 27 15  2 19  7 18 10 26         -0.001367868
   2937828.956 9   2285086.97147  22836949.784    22836951.2344   22836956.9774
     -1797.953       -1401.002
  -4884698.315 9  -3794922.44548  19832805.130    19832806.8544   19832812.5664
      1862.973        1451.667
  -4714228.428 9  -3389266.38846  24389842.226    24389843.7714   24389852.0374
      3468.756        2702.927
  -5278807.944 9  -3917278.38548  20972764.914    20972766.3394   20972772.8414
      2106.489        1641.420
    550760.564 9    428950.02748  21071720.799    21071722.8564   21071728.9884
      -567.715        -442.375
 -10306644.877 9  -7668488.68347  22533381.790    22533383.5244   22533391.1404
      4552.308        3547.253
   5318498.999 9   4134136.26546  23337808.472    23337810.0784   23337817.2694
     -2548.316       -1985.701
    994594.958 9    774252.11246  24209465.800    24209466.7694   24209474.8024
      -777.218        -605.624
  -5996504.532 9  -4650552.18746  24051952.510    24051954.7374   24051961.1714
      4158.757        3240.590
 97  4 24 16  1 59.9980000  0  9 31 27 15  2 19  7 18 10 26         -0.001390684
   2991933.047 9   2327245.96747  22847245.473    22847246.9154   22847252.6924
     -1809.599       -1410.077
  -4940431.146 9  -3838350.63048  19822199.555    19822201.2684   19822206.9664
      1852.239        1443.303
  -4818198.103 9  -3470281.69946  24370057.621    24370059.0454   24370067.2094
      3462.181        2697.803
  -5341900.978 9  -3966441.78148  20960758.622    20960760.1104   20960766.6274
      2099.268        1635.793
    567961.544 9    442353.36948  21074994.066    21074996.1374   21075002.2724
      -579.203        -451.327
 -10443124.737 9  -7774836.59447  22507410.605    22507412.2824   22507419.8984
      4545.997        3542.335
   5394987.399 9   4193737.55246  23352363.819    23352365.4084   23352372.5924
     -2551.293       -1988.021
   1018036.988 9    792518.58446  24213926.712    24213927.6574   24213935.6934
      -785.935        -612.417
  -6121133.547 9  -4747665.68446  24028236.432    24028238.6464   24028245.0204
      4149.624        3233.473
 97  4 24 16  2 29.9980000  0  9 31 27 15  2 19  7 18 10 26         -0.001413485
   3046387.040 9   2369677.61347  22857607.742    22857609.1664   22857615.0004
     -1820.997       -1418.959
  -4995855.183 9  -3881538.19748  19811652.756    19811654.4454   19811660.1694
      1842.234        1435.507
  -4921979.077 9  -3551149.96846  24350308.771    24350310.2354   24350318.3054
      3456.200        2693.143
  -5404776.713 9  -4015435.85448  20948793.758    20948795.2154   20948801.7514
      2092.108        1630.214
    585492.020 9    456013.45848  21078330.108    21078332.1254   21078338.2674
      -589.744        -459.541
 -10579428.014 9  -7881046.91147  22481472.999    22481474.6664   22481482.2054
      4540.461        3538.022
   5471561.450 9   4253405.57246  23366935.332    23366937.0964   23366944.2454
     -2554.240       -1990.317
   1041726.387 9    810977.81147  24218434.723    24218435.6164   24218443.7484
      -793.545        -618.347
  -6245498.418 9  -4844573.36146  24004570.604    24004572.7654   24004579.0874
      4141.196        3226.906
 97  4 24 16  2 59.9980000  0  9 31 27 15  2 19  7 18 10 26         -0.001436261
   3101210.799 9   2412397.38347  22868040.378    22868041.8004   22868047.6554
     -1833.588       -1428.770
  -5050944.070 9  -3924464.60948  19801169.691    19801171.4024   19801177.1144
      1830.541        1426.396
  -5025549.872 9  -3631854.46246  24330600.059    24330601.4084   24330609.4994
      3448.816        2687.389
  -5467408.471 9  -4064239.81948  20936875.385    20936876.7934   20936883.3334
      2083.745        1623.697
    603362.151 9    469938.21148  21081730.688    21081732.7354   21081738.8794
      -601.056        -468.355
 -10715529.770 9  -7987100.20447  22455573.621    22455575.3394   22455582.8244
      4533.369        3532.495
   5548265.190 9   4313174.65646  23381531.676    23381533.3174   23381540.5314
     -2558.973       -1994.005
   1065660.812 9    829627.96746  24222989.400    24222990.2254   24222998.4384
      -801.631        -624.648
  -6369579.298 9  -4941259.73046  23980958.629    23980960.9194   23980967.2154
      4131.411        3219.281
 97  4 24 16  3 29.9980000  0  9 31 27 15  2 19  7 18 10 26         -0.001459025
   3156383.476 9   2455389.03547  22878539.326    22878540.8624   22878546.7234
     -1844.614       -1437.361
  -5105705.185 9  -3967135.61048  19790749.012    19790750.7134   19790756.4254
      1820.107        1418.265
  -5128927.970 9  -3712408.79346  24310927.701    24310929.2234   24310937.3304
      3443.134        2682.962
  -5529824.439 9  -4112875.62948  20924998.038    20924999.4524   20925005.9564
      2077.332        1618.700
    621530.397 9    484095.26848  21085187.976    21085190.0234   21085196.2094
      -610.024        -475.343
 -10851439.511 9  -8093003.86647  22429710.836    22429712.5704   22429720.0054
      4527.459        3527.890
   5625084.407 9   4373033.71946  23396150.042    23396151.5454   23396158.7414
     -2562.045       -1996.399
   1089800.576 9    848438.12547  24227582.978    24227583.8694   24227592.1094
      -807.448        -629.180
  -6493392.679 9  -5037737.66946  23957397.701    23957400.0284   23957406.3214
      4122.981        3212.712
 97  4 24 16  3 59.9980000  0  9 31 27 15  2 19  7 18 10 26         -0.001481767
   3211938.069 9   2498678.29447  22889111.089    22889112.6054   22889118.4364
     -1858.982       -1448.557
  -5160088.619 9  -4009512.31348  19780400.175    19780401.9064   19780407.5944
      1805.508        1406.889
  -5232078.673 9  -3792785.94846  24291298.885    24291300.3454   24291308.3004
      3433.545        2675.490
  -5591975.189 9  -4161304.78148  20913171.148    20913172.5344   20913179.0144
      2065.987        1609.860
    640022.247 9    498504.48048  21088706.832    21088708.9294   21088715.0944
      -622.623        -485.161
 -10987118.038 9  -8198727.36947  22403891.998    22403893.7894   22403901.2194
      4517.898        3520.440
   5702040.707 9   4432999.59946  23410794.154    23410795.8684   23410803.0194
     -2568.249       -2001.233
   1114157.921 9    867417.82146  24232217.918    24232218.9544   24232227.1844
      -816.380        -636.140
  -6616903.000 9  -5133979.46146  23933894.680    23933896.7894   23933903.0304
      4111.181        3203.518
 97  4 24 16  4 29.9980000  0  9 31 27 15  2 19  7 18 10 26         -0.001504485
   3267878.663 9   2542268.32547  22899756.253    22899757.7794   22899763.6464
     -1870.835       -1457.793
  -5214065.492 9  -4051572.22248  19770128.709    19770130.4744   19770136.1224
      1792.259        1396.565
  -5334977.604 9  -3872966.91146  24271717.904    24271719.3304   24271727.2094
      3425.625        2669.318
  -5653818.216 9  -4209494.15648  20901402.816    20901404.1864   20901410.6674
      2056.413        1602.400
    658852.081 9    513177.05248  21092290.117    21092292.1514   21092298.3314
      -633.308        -493.487
 -11122547.178 9  -8304256.54647  22378120.731    22378122.4984   22378129.8344
      4510.032        3514.311
   5779144.316 9   4493080.26446  23425466.406    23425468.3114   23425475.3354
     -2572.610       -2004.631
   1138750.815 9    886581.07146  24236897.902    24236898.8664   24236907.1524
      -823.748        -641.882
  -6740099.550 9  -5229976.74946  23910451.191    23910453.2694   23910459.5354
      4101.451        3195.936
 97  4 24 16  4 59.9980000  0  9 31 27 15  2 19  7 18 10 26         -0.001527213
   3324142.902 9   2586110.54447  22910462.967    22910464.4774   22910470.3594
     -1880.886       -1465.625
  -5267661.522 9  -4093335.36648  19759929.738    19759931.5284   19759937.1724
      1780.095        1387.087
  -5437653.588 9  -3952974.13046  24252179.371    24252180.7664   24252188.5764
      3418.581        2663.829
  -5715396.441 9  -4257477.18548  20889684.825    20889686.2124   20889692.7384
      2048.159        1595.968
    677980.708 9    528082.45348  21095930.223    21095932.2104   21095938.4214
      -642.721        -500.822
 -11257757.783 9  -8409615.42247  22352391.035    22352392.8014   22352400.0784
      4503.269        3509.041
   5856358.158 9   4553246.81846  23440159.687    23440161.6634   23440168.7324
     -2575.629       -2006.984
   1163544.998 9    905901.17246  24241616.053    24241617.1014   24241625.3744
      -830.079        -646.815
  -6863024.109 9  -5325762.09646  23887059.399    23887061.5244   23887067.7474
      4092.878        3189.256
 97  4 24 16  5 29.9980000  0  9 31 27 15  2 19  7 18 10 26         -0.001549950
   3380717.754 9   2630194.79847  22921228.749    22921230.2564   22921236.2184
     -1890.422       -1473.056
  -5320882.145 9  -4134805.98548  19749802.308    19749804.0324   19749809.6404
      1768.641        1378.162
  -5540098.801 9  -4032801.54046  24232684.521    24232686.1034   24232693.9364
      3411.552        2658.352
  -5776713.116 9  -4305256.40748  20878016.682    20878018.0644   20878024.5864
      2040.173        1589.745
    697412.194 9    543223.84548  21099628.021    21099629.9224   21099636.1334
      -652.243        -508.241
 -11392751.632 9  -8514805.40247  22326702.668    22326704.3284   22326711.6114
      4496.767        3503.974
   5933674.768 9   4613493.46446  23454872.509    23454874.5024   23454881.6734
     -2578.310       -2009.073
   1188557.820 9    925391.64246  24246376.053    24246376.9454   24246385.1864
      -836.990        -652.200
  -6985677.066 9  -5421335.80046  23863719.268    23863721.5074   23863727.7084
      4084.566        3182.779
 97  4 24 16  5 59.9980000  0  9 31 27 15  2 19  7 18 10 26         -0.001572705
   3437576.732 9   2674500.46747  22932048.685    22932050.1744   22932056.1674
     -1901.496       -1481.685
  -5373775.513 9  -4176021.60148  19739737.087    19739738.8064   19739744.3624
      1756.324        1368.564
  -5642336.310 9  -4112467.08246  24213229.217    24213230.8444   24213238.7384
      3403.015        2651.700
  -5837792.873 9  -4352851.01948  20866393.625    20866394.9904   20866401.4714
      2030.929        1582.542
    717124.507 9    558584.07148  21103379.104    21103381.0704   21103387.2944
      -663.048        -516.661
 -11527554.424 9  -8619846.49747  22301050.597    22301052.1534   22301059.4834
      4488.727        3497.709
   6011066.158 9   4673798.36946  23469599.662    23469601.6764   23469608.7964
     -2582.392       -2012.254
   1213772.602 9    945039.47546  24251174.197    24251175.1654   24251183.4794
      -845.300        -658.675
  -7108089.050 9  -5516721.73746  23840424.959    23840427.3114   23840433.4804
      4075.033        3175.350
 97  4 24 16  6 29.9980000  0  9 31 27 15  2 19  7 18 10 26         -0.001595454
   3494752.419 9   2719052.89847  22942929.105    22942930.3724   22942936.3734
     -1912.442       -1490.215
  -5426325.423 9  -4216969.58848  19729737.276    19729738.9494   19729744.4834
      1744.935        1359.690
  -5744339.344 9  -4191949.92446  24193818.573    24193820.3054   24193828.2124
      3395.098        2645.531
  -5898647.163 9  -4400269.94648  20854813.483    20854814.8374   20854821.2624
      2024.172        1577.277
    737136.745 9    574177.99548  21107187.297    21107189.3104   21107195.5224
      -673.056        -524.459
 -11662134.209 9  -8724713.83247  22275440.824    22275442.4424   22275449.7924
      4481.216        3491.857
   6088558.010 9   4734181.55846  23484345.949    23484347.9624   23484355.0424
     -2585.670       -2014.808
   1239211.528 9    964861.96946  24256015.173    24256016.0814   24256024.4174
      -852.620        -664.379
  -7230247.082 9  -5611909.78746  23817179.172    23817181.3894   23817187.5904
      4066.683        3168.844
 97  4 24 16  6 59.9980000  0  9 31 27 15  2 19  7 18 10 26         -0.001618205
   3552235.843 9   2763845.13247  22953867.980    22953869.1794   22953875.1444
     -1921.624       -1497.369
  -5478568.577 9  -4257678.54448  19719795.838    19719797.4364   19719802.9274
      1736.196        1352.880
  -5846134.518 9  -4271270.78846  24174447.563    24174449.2964   24174457.2484
      3389.539        2641.199
  -5959337.901 9  -4447561.42748  20843264.407    20843265.8154   20843272.2444
      2020.113        1574.114
    757414.030 9    589978.45348  21111046.029    21111048.0024   21111054.1964
      -680.433        -530.207
 -11796514.927 9  -8829426.05847  22249869.080    22249870.6304   22249877.9734
      4475.749        3487.597
   6166110.509 9   4794612.00246  23499103.481    23499105.7114   23499112.8884
     -2586.156       -2015.186
   1264842.545 9    984834.13746  24260892.767    24260893.5644   24260901.9444
      -857.847        -668.452
  -7352173.694 9  -5706917.51246  23793977.269    23793979.5944   23793985.7444
      4060.049        3163.675
 97  4 24 16  7 29.9980000  0  9 31 27 15  2 19  7 18 10 26         -0.001640941
   3610056.394 9   2808900.06047  22964870.952    22964872.1944   22964878.0844
     -1934.697       -1507.556
  -5530495.829 9  -4298141.34548  19709914.422    19709915.9894   19709921.4854
      1724.163        1343.504
  -5947711.446 9  -4350421.60446  24155118.130    24155119.7804   24155127.7074
      3380.814        2634.401
  -6019853.812 9  -4494716.67348  20831748.638    20831750.0024   20831756.4834
      2012.694        1568.333
    777965.735 9    605992.74348  21114957.011    21114958.9064   21114965.0764
      -691.136        -538.548
 -11930673.213 9  -8933964.94847  22224339.662    22224341.1064   22224348.4564
      4466.682        3480.531
   6243719.654 9   4855086.59746  23513872.154    23513874.2664   23513881.4934
     -2589.215       -2017.570
   1290682.733 9   1004969.30846  24265810.079    24265810.7864   24265819.1964
      -866.152        -674.924
  -7473845.249 9  -5801726.49246  23770824.150    23770826.2784   23770832.4104
      4049.972        3155.822
 97  4 24 16  7 59.9980000  0  9 31 27 15  2 19  7 18 10 26         -0.001663638
   3668263.806 9   2854256.43047  22975947.494    22975948.7794   22975954.6234
     -1946.184       -1516.507
  -5582064.644 9  -4338324.84048  19700101.145    19700102.7374   19700108.2774
      1713.097        1334.881
  -6049038.123 9  -4429377.40346  24135836.021    24135837.7564   24135845.8424
      3373.744        2628.891
  -6080149.962 9  -4541700.68048  20820274.631    20820275.9974   20820282.5014
      2006.539        1563.537
    798826.322 9    622247.72248  21118926.632    21118928.5264   21118934.7274
      -700.177        -545.592
 -12064573.209 9  -9038302.58047  22198859.153    22198860.7284   22198868.0584
      4459.502        3474.937
   6321405.853 9   4915621.23246  23528655.448    23528657.5234   23528664.7984
     -2590.283       -2018.402
   1316744.860 9   1025277.42646  24270769.444    24270770.2774   24270778.6774
      -871.909        -679.410
  -7595230.389 9  -5896312.29146  23747725.228    23747727.3684   23747733.6354
      4041.648        3149.336
 97  4 24 16  8 29.9980000  0  9 31 27 15  2 19  7 18 10 26         -0.001686335
   3726827.373 9   2899890.33947  22987091.576    22987093.1104   22987098.9314
     -1958.867       -1526.390
  -5633278.648 9  -4378231.86248  19690355.382    19690357.0024   19690362.5644
      1700.295        1324.905
  -6150131.599 9  -4508151.50246  24116598.533    24116600.2184   24116608.3424
      3364.951        2622.040
  -6140240.694 9  -4588524.62848  20808839.789    20808841.1274   20808847.5924
      1998.332        1557.142
    819980.262 9    638731.28548  21122952.095    21122953.9934   21122960.2164
      -710.842        -553.903
 -12198246.837 9  -9142463.82147  22173421.719    22173423.4254   22173430.7734
      4451.314        3468.556
   6399137.493 9   4976191.27546  23543447.306    23543449.4114   23543456.6994
     -2592.593       -2020.202
   1343000.123 9   1045736.01646  24275765.721    24275766.5924   24275774.9834
      -879.361        -685.216
  -7716341.135 9  -5990684.27246  23724678.530    23724680.6934   23724687.0134
      4031.471        3141.406
 97  4 24 16  8 59.9980000  0  9 31 27 15  2 19  7 18 10 26         -0.001709016
   3785755.186 9   2945808.06846  22998305.057    22998306.6874   22998312.5044
     -1968.976       -1534.267
  -5684112.263 9  -4417842.47448  19680682.038    19680683.6464   19680689.2464
      1689.172        1316.238
  -6250968.078 9  -4586725.33746  24097410.075    24097411.6684   24097419.7814
      3358.096        2616.698
  -6200064.711 9  -4635140.74048  20797455.577    20797456.9674   20797463.4314
      1990.418        1550.975
    841442.652 9    655455.20348  21127036.195    21127038.1744   21127044.4004
      -719.520        -560.665
 -12331685.862 9  -9246442.25247  22148029.008    22148030.7534   22148038.0774
      4445.345        3463.905
   6476926.024 9   5036805.63446  23558250.115    23558252.0994   23558259.4004
     -2592.837       -2020.392
   1369476.489 9   1066366.90746  24280804.061    24280804.8904   24280813.3414
      -884.967        -689.585
  -7837141.041 9  -6084814.04246  23701691.184    23701693.1804   23701699.5214
      4022.587        3134.483
 97  4 24 16  9 29.9980000  0  9 31 27 15  2 19  7 18 10 26         -0.001731705
   3845011.296 9   2991981.61846  23009581.159    23009582.7254   23009588.6554
     -1980.040       -1542.888
  -5734575.787 9  -4457164.70848  19671079.115    19671080.7114   19671086.3184
      1676.379        1306.269
  -6351567.413 9  -4665114.38946  24078266.703    24078268.2534   24078276.3094
      3349.852        2610.274
  -6259611.821 9  -4681541.07548  20786124.071    20786125.5124   20786132.0454
      1980.820        1543.496
    863207.841 9    672415.06748  21131177.962    21131179.9884   21131186.2064
      -730.105        -568.913
 -12464924.168 9  -9350264.27447  22122674.547    22122676.3094   22122683.6544
      4438.571        3458.627
   6554755.769 9   5097452.12146  23573060.680    23573062.7354   23573070.0034
     -2594.521       -2021.705
   1396137.401 9   1087141.59646  24285877.436    24285878.3304   24285886.8394
      -891.181        -694.427
  -7957653.393 9  -6178719.75146  23678758.293    23678760.4034   23678766.7404
      4012.907        3126.941
 97  4 24 16  9 59.9980000  0  9 31 27 15  2 19  7 18 10 26         -0.001754402
   3904587.641 9   3038404.69746  23020918.189    23020919.6864   23020925.7224
     -1990.327       -1550.904
  -5784646.676 9  -4496180.98848  19661550.899    19661552.5294   19661558.1364
      1663.015        1295.856
  -6451911.191 9  -4743304.32246  24059171.837    24059173.4024   24059181.5124
      3341.069        2603.430
  -6318871.667 9  -4727717.57748  20774847.330    20774848.7764   20774855.2944
      1971.391        1536.149
    885294.387 9    689625.33948  21135380.887    21135382.9464   21135389.1694
      -740.799        -577.246
 -12597958.310 9  -9453927.21947  22097358.952    22097360.7044   22097368.0344
      4431.634        3453.221
   6632649.161 9   5158148.20646  23587883.435    23587885.4354   23587892.6774
     -2597.062       -2023.685
   1422989.559 9   1108065.31846  24290987.211    24290988.1854   24290996.6674
      -897.791        -699.577
  -8077863.293 9  -6272389.77846  23655882.774    23655885.1064   23655891.3644
      4002.283        3118.662
 97  4 24 16 10 29.9980000  0  9 31 27 15  2 19  7 18 10 26         -0.001777110
   3964443.402 9   3085045.50946  23032308.360    23032309.8874   23032315.9934
     -2000.542       -1558.864
  -5834343.423 9  -4534905.72648  19652093.816    19652095.5314   19652101.1354
      1649.735        1285.508
  -6552013.754 9  -4821306.27446  24040122.743    24040124.3644   24040132.6054
      3332.105        2596.445
  -6377877.190 9  -4773695.90248  20763618.949    20763620.4164   20763626.8904
      1962.003        1528.834
    907676.309 9    707065.78048  21139640.085    21139642.1184   21139648.2904
      -751.592        -585.656
 -12730799.965 9  -9557440.16847  22072080.080    22072081.7624   22072089.1224
      4424.093        3447.345
   6710601.326 9   5218890.07746  23602717.317    23602719.2624   23602726.5244
     -2600.031       -2025.998
   1450024.908 9   1129131.77546  24296131.955    24296132.8434   24296141.3114
      -904.821        -705.055
  -8197764.502 9  -6365819.27146  23633066.214    23633068.5944   23633074.8794
      3990.888        3109.783
 97  4 24 16 10 59.9980000  0  9 31 27 15  2 19  7 18 10 26         -0.001799811
   4024594.222 9   3131916.23246  23043754.925    23043756.2714   23043762.4204
     -2009.114       -1565.543
  -5883644.755 9  -4573322.35448  19642712.044    19642713.8174   19642719.3974
      1637.495        1275.970
  -6651854.007 9  -4899103.84646  24021123.860    24021125.3374   24021133.5364
      3324.258        2590.331
  -6436614.475 9  -4819465.21348  20752441.626    20752443.0604   20752449.5434
      1954.414        1522.920
    930376.123 9    724753.91648  21143959.786    21143961.7774   21143967.9454
      -761.405        -593.303
 -12863412.178 9  -9660774.33947  22046844.847    22046846.5284   22046853.8284
      4417.024        3441.837
   6788640.695 9   5279699.91146  23617567.887    23617569.7484   23617577.0184
     -2602.224       -2027.707
   1477260.001 9   1150353.88246  24301314.558    24301315.4954   24301323.9564
      -910.227        -709.268
  -8317331.258 9  -6458988.15646  23610313.410    23610315.7034   23610321.9574
      3980.776        3101.903
 97  4 24 16 11 29.9980000  0  9 31 27 15  2 19  7 18 10 26         -0.001822499
   4085027.408 9   3179006.96746  23055255.275    23055256.3994   23055262.5414
     -2019.520       -1573.652
  -5932554.055 9  -4611433.49748  19633404.942    19633406.7074   19633412.2734
      1623.460        1265.034
  -6751425.503 9  -4976691.99146  24002176.047    24002177.5034   24002185.6264
      3314.081        2582.401
  -6495111.866 9  -4865047.58848  20741309.968    20741311.3814   20741317.8804
      1945.862        1516.256
    953404.161 9    742697.82148  21148341.957    21148343.8584   21148350.0744
      -773.275        -602.552
 -12995773.470 9  -9763912.98447  22021657.387    22021659.0244   22021666.3244
      4407.133        3434.130
   6866786.469 9   5340592.65646  23632438.639    23632440.4994   23632447.8434
     -2607.168       -2031.559
   1504681.464 9   1171721.20646  24306532.672    24306533.6474   24306542.0634
      -917.678        -715.074
  -8436566.218 9  -6551898.49146  23587623.614    23587626.0244   23587632.2354
      3968.552        3092.378
 97  4 24 16 11 59.9980000  0  9 31 27 15  2 19  7 18 10 26         -0.001845142
   4145736.447 9   3226312.66546  23066807.956    23066809.0294   23066815.1114
     -2029.324       -1581.291
  -5981084.054 9  -4649249.08348  19624170.043    19624171.7594   19624177.3514
      1610.680        1255.075
  -6850724.076 9  -5054067.46946  23983280.222    23983281.6534   23983289.7764
      3304.550        2574.974
  -6553397.281 9  -4910464.78748  20730218.658    20730220.0444   20730226.5414
      1938.534        1510.546
    976744.431 9    760885.01848  21152783.392    21152785.3764   21152791.6124
      -783.982        -610.895
 -13127862.943 9  -9866839.83047  21996521.584    21996523.2664   21996530.5344
      4397.517        3426.637
   6945040.579 9   5401569.81246  23647330.039    23647331.7834   23647339.1444
     -2610.985       -2034.534
   1532292.801 9   1193236.48246  24311786.827    24311787.8864   24311796.3344
      -924.337        -720.263
  -8555469.252 9  -6644550.18546  23564997.197    23564999.4954   23565005.6734
      3957.087        3083.444
 97  4 24 16 12 29.9980000  0  9 31 27 15  2 19  7 18 10 26         -0.001867778
   4206743.276 9   3273850.40246  23078417.041    23078418.2344   23078424.3594
     -2038.164       -1588.180
  -6029244.812 9  -4686776.94748  19615005.385    19615007.0954   19615012.7074
      1599.768        1246.572
  -6949747.913 9  -5131228.86646  23964436.398    23964438.0714   23964446.1484
      3296.802        2568.937
  -6611471.938 9  -4955717.76548  20719167.378    20719168.7814   20719175.2934
      1932.863        1506.127
   1000401.233 9    779318.86648  21157285.099    21157287.1214   21157293.3934
      -793.374        -618.214
 -13259669.167 9  -9969545.96247  21971439.647    21971441.3254   21971448.6154
      4389.414        3420.323
   7023388.678 9   5462620.21746  23662239.333    23662240.9624   23662248.4194
     -2612.360       -2035.605
   1560087.117 9   1214894.34946  24317075.964    24317077.0634   24317085.4374
      -928.822        -723.757
  -8674053.287 9  -6736953.30246  23542431.406    23542433.7424   23542439.9414
      3948.526        3076.774
 97  4 24 16 12 59.9980000  0  9 31 27 15  2 19  7 18 10 26         -0.001890408
   4268051.081 9   3321622.66646  23090083.378    23090084.7274   23090090.9384
     -2047.660       -1595.579
  -6077049.310 9  -4724027.20848  19605908.491    19605910.2394   19605915.8284
      1588.703        1237.950
  -7048509.116 9  -5208185.61746  23945642.625    23945644.4194   23945652.4334
      3288.692        2562.617
  -6669359.482 9  -5000824.94048  20708151.642    20708153.1044   20708159.6544
      1927.634        1502.052
   1024362.116 9    797989.66048  21161844.658    21161846.7154   21161853.0174
      -802.603        -625.405
 -13391203.893 9 -10072040.52847  21946409.303    21946411.0784   21946418.4024
      4380.971        3413.744
   7101796.067 9   5523716.81646  23677159.872    23677161.4824   23677168.9484
     -2613.335       -2036.365
   1588042.508 9   1236677.71846  24322395.770    24322396.9164   24322405.2154
      -933.491        -727.396
  -8792367.882 9  -6829146.46346  23519916.823    23519919.1714   23519925.4714
      3940.504        3070.523
 97  4 24 16 13 29.9980000  0  9 31 27 15  2 19  7 18 10 26         -0.001913029
   4329670.067 9   3369637.41546  23101808.831    23101810.3874   23101816.6454
     -2059.442       -1604.760
  -6124504.622 9  -4761005.37348  19596878.121    19596879.8274   19596885.4114
      1576.000        1228.052
  -7147002.628 9  -5284933.78946  23926900.130    23926901.6674   23926909.7144
      3278.605        2554.757
  -6727062.704 9  -5045788.48848  20697171.120    20697172.5594   20697179.1134
      1920.260        1496.306
   1048623.458 9    816894.57948  21166461.452    21166463.4814   21166469.8214
      -813.737        -634.081
 -13522462.412 9 -10174319.87147  21921431.633    21921433.3714   21921440.7104
      4370.639        3405.693
   7180253.088 9   5584852.09346  23692089.615    23692091.3784   23692098.9524
     -2615.880       -2038.348
   1616165.165 9   1258591.43546  24327747.494    24327748.5344   24327756.7854
      -940.339        -732.732
  -8910414.681 9  -6921130.96246  23497453.292    23497455.6484   23497461.9574
      3930.338        3062.601
 97  4 24 16 13 59.9980000  0  9 31 27 15  2 19  7 18 10 26         -0.001935637
   4391622.526 9   3417912.00846  23113598.111    23113599.5804   23113605.8494
     -2071.683       -1614.298
  -6171610.944 9  -4797711.60448  19587914.115    19587915.8554   19587921.4094
      1563.354        1218.198
  -7245230.141 9  -5361474.68646  23908207.933    23908209.6194   23908217.6664
      3268.833        2547.142
  -6784568.814 9  -5090598.44048  20686228.094    20686229.5194   20686236.0854
      1912.466        1490.233
   1073187.914 9    836035.68448  21171135.900    21171137.9724   21171144.3244
      -824.897        -642.777
 -13653447.492 9 -10276386.14447  21896506.072    21896507.7484   21896515.0714
      4360.912        3398.113
   7258736.219 9   5646007.71346  23707024.682    23707026.2744   23707033.8784
     -2617.404       -2039.536
   1644458.873 9   1280638.43546  24333131.585    24333132.6044   24333140.8414
      -946.907        -737.850
  -9028183.557 9  -7012898.90446  23475042.551    23475044.9784   23475051.3344
      3919.779        3054.373
 97  4 24 16 14 29.9980000  0  9 31 27 15  2 19  7 18 10 26         -0.001958220
   4453928.730 9   3466462.24846  23125454.705    23125456.0314   23125462.3714
     -2081.130       -1621.660
  -6218333.255 9  -4834118.60048  19579023.237    19579024.9144   19579030.4794
      1552.206        1209.511
  -7343164.278 9  -5437786.97846  23889571.823    23889573.3684   23889581.3604
      3260.875        2540.941
  -6841840.280 9  -5135225.54948  20675329.670    20675331.0854   20675337.6714
      1906.453        1485.548
   1098083.442 9    855434.76948  21175873.426    21175875.4854   21175881.8174
      -834.006        -649.875
 -13784150.802 9 -10378232.85547  21871634.101    21871635.7454   21871643.1094
      4353.508        3392.344
   7337258.515 9   5707193.85746  23721966.950    23721968.6184   23721976.2954
     -2616.805       -2039.069
   1672947.460 9   1302837.28846  24338552.712    24338553.8604   24338562.0414
      -951.527        -741.450
  -9145632.411 9  -7104417.47046  23452692.701    23452695.2154   23452701.5004
      3910.810        3047.384
 97  4 24 16 14 59.9980000  0  9 31 27 15  2 19  7 18 10 26         -0.001980799
   4516526.890 9   3515239.98246  23137366.822    23137368.1404   23137374.4424
     -2091.090       -1629.421
  -6264698.048 9  -4870247.01648  19570200.239    19570201.9794   19570207.5684
      1539.617        1199.702
  -7440836.004 9  -5513894.78746  23870985.294    23870986.9714   23870995.0754
      3251.379        2533.542
  -6898906.094 9  -5179692.41348  20664470.396    20664471.8244   20664478.3704
      1898.631        1479.453
   1123273.400 9    875063.28048  21180666.954    21180669.0084   21180675.3214
      -844.506        -658.057
 -13914610.543 9 -10479889.76847  21846808.458    21846810.0904   21846817.4084
      4344.661        3385.450
   7415790.546 9   5768387.57846  23736911.296    23736912.9144   23736920.5134
     -2617.847       -2039.881
   1701594.109 9   1325159.30946  24344004.099    24344005.2064   24344013.4574
      -957.334        -745.975
  -9262770.704 9  -7195694.04646  23430402.064    23430404.5864   23430410.7104
      3899.146        3038.296
 97  4 24 16 15 29.9980000  0  9 31 27 15  2 19  7 18 10 26         -0.002003360
   4579411.986 9   3564241.30246  23149333.435    23149334.8254   23149341.0994
     -2100.752       -1636.950
  -6310677.649 9  -4906075.28248  19561450.673    19561452.3494   19561457.9714
      1526.210        1189.255
  -7538219.475 9  -5589777.98146  23852453.649    23852455.5074   23852463.5374
      3241.468        2525.819
  -6955720.238 9  -5223963.17148  20653659.127    20653660.5094   20653667.0054
      1889.767        1472.546
   1148787.139 9    894944.09648  21185522.045    21185524.1194   21185530.4494
      -855.606        -666.706
 -14044810.630 9 -10581344.36347  21822032.273    21822033.8634   21822041.1784
      4336.077        3378.761
   7494353.939 9   5829605.75146  23751861.610    23751863.1004   23751870.7264
     -2619.076       -2040.838
   1730411.902 9   1347614.68446  24349487.980    24349489.1074   24349497.3784
      -963.096        -750.464
  -9379547.509 9  -7286688.93546  23408180.381    23408182.6884   23408188.7934
      3886.713        3028.608
 97  4 24 16 15 59.9970000  0  9 31 27 15  2 19  7 18 10 26         -0.002025917
   4642569.016 9   3613454.52046  23161352.056    23161353.2594   23161359.5324
     -2110.010       -1644.164
  -6356255.550 9  -4941590.53548  19552777.504    19552779.1504   19552784.7564
      1512.226        1178.358
  -7635312.773 9  -5665435.06946  23833977.512    23833979.2654   23833987.2564
      3231.366        2517.948
  -7012282.582 9  -5268037.71848  20642895.647    20642897.0214   20642903.5494
      1881.137        1465.821
   1174612.729 9    915067.90248  21190436.535    21190438.6064   21190444.9374
      -866.264        -675.011
 -14174772.470 9 -10682613.30347  21797301.292    21797302.9004   21797310.1914
      4328.156        3372.589
   7572931.197 8   5890834.71946  23766814.300    23766815.9354   23766823.6044
     -2619.882       -2041.466
   1759382.748 9   1370189.32746  24355001.015    24355002.0544   24355010.4234
      -968.653        -754.795
  -9495962.094 9  -7377401.57846  23386027.545    23386029.7624   23386035.8844
      3874.413        3019.023
 97  4 24 16 16 29.9970000  0  9 31 27 15  2 19  7 18 10 26         -0.002048480
   4705988.076 9   3662871.91646  23173420.525    23173421.5914   23173427.8304
     -2117.779       -1650.217
  -6401416.416 9  -4976780.82848  19544183.692    19544185.3244   19544190.9304
      1498.898        1167.972
  -7732108.829 9  -5740860.54046  23815557.862    23815559.6134   23815567.4524
      3222.064        2510.699
  -7068597.657 9  -5311919.59248  20632179.226    20632180.5994   20632187.1644
      1873.612        1459.957
   1200752.700 9    935436.67648  21195410.830    21195412.8904   21195419.2514
      -875.985        -682.586
 -14304504.141 9 -10783702.90047  21772614.083    21772615.7864   21772622.9894
      4320.771        3366.834
   7651535.454 9   5952084.72846  23781772.114    23781773.8374   23781781.6394
     -2620.006       -2041.563
   1788517.232 9   1392891.47846  24360545.162    24360546.2304   24360554.6574
      -973.159        -758.306
  -9612030.239 9  -7467844.27046  23363940.456    23363942.7124   23363948.8444
      3864.005        3010.913
 97  4 24 16 16 59.9970000  0  9 31 27 15  2 19  7 18 10 26         -0.002071053
   4769669.264 9   3712493.57046  23185538.826    23185539.8264   23185546.0444
     -2127.552       -1657.833
  -6446159.932 9  -5011645.90948  19535669.261    19535670.8734   19535676.4984
      1484.231        1156.544
  -7828604.363 9  -5816051.82346  23797195.483    23797197.0224   23797204.9664
      3211.025        2502.097
  -7124663.734 9  -5355607.43548  20621510.212    20621511.5764   20621518.1174
      1864.278        1452.684
   1227199.495 9    956044.54448  21200443.456    21200445.5764   21200451.9544
      -886.936        -691.119
 -14433986.845 9 -10884598.48647  21747974.364    21747976.0264   21747983.1864
      4311.495        3359.606
   7730166.089 9   6013355.28246  23796735.077    23796736.8034   23796744.6434
     -2621.941       -2043.071
   1817803.853 9   1415712.17846  24366118.294    24366119.3804   24366127.7584
      -979.136        -762.963
  -9727771.203 9  -7558032.01146  23341915.653    23341917.9134   23341924.0724
      3852.213        3001.724
 97  4 24 16 17 29.9970000  0  9 31 27 15  2 19  7 18 10 26         -0.002093644
   4833595.865 9   3762306.45646  23197703.674    23197704.7484   23197710.9524
     -2135.651       -1664.144
  -6490513.173 9  -5046206.88748  19527229.054    19527230.7174   19527236.3544
      1471.549        1146.662
  -7924812.421 9  -5891019.10046  23778887.563    23778889.2514   23778897.2264
      3201.695        2494.827
  -7180499.252 9  -5399115.63448  20610885.149    20610886.4844   20610892.9694
      1857.033        1447.039
   1253918.998 9    976864.89748  21205528.022    21205530.1624   21205536.5334
      -895.362        -697.685
 -14563239.160 9 -10985314.55847  21723378.484    21723380.1314   21723387.2654
      4303.998        3353.765
   7808812.940 9   6074638.49246  23811701.081    23811702.9484   23811710.7844
     -2622.470       -2043.483
   1847227.192 9   1438639.40446  24371717.537    24371718.5024   24371726.9314
      -983.590        -766.434
  -9843211.587 9  -7647985.53446  23319948.007    23319950.3804   23319956.5104
      3842.677        2994.294
 97  4 24 16 17 59.9970000  0  9 31 27 15  2 19  7 18 10 26         -0.002116246
   4897773.730 9   3812315.12946  23209916.161    23209917.4224   23209923.5894
     -2143.982       -1670.635
  -6534488.314 9  -5080473.23248  19518860.848    19518862.5574   19518868.1524
      1459.101        1136.962
  -8020729.215 9  -5965759.41446  23760635.163    23760636.8554   23760644.8554
      3191.743        2487.072
  -7236113.639 9  -5442451.51248  20600302.028    20600303.3874   20600309.9004
      1849.564        1441.219
   1280894.976 9    997885.11648  21210661.526    21210663.5884   21210669.9304
      -904.135        -704.521
 -14692244.141 9 -11085837.89347  21698829.586    21698831.2754   21698838.3894
      4295.059        3346.799
   7887490.902 9   6135945.91846  23826673.084    23826674.9034   23826682.7614
     -2623.758       -2044.487
   1876790.802 9   1461675.94946  24377343.457    24377344.3854   24377352.7704
      -988.361        -770.151
  -9958358.909 9  -7737710.69846  23298036.302    23298038.5424   23298044.6954
      3832.778        2986.580
 97  4 24 16 18 29.9970000  0  9 31 27 15  2 19  7 18 10 26         -0.002138842
   4962202.694 9   3862519.46746  23222176.492    23222177.8694   23222184.0264
     -2152.242       -1677.072
  -6578084.816 9  -5114444.54348  19510564.767    19510566.4494   19510572.0044
      1446.548        1127.180
  -8116341.895 9  -6040262.74346  23742440.625    23742442.4154   23742450.3254
      3181.596        2479.166
  -7291493.532 9  -5485604.67448  20589763.534    20589764.9104   20589771.4374
      1841.666        1435.064
   1308141.711 9   1019116.30148  21215846.493    21215848.4844   21215854.8154
      -913.170        -711.561
 -14820954.583 9 -11186131.72147  21674336.820    21674338.4874   21674345.6154
      4284.831        3338.829
   7966224.616 9   6197296.79846  23841655.578    23841657.4584   23841665.3484
     -2625.868       -2046.131
   1906506.393 9   1484830.91046  24382998.297    24382999.0424   24383007.5134
      -993.303        -774.002
 -10073201.811 9  -7827198.65346  23276182.517    23276184.5814   23276190.6764
      3822.496        2978.568
 97  4 24 16 18 59.9970000  0  9 31 27 15  2 19  7 18 10 26         -0.002161419
   5026893.589 9   3912927.90246  23234486.782    23234488.1384   23234494.2694
     -2160.128       -1683.217
  -6621301.823 9  -5148120.13448  19502340.954    19502342.5894   19502348.1054
      1434.851        1118.066
  -8211644.152 9  -6114524.19546  23724305.318    23724307.0084   23724314.8624
      3172.078        2471.749
  -7346628.891 9  -5528567.28848  20579271.627    20579273.0304   20579279.5544
      1834.401        1429.403
   1335663.368 9   1040561.71948  21221083.765    21221085.7424   21221092.0474
      -921.480        -718.036
 -14949351.165 9 -11286180.97447  21649903.703    21649905.4184   21649912.5914
      4275.314        3331.414
   8045028.723 9   6258702.53346  23856651.575    23856653.4374   23856661.3124
     -2627.403       -2047.327
   1936368.137 9   1508099.75946  24388680.823    24388681.5614   24388690.0984
      -997.160        -777.008
 -10187718.599 9  -7916432.49346  23254390.558    23254392.7644   23254398.7624
      3812.104        2970.471
 97  4 24 16 19 29.9970000  0  9 31 27 15  2 19  7 18 10 26         -0.002183998
   5091803.281 9   3963506.82846  23246838.682    23246840.1274   23246846.1784
     -2166.953       -1688.535
  -6664179.040 9  -5181530.95848  19494181.759    19494183.3654   19494188.8414
      1423.927        1109.553
  -8306674.150 9  -6188573.48846  23706221.660    23706223.3804   23706231.2044
      3163.696        2465.218
  -7401569.436 9  -5571378.10448  20568816.822    20568818.2094   20568824.7004
      1828.769        1425.015
   1363425.398 9   1062194.43848  21226366.697    21226368.6894   21226375.0284
      -928.909        -723.825
 -15077475.303 9 -11386017.94147  21625522.461    21625524.1814   21625531.3704
      4266.751        3324.741
   8123854.969 9   6320125.51246  23871651.671    23871653.6024   23871661.5084
     -2627.137       -2047.120
   1966332.136 9   1531448.29246  24394382.760    24394383.5364   24394392.0734
      -999.896        -779.140
 -10301935.872 9  -8005432.95146  23232655.645    23232657.9244   23232663.8694
      3802.871        2963.276
 97  4 24 16 19 59.9970000  0  9 31 27 15  2 19  7 18 10 26         -0.002206549
   5156999.360 9   4014308.91446  23259245.152    23259246.5804   23259252.6614
     -2179.170       -1698.055
  -6706650.213 9  -5214625.37848  19486099.791    19486101.3704   19486106.8674
      1407.726        1096.929
  -8401379.838 9  -6262370.06546  23688199.818    23688201.4954   23688209.3724
      3150.282        2454.765
  -7456272.412 9  -5614003.79248  20558407.144    20558408.5604   20558415.0614
      1818.519        1417.028
   1391499.016 9   1084069.95848  21231708.983    21231710.9784   21231717.2914
      -942.427        -734.359
 -15205265.516 9 -11485594.70848  21601204.809    21601206.5044   21601213.6724
      4253.057        3314.070
   8202734.530 9   6381590.04746  23886661.938    23886663.8674   23886671.7964
     -2631.015       -2050.142
   1996439.432 9   1554908.47746  24400111.796    24400112.7804   24400121.2984
     -1006.981        -784.661
 -10415801.310 9  -8094159.24146  23210987.708    23210989.9644   23210995.9574
      3788.445        2952.035
 97  4 24 16 20 29.9970000  0  9 31 27 15  2 19  7 18 10 26         -0.002229077
   5222487.859 9   4065338.85946  23271707.218    23271708.6344   23271714.7724
     -2187.975       -1704.916
  -6748701.628 9  -5247392.71748  19478097.685    19478099.2494   19478104.7664
      1394.600        1086.701
  -8495758.629 9  -6335911.92546  23670240.130    23670241.7544   23670249.7294
      3140.276        2446.968
  -7510751.212 9  -5656454.80248  20548040.183    20548041.6034   20548048.0964
      1812.120        1412.042
   1419903.388 9   1106203.20548  21237114.147    21237116.1354   21237122.5024
      -952.400        -742.130
 -15332730.381 9 -11584917.94647  21576949.055    21576950.7234   21576957.8554
      4243.532        3306.648
   8281649.556 9   6443082.21546  23901678.825    23901680.9704   23901688.9344
     -2631.160       -2050.255
   2026687.049 9   1578478.00446  24405867.671    24405868.7584   24405877.3074
     -1010.723        -787.576
 -10529302.649 9  -8182601.82447  23189389.086    23189391.3654   23189397.4284
      3776.997        2943.115
 97  4 24 16 20 59.9970000  0  9 31 27 15  2 19  7 18 10 26         -0.002251594
   5288245.978 9   4116578.89146  23284221.046    23284222.0554   23284228.1774
     -2194.476       -1709.981
  -6790360.879 9  -5279854.47848  19470170.136    19470171.7294   19470177.2794
      1384.078        1078.502
  -8589828.136 9  -6409212.79246  23652339.255    23652340.9764   23652348.8384
      3132.298        2440.752
  -7565030.810 9  -5698750.59448  20537711.090    20537712.5364   20537719.0424
      1807.880        1408.738
   1448614.252 9   1128575.26948  21242577.724    21242579.6824   21242586.0534
      -960.229        -748.230
 -15459918.698 9 -11684025.70548  21552745.835    21552747.5544   21552754.6554
      4237.089        3301.628
   8360567.651 9   6504576.76446  23916696.612    23916698.6644   23916706.5964
     -2628.580       -2048.244
   2057044.367 9   1602133.00946  24411644.363    24411645.5474   24411654.2054
     -1011.880        -788.478
 -10642451.599 9  -8270769.81947  23167857.718    23167859.8844   23167865.9214
      3767.593        2935.787
 97  4 24 16 21 29.9970000  0  9 31 27 15  2 19  7 18 10 26         -0.002274115
   5354249.099 9   4168009.84346  23296781.051    23296782.0644   23296788.2524
     -2204.075       -1717.461
  -6831649.536 9  -5312027.45848  19462313.058    19462314.7224   19462320.3434
      1370.200        1067.688
  -8683600.432 9  -6482282.06046  23634494.917    23634496.6654   23634504.4294
      3120.865        2431.843
  -7619126.850 9  -5740903.34948  20527416.981    20527418.3804   20527424.8704
      1800.203        1402.755
   1477614.723 9   1151173.00748  21248096.406    21248098.3094   21248104.6844
      -971.319        -756.872
 -15586859.693 9 -11782940.73748  21528589.793    21528591.4664   21528598.5514
      4227.355        3294.043
   8439455.097 9   6566047.44146  23931708.614    23931710.4684   23931718.4484
     -2628.974       -2048.551
   2087503.382 8   1625867.28246  24417440.476    24417441.7444   24417450.2994
     -1017.022        -792.485
 -10755261.183 9  -8358673.37747  23146390.850    23146392.9564   23146398.9964
      3754.728        2925.762
 97  4 24 16 21 59.9970000  0  9 31 27 15  2 19  7 18 10 26         -0.002296618
   5420526.558 9   4219654.56046  23309393.248    23309394.3714   23309400.5074
     -2212.727       -1724.203
  -6872534.298 9  -5343885.71948  19454532.861    19454534.5754   19454540.2624
      1357.016        1057.415
  -8777034.955 9  -6555088.12246  23616714.874    23616716.6284   23616724.3244
      3109.594        2423.060
  -7673000.101 9  -5782882.50148  20517165.213    20517166.6334   20517173.1294
      1792.969        1397.119
   1506939.542 9   1174023.47948  21253676.803    21253678.6894   21253685.0184
      -982.046        -765.231
 -15713518.508 9 -11881635.89048  21504487.339    21504489.0154   21504496.1064
      4218.068        3286.806
   8518342.781 9   6627518.29046  23946720.445    23946722.3314   23946730.3854
     -2628.755       -2048.381
   2118104.894 9   1649712.57546  24423263.701    24423265.0284   24423273.6124
     -1021.624        -796.071
 -10867692.261 9  -8446282.00347  23124995.959    23124998.0394   23125004.0574
      3742.079        2915.906
 97  4 24 16 22 29.9970000  0  9 31 27 15  2 19  7 18 10 26         -0.002319100
   5487057.745 9   4271496.98146  23322053.553    23322054.8644   23322061.0574
     -2221.467       -1731.013
  -6913017.137 9  -5375430.79748  19446829.233    19446830.9324   19446836.6604
      1343.223        1046.667
  -8870124.975 9  -6627625.74246  23599000.482    23599002.1634   23599009.8264
      3097.626        2413.735
  -7726646.336 9  -5824684.76448  20506956.680    20506958.0804   20506964.5804
      1784.621        1390.614
   1536580.012 9   1197119.92148  21259317.185    21259319.1034   21259325.4514
      -992.629        -773.477
 -15839894.194 9 -11980110.42148  21480438.769    21480440.4424   21480447.5854
      4208.119        3279.054
   8597239.044 9   6688995.83846  23961734.143    23961735.8874   23961743.9064
     -2629.644       -2049.073
   2148858.675 9   1673676.52845  24429116.106    24429117.2644   24429125.9094
     -1027.244        -800.450
 -10979734.503 9  -8533587.62547  23103675.043    23103677.0624   23103683.0874
      3728.845        2905.593
 97  4 24 16 22 59.9970000  0  9 31 27 15  2 19  7 18 10 26         -0.002341595
   5553795.187 9   4323500.12846  23334753.155    23334754.6004   23334760.8224
     -2228.829       -1736.750
  -6953149.775 9  -5406702.98448  19439192.239    19439193.9344   19439199.6774
      1331.075        1037.201
  -8962915.742 9  -6699930.18846  23581342.916    23581344.6134   23581352.3404
      3087.371        2405.744
  -7780102.187 9  -5866338.66448  20496784.394    20496785.7724   20496792.2894
      1778.084        1385.520
   1566476.212 9   1220415.63348  21265006.263    21265008.1904   21265014.5504
     -1001.482        -780.375
 -15966026.548 9 -12078395.33948  21456436.461    21456438.1894   21456445.4034
      4199.457        3272.304
   8676087.955 9   6750436.48146  23976738.850    23976740.3874   23976748.3744
     -2627.976       -2047.774
   2179709.755 8   1697716.27945  24434986.831    24434988.0304   24434996.7464
     -1030.603        -803.067
 -11091450.115 9  -8620638.73647  23082416.130    23082418.2184   23082424.2864
      3717.872        2897.043
 97  4 24 16 23 29.9970000  0  9 31 27 15  2 19  7 18 10 26         -0.002364089
   5620775.952 9   4375692.87646  23347499.283    23347500.6934   23347506.9034
     -2236.333       -1742.597
  -6992886.167 9  -5437666.41248  19431630.704    19431632.3874   19431638.1024
      1318.303        1027.249
  -9055379.661 9  -6771979.94046  23563747.568    23563749.2714   23563757.0754
      3077.120        2397.756
  -7833346.221 9  -5907827.51948  20486652.377    20486653.7374   20486660.2854
      1771.950        1380.740
   1596658.666 9   1243934.39048  21270749.731    21270751.7214   21270758.1324
     -1010.365        -787.297
 -16091867.340 9 -12176453.07148  21432489.852    21432491.4994   21432498.7384
      4190.205        3265.095
   8754904.434 9   6811851.85146  23991737.459    23991738.7424   23991746.8154
     -2626.186       -2046.379
   2210681.663 9   1721850.20445  24440880.720    24440881.7524   24440890.5364
     -1033.665        -805.453
 -11202816.591 9  -8707417.79347  23061223.763    23061225.8934   23061231.9134
      3706.852        2888.456
 97  4 24 16 23 59.9970000  0  9 31 27 15  2 19  7 18 10 26         -0.002386583
   5687999.513 9   4428074.81246  23360291.587    23360293.0044   23360299.2284
     -2244.202       -1748.729
  -7032215.332 9  -5468312.52048  19424146.682    19424148.3344   19424154.0084
      1304.667        1016.624
  -9147515.852 9  -6843774.33246  23546214.728    23546216.2394   23546224.0564
      3066.268        2389.300
  -7886395.173 9  -5949164.35948  20476557.460    20476558.8384   20476565.4014
      1765.665        1375.843
   1627128.919 9   1267677.41348  21276548.094    21276550.0324   21276556.4914
     -1019.948        -794.765
 -16217407.308 9 -12274276.40748  21408600.521    21408602.0664   21408609.2814
      4180.093        3257.215
   8833691.521 9   6873244.31946  24006730.070    24006731.5194   24006739.5584
     -2625.381       -2045.751
   2241749.186 8   1746058.62645  24446792.674    24446793.9094   24446802.4864
     -1036.340        -807.538
 -11313831.844 9  -8793923.17347  23040098.191    23040100.3924   23040106.4544
      3695.178        2879.359
 97  4 24 16 24 29.9970000  0  9 31 27 15  2 19  7 18 10 26         -0.002409077
   5755463.752 9   4480644.28746  23373129.720    23373131.0734   23373137.2674
     -2251.449       -1754.376
  -7071127.466 9  -5498633.67148  19416742.035    19416743.6474   19416749.2954
      1291.425        1006.305
  -9239321.037 9  -6915310.79346  23528744.810    23528746.2704   23528753.9974
      3056.033        2381.324
  -7939249.046 9  -5990349.19548  20466499.746    20466501.1164   20466507.6334
      1759.865        1371.323
   1657886.718 9   1291644.49748  21282401.204    21282403.0904   21282409.5264
     -1028.694        -801.580
 -16342639.693 9 -12371860.05948  21384769.591    21384771.1374   21384778.3544
      4170.749        3249.934
   8912462.994 9   6934624.60746  24021719.866    24021721.3024   24021729.3714
     -2624.085       -2044.742
   2272896.828 8   1770329.46345  24452719.931    24452721.0854   24452729.6714
     -1038.084        -808.897
 -11424492.375 9  -8880152.13147  23019040.274    23019042.3894   23019048.5814
      3684.293        2870.878
 97  4 24 16 24 59.9970000  0  9 31 27 15  2 19  7 18 10 26         -0.002431558
   5823186.231 9   4533414.99746  23386017.043    23386018.2454   23386024.4444
     -2261.011       -1761.827
  -7109594.188 9  -5528607.74448  19409422.053    19409423.6664   19409429.3344
      1275.273         993.719
  -9330771.549 9  -6986570.88946  23511342.296    23511343.7344   23511351.4704
      3042.900        2371.091
  -7991880.639 9  -6031360.82148  20456484.326    20456485.6894   20456492.1904
      1751.135        1364.521
   1688968.187 9   1315863.79048  21288315.837    21288317.7384   21288324.1454
     -1041.125        -811.266
 -16467547.491 9 -12469190.78348  21361000.312    21361001.9744   21361009.1574
      4158.730        3240.569
   8991245.818 9   6996013.76046  24036711.750    24036713.2554   24036721.2554
     -2625.940       -2046.187
   2304137.290 8   1794672.66445  24458664.918    24458666.1104   24458674.6494
     -1042.527        -812.359
 -11534775.782 9  -8966087.24547  22998054.197    22998056.1724   22998062.3374
      3670.140        2859.849
 97  4 24 16 25 29.9970000  0  9 31 27 15  2 19  7 18 10 26         -0.002454052
   5891100.357 9   4586335.03746  23398940.987    23398941.9544   23398948.1434
     -2266.888       -1766.406
  -7147660.840 9  -5558270.07848  19402178.166    19402179.8124   19402185.5044
      1262.229         983.555
  -9421907.270 9  -7057585.69746  23493999.691    23494001.0954   23494008.8624
      3032.355        2362.874
  -8044329.597 9  -6072230.13348  20446503.627    20446504.9844   20446511.4914
      1745.004        1359.743
   1720343.789 9   1340312.28448  21294286.446    21294288.3974   21294294.7584
     -1051.038        -818.991
 -16592180.887 9 -12566307.69348  21337283.336    21337284.9814   21337292.1634
      4149.708        3233.539
   9070014.032 9   7057391.51346  24051701.038    24051702.4354   24051710.4794
     -2625.716       -2046.012
   2335440.020 8   1819064.37345  24464621.804    24464622.8504   24464631.3614
     -1044.776        -814.111
 -11644709.643 9  -9051749.97647  22977134.589    22977136.4444   22977142.6034
      3658.441        2850.733
 97  4 24 16 25 59.9970000  0  9 31 27 15  2 19  7 18 10 26         -0.002476491
   5959212.490 9   4639409.37146  23411902.505    23411903.3104   23411909.4894
     -2274.961       -1772.697
  -7185307.486 9  -5587605.13748  19395014.331    19395015.9044   19395021.5824
      1246.690         971.447
  -9512689.670 9  -7128325.19146  23476724.135    23476725.7194   23476733.6164
      3018.940        2352.421
  -8096550.502 9  -6112921.74748  20436566.289    20436567.6624   20436574.1604
      1735.322        1352.199
   1752055.579 9   1365022.73448  21300320.928    21300322.9794   21300329.3344
     -1063.922        -829.030
 -16716510.477 9 -12663187.87748  21313624.101    21313625.7684   21313632.9384
      4137.889        3224.329
   9148812.575 9   7118792.90346  24066695.970    24066697.3684   24066705.3784
     -2628.471       -2048.159
   2366853.325 8   1843542.21545  24470599.592    24470600.5614   24470609.1304
     -1050.351        -818.455
 -11754262.636 9  -9137115.93547  22956287.329    22956289.2614   22956295.3194
      3644.179        2839.620
 97  4 24 16 26 29.9970000  0  9 31 27 15  2 19  7 18 10 26         -0.002498949
   6027549.332 9   4692658.80246  23424906.370    23424907.4174   23424913.6174
     -2281.561       -1777.840
  -7222513.140 9  -5616596.56748  19387934.346    19387935.9244   19387941.6024
      1233.035         960.806
  -9603088.428 9  -7198765.75746  23459521.796    23459523.3854   23459531.2804
      3007.032        2343.142
  -8148492.518 9  -6153396.04948  20426682.067    20426683.4374   20426689.8774
      1726.850        1345.597
   1784132.268 9   1390017.52548  21306424.921    21306427.0234   21306433.3914
     -1075.139        -837.771
 -16840505.656 9 -12759807.48248  21290028.563    21290030.2314   21290037.3634
      4127.851        3216.507
   9227667.939 9   7180238.56546  24081701.579    24081703.1114   24081711.1684
     -2629.087       -2048.639
   2398422.913 8   1868141.87045  24476607.146    24476608.0874   24476616.5444
     -1054.950        -822.039
 -11863408.159 9  -9222164.38147  22935517.609    22935519.5854   22935525.5934
      3631.611        2829.827
 97  4 24 16 26 59.9970000  0  9 31 27 15  2 19  7 18 10 26         -0.002521421
   6096046.615 9   4746033.26646  23437941.002    23437942.0064   23437948.3034
     -2285.984       -1781.286
  -7259350.202 9  -5645300.77448  19380924.515    19380926.0854   19380931.7564
      1221.734         952.001
  -9693165.234 9  -7268955.44646  23442380.630    23442382.3104   23442390.2324
      2997.080        2335.387
  -8200217.039 9  -6193700.86348  20416839.222    20416840.5884   20416847.0084
      1720.492        1340.643
   1816508.465 9   1415245.70048  21312585.966    21312587.9834   21312594.4104
     -1083.993        -844.670
 -16964232.183 9 -12856217.73948  21266484.214    21266485.8674   21266492.9804
      4119.438        3209.952
   9306499.402 9   7241665.60646  24096702.566    24096704.3064   24096712.3084
     -2627.201       -2047.170
   2430091.003 8   1892818.24645  24482633.637    24482634.3264   24482642.5614
     -1057.156        -823.758
 -11972210.539 9  -9306945.44047  22914813.277    22914815.2124   22914821.0654
      3620.885        2821.469
 97  4 24 16 27 29.9970000  0  9 31 27 15  2 19  7 18 10 26         -0.002543879
   6164745.241 9   4799564.60946  23451013.938    23451014.9354   23451021.2684
     -2293.836       -1787.405
  -7295786.243 9  -5673692.50048  19373991.001    19373992.5504   19373998.2104
      1207.438         940.861
  -9782881.956 9  -7338864.56846  23425308.064    23425309.6914   23425317.6194
      2984.231        2325.375
  -8251696.396 9  -6233814.64248  20407042.989    20407044.3944   20407050.8574
      1711.750        1333.831
   1849195.300 9   1440715.92748  21318806.004    21318808.1154   21318814.5574
     -1094.799        -853.090
 -17087637.906 9 -12952378.01448  21243000.919    21243002.5414   21243009.7054
      4107.764        3200.855
   9385328.883 9   7303091.09846  24111703.447    24111705.0584   24111713.2334
     -2627.805       -2047.640
   2461879.534 8   1917588.52045  24488682.518    24488683.5754   24488691.5614
     -1061.594        -827.216
 -12080633.200 9  -9391430.61247  22894180.901    22894182.9604   22894188.8654
      3607.521        2811.055
 97  4 24 16 27 59.9970000  0  9 31 27 15  2 19  7 18 10 26         -0.002566330
   6233655.985 9   4853261.24646  23464127.121    23464128.2474   23464134.6814
     -2299.934       -1792.156
  -7331817.806 9  -5701769.04848  19367134.441    19367135.9964   19367141.6264
      1195.062         931.217
  -9872246.366 9  -7408499.15146  23408302.684    23408304.1604   23408312.1234
      2973.804        2317.250
  -8302954.004 9  -6273755.63548  20397289.039    20397290.4034   20397296.8744
      1705.954        1329.315
   1882161.708 9   1466404.00148  21325079.306    21325081.4224   21325087.8954
     -1102.505        -859.095
 -17210722.629 9 -13048288.16248  21219578.598    21219580.3264   21219587.4724
      4098.357        3193.525
   9464136.260 9   7364499.36046  24126700.042    24126701.7204   24126709.7934
     -2625.633       -2045.948
   2493743.428 8   1942417.49245  24494746.009    24494747.2454   24494755.0784
     -1062.232        -827.713
 -12188681.747 9  -9475624.27347  22873619.794    22873621.9164   22873627.9364
      3596.072        2802.134
 97  4 24 16 28 29.9970000  0  9 31 27 15  2 19  7 18 10 26         -0.002588770
   6302795.010 9   4907135.75546  23477283.781    23477284.9204   23477291.4414
     -2306.443       -1797.228
  -7367432.962 9  -5729521.12848  19360357.106    19360358.6464   19360364.3004
      1181.925         920.981
  -9961255.338 9  -7477856.77546  23391364.936    23391366.2344   23391374.2014
      2962.909        2308.760
  -8354009.054 9  -6313538.79648  20387573.654    20387574.9684   20387581.4184
      1700.638        1325.172
   1915397.543 9   1492302.01948  21331403.963    21331406.0584   21331412.4644
     -1110.387        -865.237
 -17333483.550 9 -13143946.00448  21196218.021    21196219.7314   21196226.8774
      4088.683        3185.987
   9542913.355 9   7425884.03046  24141690.989    24141692.6014   24141700.6204
     -2623.335       -2044.157
   2525659.442 8   1967287.09445  24500819.460    24500820.4424   24500828.4364
     -1062.655        -828.043
 -12296345.876 9  -9559518.39647  22853131.748    22853134.0374   22853140.1664
      3584.395        2793.035
 97  4 24 16 28 59.9970000  0  8 31 27 15  2 19  7 18 26            -0.002611218
   6372142.441 9   4961172.66846  23490480.031    23490481.2914   23490487.9094
     -2315.604       -1804.367
  -7402629.240 9  -5756946.80448  19353659.444    19353661.0034   19353666.6824
      1165.533         908.208
 -10049916.072 9  -7546943.04846  23374493.262    23374494.6994   23374502.6144
      2948.860        2297.813
  -8404892.328 9  -6353188.09848  20377890.884    20377892.1744   20377898.6284
      1692.596        1318.906
   1948883.522 9   1518394.95148  21337776.257    21337778.2764   21337784.6534
     -1121.012        -873.516
 -17455936.754 9 -13239364.06248  21172916.034    21172917.6734   21172924.8034
      4075.840        3175.979
   9621642.360 9   7487231.21946  24156672.722    24156674.3074   24156682.3364
     -2624.187       -2044.821
 -12403643.478 9  -9643126.90347  22832713.673    22832715.9394   22832722.1254
      3569.756        2781.628
 97  4 24 16 29 29.9970000  0  8 31 27 15  2 19  7 18 26            -0.002633673
   6441702.296 9   5015375.09646  23503716.669    23503718.0804   23503724.7724
     -2323.065       -1810.181
  -7437391.164 9  -5784034.02548  19347044.486    19347046.0164   19347051.7114
      1150.652         896.612
 -10138218.684 9  -7615750.26946  23357689.876    23357691.2424   23357699.1904
      2936.585        2288.248
  -8455600.590 9  -6392701.02848  20368241.397    20368242.6964   20368249.1614
      1686.675        1314.292
   1982632.924 9   1544693.14748  21344198.487    21344200.6094   21344206.9854
     -1130.411        -880.840
 -17578072.530 9 -13334534.77348  21149674.362    21149676.0254   21149683.0934
      4065.226        3167.709
   9700332.445 9   7548548.08846  24171647.112    24171648.6274   24171656.5574
     -2623.250       -2044.091
 -12510566.686 9  -9726443.68447  22812366.960    22812369.1174   22812375.2414
      3557.110        2771.774
 97  4 24 16 29 59.9970000  0  8 31 27 15  2 19  7 18 26            -0.002656127
   6511482.130 9   5069748.94446  23516995.165    23516996.7704   23517003.4644
     -2329.733       -1815.376
  -7471715.010 9  -5810779.88648  19340512.859    19340514.4104   19340520.1054
      1136.817         885.831
 -10226151.130 9  -7684269.04846  23340956.710    23340958.1874   23340966.1534
      2924.589        2278.901
  -8506131.894 9  -6432076.07348  20358625.648    20358626.9464   20358633.3954
      1681.127        1309.969
   2016674.826 9   1571219.26648  21350676.542    21350678.6204   21350685.0154
     -1140.015        -888.323
 -17699889.223 9 -13429456.85048  21126493.373    21126495.0484   21126502.0884
      4054.982        3159.726
   9778992.667 9   7609841.68246  24186615.778    24186617.2674   24186625.2854
     -2621.737       -2042.912
 -12617108.689 9  -9809463.41847  22792092.501    22792094.8324   22792100.8894
      3544.901        2762.261
 97  4 24 16 30 29.9970000  0  8 31 27 15  2 19  7 18 26            -0.002678580
   6581466.102 9   5124281.85346  23530312.466    23530314.2604   23530321.0454
     -2336.392       -1820.565
  -7505622.168 9  -5837201.05648  19334060.566    19334062.1114   19334067.7924
      1123.059         875.111
 -10313710.148 9  -7752496.85446  23324294.593    23324296.2524   23324304.1854
      2912.052        2269.131
  -8556481.934 9  -6471309.87148  20349044.336    20349045.6454   20349052.1064
      1674.879        1305.101
   2051016.509 9   1597978.97548  21357211.658    21357213.7034   21357220.0744
     -1149.979        -896.088
 -17821387.915 9 -13524131.13048  21103373.008    21103374.5964   21103381.6434
      4044.298        3151.401
   9857615.713 9   7671106.30946  24201577.281    24201578.6214   24201586.8404
     -2620.388       -2041.861
 -12723286.786 9  -9892199.58447  22771887.409    22771889.8074   22771895.8514
      3532.950        2752.948
 97  4 24 16 30 59.9970000  0  8 31 27 15  2 19  7 18 26            -0.002701034
   6651626.211 9   5178952.01346  23543663.657    23543665.3544   23543672.1614
     -2342.913       -1825.646
  -7539146.390 9  -5863323.83248  19327681.160    19327682.6974   19327688.3724
      1110.007         864.941
 -10400913.258 9  -7820447.33146  23307700.534    23307702.1274   23307709.9624
      2899.538        2259.380
  -8606659.462 9  -6510409.24348  20339495.784    20339497.1584   20339503.6244
      1668.325        1299.994
   2085644.401 9   1624961.71348  21363801.164    21363803.1974   21363809.6014
     -1160.451        -904.248
 -17942578.718 9 -13618565.50148  21080311.143    21080312.7324   21080319.7784
      4032.998        3142.596
   9936179.731 8   7732324.93846  24216527.348    24216528.8704   24216537.1034
     -2619.000       -2040.779
 -12829114.598 9  -9974662.80647  22751749.008    22751751.4544   22751757.5154
      3520.261        2743.061
 97  4 24 16 31 29.9970000  0  8 31 27 15  2 19  7 18 26            -0.002723477
   6721973.106 9   5233767.72046  23557050.286    23557051.9924   23557058.7854
     -2347.948       -1829.570
  -7572289.016 9  -5889149.26548  19321374.360    19321375.8824   19321381.5644
      1098.549         856.012
 -10487747.025 9  -7888110.00946  23291176.757    23291178.3324   23291185.9664
      2888.359        2250.669
  -8656648.566 9  -6549361.79448  20329983.245    20329984.5774   20329990.9874
      1663.321        1296.094
   2120579.394 9   1652183.74748  21370449.113    21370451.1044   21370457.5374
     -1169.348        -911.180
 -18063433.312 9 -13712737.88848  21057313.235    21057314.8214   21057321.9144
      4023.050        3134.844
  10014691.872 8   7793503.14346  24231467.641    24231469.2654   24231477.5594
     -2616.165       -2038.570
 -12934569.420 9 -10056835.38247  22731681.717    22731684.0564   22731690.1484
      3509.140        2734.395
 97  4 24 16 31 59.9970000  0  8 31 27 15  2 19  7 18 26            -0.002745884
   6792516.974 9   5288736.90246  23570474.643    23570476.1014   23570482.8764
     -2354.067       -1834.338
  -7605043.878 9  -5914672.54148  19315141.329    19315142.8384   19315148.5244
      1085.734         846.026
 -10574200.290 9  -7955476.19446  23274725.495    23274726.9074   23274734.4654
      2875.928        2240.983
  -8706436.061 9  -6588157.24348  20320509.029    20320510.3594   20320516.7334
      1656.548        1290.817
   2155816.762 9   1679641.40348  21377154.500    21377156.5814   21377163.0024
     -1178.904        -918.626
 -18183945.861 9 -13806643.74948  21034380.423    21034381.9984   21034389.0864
      4012.029        3126.256
  10093160.430 8   7854647.37846  24246399.875    24246401.2834   24246409.7104
     -2614.254       -2037.081
 -13039642.248 9 -10138710.30647  22711687.174    22711689.4294   22711695.5234
      3496.523        2724.563
 97  4 24 16 32 29.9970000  0  8 31 27 15  2 19  7 18 26            -0.002768290
   6863236.261 9   5343842.78146  23583932.428    23583933.6154   23583940.2764
     -2360.315       -1839.206
  -7637402.434 9  -5939887.00748  19308983.703    19308985.2134   19308990.8874
      1071.635         835.040
 -10660285.373 9  -8022555.47946  23258344.099    23258345.4034   23258353.0384
      2863.231        2231.089
  -8756018.177 9  -6626792.65548  20311073.907    20311075.2084   20311081.5984
      1649.190        1285.083
   2191334.677 9   1707317.66448  21383913.292    21383915.4334   21383921.8454
     -1188.696        -926.257
 -18304137.302 9 -13900299.39648  21011508.760    21011510.3224   21011517.4074
      4000.940        3117.616
  10171564.980 8   7915741.75246  24261320.086    24261321.1024   24261329.7294
     -2612.488       -2035.705
 -13144336.734 9 -10220290.41147  22691764.543    22691766.7664   22691772.8594
      3483.267        2714.234
 97  4 24 16 32 59.9970000  0  8 31 27 15  2 19  7 18 26            -0.002790688
   6934150.031 9   5399100.20446  23597427.248    23597428.1894   23597434.7234
     -2366.159       -1843.760
  -7669319.628 9  -5964757.55448  19302910.063    19302911.5894   19302917.2574
      1057.320         823.886
 -10745978.243 9  -8089329.15646  23242037.377    23242038.6424   23242046.2274
      2850.844        2221.437
  -8805373.080 9  -6665251.02148  20301681.974    20301683.2724   20301689.6494
      1642.336        1279.742
   2227149.698 9   1735225.43848  21390728.726    21390730.8214   21390737.2474
     -1197.611        -933.203
 -18423992.832 9 -13993693.29648  20988701.054    20988702.6024   20988709.6294
      3990.715        3109.648
  10249923.154 8   7976799.96546  24276231.029    24276232.3004   24276240.8824
     -2610.294       -2033.995
 -13248616.896 9 -10301547.66947  22671920.731    22671922.9364   22671928.9644
      3470.151        2704.014
 97  4 24 16 33 29.9970000  0  8 31 27 15  2 19  7 18 26            -0.002813117
   7005232.038 9   5454488.72846  23610953.857    23610954.7544   23610961.2594
     -2373.118       -1849.183
  -7700805.852 9  -5989292.28148  19296918.439    19296919.9474   19296925.6364
      1041.439         811.511
 -10831304.486 9  -8155817.12846  23225800.424    23225801.6054   23225809.0984
      2837.172        2210.783
  -8854525.379 9  -6703551.51448  20292328.632    20292329.9304   20292336.2704
      1634.126        1273.345
   2263215.510 9   1763328.62647  21397591.947    21397593.9424   21397600.4204
     -1207.225        -940.695
 -18543556.963 9 -14086860.13548  20965948.748    20965950.3304   20965957.3284
      3979.792        3101.137
  10328215.312 8   8037806.75146  24291129.313    24291130.7734   24291139.4424
     -2609.732       -2033.557
 -13352519.916 9 -10382511.04847  22652148.721    22652150.8294   22652156.7664
      3456.290        2693.213
 97  4 24 16 33 59.9970000  0  8 31 27 15  2 19  7 18 26            -0.002835574
   7076492.298 9   5510016.15746  23624514.287    23624515.2214   23624521.6574
     -2379.081       -1853.829
  -7731840.105 9  -6013474.82548  19291012.798    19291014.3404   19291020.0354
      1026.054         799.523
 -10916245.214 9  -8222004.70446  23209636.739    23209637.8654   23209645.4074
      2824.028        2200.541
  -8903458.910 9  -6741681.53748  20283016.868    20283018.2014   20283024.5044
      1626.707        1267.564
   2299546.609 9   1791638.53848  21404505.535    21404507.5504   21404514.0374
     -1216.577        -947.982
 -18662821.641 9 -14179793.62548  20943253.424    20943254.9854   20943261.9974
      3969.401        3093.040
  10406456.866 8   8098774.09145  24306018.151    24306019.7134   24306028.4104
     -2607.960       -2032.177
 -13456026.759 9 -10463165.71847  22632451.963    22632454.1094   22632460.0334
      3442.620        2682.561
 97  4 24 16 34 29.9970000  0  8 31 27 15  2 19  7 18 26            -0.002858043
   7147920.452 9   5565674.39746  23638106.883    23638107.5954   23638113.9674
     -2384.252       -1857.859
  -7762422.674 9  -6037305.40548  19285193.153    19285194.7004   19285200.3644
      1011.666         788.311
 -11000792.750 9  -8287885.88846  23193547.601    23193548.9474   23193556.5914
      2811.134        2190.494
  -8952178.899 9  -6779645.16248  20273745.711    20273747.0714   20273753.4044
      1619.979        1262.321
   2336165.455 9   1820172.66747  21411474.002    21411475.8934   21411482.4054
     -1225.815        -955.181
 -18781761.499 9 -14272474.01148  20920619.961    20920621.4884   20920628.4964
      3958.454        3084.510
  10484645.874 8   8159700.49345  24320897.024    24320898.6064   24320907.3094
     -2605.965       -2030.622
 -13559129.870 9 -10543505.79547  22612832.102    22612834.2294   22612840.1974
      3429.694        2672.489
 97  4 24 16 34 59.9970000  0  8 31 27 15  2 19  7 18 26            -0.002880501
   7219519.922 9   5621466.14746  23651731.757    23651732.5844   23651738.9264
     -2390.088       -1862.406
  -7792568.098 9  -6060795.35148  19279456.766    19279458.2764   19279463.9034
       997.288         777.108
 -11084936.376 9  -8353452.33246  23177535.621    23177536.9574   23177544.6154
      2797.629        2179.971
  -9000681.568 9  -6817439.45348  20264515.988    20264517.3364   20264523.6804
      1612.671        1256.627
   2373071.606 9   1848930.67047  21418496.974    21418498.9084   21418505.4444
     -1235.466        -962.701
 -18900347.045 9 -14364878.31548  20898053.849    20898055.3974   20898062.4374
      3946.445        3075.152
  10562794.021 8   8220595.04945  24335767.804    24335769.9254   24335778.5944
     -2604.773       -2029.693
 -13661825.444 9 -10623528.31047  22593289.644    22593291.8724   22593297.9304
      3415.864        2661.712
 97  4 24 16 35 29.9970000  0  8 31 27 15  2 19  7 18 26            -0.002902942
   7291289.094 9   5677390.12746  23665388.771    23665389.8364   23665396.2164
     -2395.482       -1866.609
  -7822288.379 9  -6083954.01648  19273801.234    19273802.7174   19273808.3204
       983.254         766.172
 -11168671.201 9  -8418700.22846  23161601.495    23161602.8034   23161610.4144
      2783.869        2169.249
  -9048964.294 9  -6855062.35448  20255328.192    20255329.4784   20255335.7824
      1605.474        1251.019
   2410281.507 9   1877925.36748  21425577.769    21425579.7504   21425586.2874
     -1246.071        -970.964
 -19018562.234 9 -14456994.02148  20875558.199    20875559.7654   20875566.7994
      3933.710        3065.229
  10640911.099 8   8281465.40145  24350633.367    24350635.2394   24350643.8114
     -2603.807       -2028.941
 -13764102.054 9 -10703224.35747  22573827.054    22573829.2504   22573835.3424
      3401.652        2650.638
 97  4 24 16 35 59.9970000  0  8 31 27 15  2 19  7 18 26            -0.002925330
   7363237.375 9   5733453.67846  23679079.936    23679081.1364   23679087.6214
     -2400.880       -1870.816
  -7851574.115 9  -6106774.08248  19268228.289    19268229.7964   19268235.4194
       969.254         755.263
 -11251979.471 9  -8483615.74346  23145748.385    23145749.7674   23145757.3074
      2770.221        2158.614
  -9097026.043 9  -6892513.07048  20246182.335    20246183.6514   20246189.9124
      1598.900        1245.896
   2447825.038 9   1907180.02547  21432722.144    21432724.1014   21432730.5914
     -1256.440        -979.044
 -19136378.683 9 -14548799.02548  20853138.433    20853140.0204   20853147.0744
      3920.991        3055.318
  10718998.746 8   8342312.79445  24365493.278    24365494.7174   24365503.5934
     -2601.909       -2027.462
 -13865927.871 9 -10782569.13647  22554450.332    22554452.4894   22554458.5824
      3386.985        2639.209
 97  4 24 16 36 29.9970000  0  8 31 27 15  2 19  7 18 26            -0.002947676
   7435366.636 9   5789658.25146  23692805.347    23692806.8304   23692813.4204
     -2405.458       -1874.383
  -7880427.493 9  -6129257.24048  19262737.581    19262739.1614   19262744.8354
       956.597         745.400
 -11334866.808 9  -8548203.24746  23129975.306    23129976.7784   23129984.3264
      2757.896        2149.010
  -9144875.245 9  -6929798.15748  20237076.916    20237078.2204   20237084.4974
      1593.391        1241.603
   2485675.391 9   1936673.78047  21439924.975    21439926.8454   21439933.3404
     -1264.415        -985.258
 -19253798.005 9 -14640294.58048  20830794.242    20830795.8564   20830802.9054
      3909.459        3046.332
  10797053.479 8   8403134.56645  24380346.661    24380348.2464   24380356.8274
     -2599.274       -2025.408
 -13967303.823 9 -10861563.38047  22535159.076    22535161.3274   22535167.3134
      3373.769        2628.911
 97  4 24 16 36 59.9970000  0  8 31 27 15  2 19  7 18 26            -0.002970004
   7507659.498 9   5845990.29846  23706562.057    23706563.6454   23706570.3724
     -2411.065       -1878.752
  -7908876.111 9  -6151425.00448  19257323.956    19257325.5524   19257331.2384
       942.871         734.705
 -11417363.750 9  -8612486.54846  23114276.759    23114278.1574   23114285.6924
      2744.898        2138.881
  -9192545.845 9  -6966944.08248  20228005.480    20228006.7814   20228013.0904
      1587.735        1237.196
   2523781.289 9   1966366.64648  21447176.351    21447178.1884   21447184.6644
     -1273.050        -991.987
 -19370863.301 9 -14731514.27748  20808517.452    20808519.0654   20808526.0644
      3897.990        3037.395
  10875045.360 8   8463907.33745  24395187.904    24395189.6834   24395198.2694
     -2597.097       -2023.712
 -14068253.412 9 -10940225.39347  22515948.987    22515951.2424   22515957.1714
      3359.281        2617.622
 97  4 24 16 37 29.9970000  0  8 31 27 15  2 19  7 18 26            -0.002992341
   7580086.077 9   5902426.56046  23720344.327    23720345.8724   23720352.7314
     -2416.251       -1882.793
  -7936941.363 9  -6173294.03648  19251983.322    19251984.9304   19251990.6104
       929.202         724.053
 -11499504.498 9  -8676492.28646  23098646.026    23098647.3284   23098654.7464
      2732.228        2129.009
  -9240083.963 9  -7003986.77048  20218959.257    20218960.5784   20218966.9094
      1582.655        1233.238
   2562120.376 9   1996241.23147  21454471.980    21454473.8644   21454480.3764
     -1281.657        -998.694
 -19487617.242 9 -14822491.35248  20786299.947    20786301.5494   20786308.5024
      3886.685        3028.586
  10952929.212 8   8524595.92945  24410008.544    24410010.4914   24410019.3504
     -2593.908       -2021.227
 -14168809.023 9 -11018580.41247  22496813.845    22496816.1114   22496822.0264
      3345.697        2607.037
 97  4 24 16 37 59.9970000  0  8 31 27 15  2 19  7 18 26            -0.003014656
   7652713.823 9   5959019.56746  23734164.514    23734166.4404   23734173.4364
     -2423.808       -1888.682
  -7964547.128 9  -6194805.03148  19246730.125    19246731.7424   19246737.4374
       912.862         711.321
 -11581221.315 9  -8740167.69646  23083095.865    23083097.1254   23083104.4624
      2717.204        2117.302
  -9287426.039 9  -7040876.69848  20209950.395    20209951.6764   20209957.9964
      1575.063        1227.322
   2600749.061 9   2026341.46847  21461822.749    21461824.6364   21461831.1634
     -1291.946       -1006.711
 -19603986.335 9 -14913168.54248  20764155.692    20764157.2774   20764164.1804
      3872.998        3017.921
  11030752.307 8   8585237.17845  24424817.809    24424819.6844   24424828.7994
     -2592.609       -2020.215
 -14268917.068 9 -11096586.66647  22477763.909    22477766.1684   22477772.1104
      3330.095        2594.879
 97  4 24 16 38 29.9960000  0  7 31 27 15  2 19  7 26               -0.003036981
   7725504.843 9   6015739.78946  23748016.453    23748018.1914   23748025.1994
     -2429.444       -1893.073
  -7991719.291 9  -6215978.14648  19241559.426    19241561.0504   19241566.7494
       898.220         699.912
 -11662531.463 9  -8803526.21446  23067623.067    23067624.2324   23067631.7084
      2703.156        2106.355
  -9334581.277 9  -7077621.03848  20200977.015    20200978.3324   20200984.6364
      1568.240        1222.005
   2639636.476 9   2056643.32047  21469222.794    21469224.7014   21469231.2144
     -1301.241       -1013.954
 -19719994.152 9 -15003564.21848  20742080.030    20742081.6654   20742088.5844
      3860.730        3008.361
 -14368624.782 9 -11174280.97947  22458790.239    22458792.3984   22458798.4114
      3316.749        2584.480
 97  4 24 16 38 59.9960000  0  7 31 27 15  2 19  7 26               -0.003059317
   7798433.032 9   6072566.91046  23761894.182    23761895.9734   23761903.1064
     -2433.278       -1896.061
  -8018466.889 9  -6236820.44148  19236469.576    19236471.1744   19236476.8484
       884.034         688.858
 -11743439.358 9  -8866571.28846  23052226.690    23052227.8874   23052235.4474
      2689.761        2095.918
  -9381547.353 9  -7114217.98348  20192039.707    20192040.9894   20192047.2734
      1561.895        1217.061
   2678800.362 9   2087160.60047  21476675.434    21476677.3914   21476683.9144
     -1310.536       -1021.197
 -19835664.841 9 -15093697.20548  20720068.564    20720070.2294   20720077.1664
      3849.729        2999.789
 -14467941.308 9 -11251670.48047  22439890.905    22439893.0594   22439899.0564
      3303.531        2574.180
 97  4 24 16 39 29.9960000  0  7 31 27 15  2 19  7 26               -0.003081642
   7871508.093 9   6129508.46246  23775800.050    23775801.7114   23775808.8304
     -2436.893       -1898.878
  -8044747.073 9  -6257298.51748  19231468.670    19231470.2504   19231475.8994
       869.405         677.458
 -11823898.798 9  -8929266.92246  23036915.752    23036916.9064   23036924.4684
      2675.644        2084.917
  -9428272.303 9  -7150627.03848  20183148.283    20183149.5514   20183155.8154
      1554.701        1211.455
   2718285.660 9   2117928.32547  21484189.247    21484191.2014   21484197.7674
     -1320.175       -1028.708
 -19950960.433 9 -15183537.90848  20698128.544    20698130.1774   20698137.0614
      3838.173        2990.784
 -14566826.873 9 -11328724.15347  22421073.703    22421075.7204   22421081.7264
      3290.200        2563.792
 97  4 24 16 39 59.9960000  0  7 31 27 15  2 19  7 26               -0.003103975
   7944689.247 9   6186532.70146  23789726.330    23789727.7144   23789734.7944
     -2441.907       -1902.785
  -8070588.991 9  -6277435.08348  19226551.171    19226552.7354   19226558.3904
       853.448         665.024
 -11903929.839 9  -8991628.73946  23021686.281    23021687.4704   23021694.9374
      2659.786        2072.561
  -9474776.939 9  -7186864.41448  20174298.663    20174299.9754   20174306.2974
      1545.754        1204.484
   2758057.459 9   2148919.31447  21491757.554    21491759.5344   21491766.1354
     -1331.251       -1037.338
 -20065915.718 9 -15273113.43448  20676253.265    20676254.9144   20676261.7694
      3825.651        2981.027
 -14665301.236 9 -11405457.42747  22402334.597    22402336.6724   22402342.6354
      3274.775        2551.773
 97  4 24 16 40 29.9960000  0  7 31 27 15  2 19  7 26               -0.003126315
   8017966.263 9   6243631.63046  23803670.577    23803671.9234   23803678.9934
     -2443.481       -1904.011
  -8096015.383 9  -6297247.86748  19221712.715    19221714.2534   19221719.9264
       841.484         655.702
 -11983544.079 9  -9053665.77746  23006535.977    23006537.3194   23006544.8784
      2647.778        2063.204
  -9521070.453 9  -7222937.28148  20165489.308    20165490.5984   20165496.9254
      1540.443        1200.345
   2798107.713 9   2180127.27047  21499378.857    21499380.8704   21499387.4914
     -1338.826       -1043.241
 -20180556.666 9 -15362444.02448  20654437.841    20654439.4554   20654446.3014
      3816.914        2974.219
 -14763365.787 9 -11481871.35047  22383673.668    22383675.6694   22383681.5314
      3262.507        2542.213
 97  4 24 16 40 59.9960000  0  7 31 27 15  2 19  7 26               -0.003148676
   8091316.616 9   6300787.71546  23817628.788    23817630.0084   23817637.0734
     -2447.751       -1907.338
  -8121060.240 9  -6316763.35048  19216946.781    19216948.3834   19216954.0704
       827.195         644.567
 -12062783.390 9  -9115410.65446  22991457.169    22991458.5894   22991466.1174
      2633.904        2052.393
  -9567193.456 9  -7258877.28948  20156712.440    20156713.6954   20156720.0064
      1533.565        1194.986
   2838401.122 9   2211524.69247  21507046.504    21507048.4804   21507055.0904
     -1348.280       -1050.608
 -20294912.790 9 -15451552.67048  20632676.581    20632678.1574   20632685.0174
      3805.657        2965.447
 -14861033.990 9 -11557976.43947  22365088.062    22365090.0564   22365095.9154
      3247.974        2530.889
 97  4 24 16 41 29.9960000  0  7 31 27 15  2 19  7 26               -0.003171029
   8164829.206 9   6358070.20846  23831617.796    23831619.1144   23831626.0254
     -2453.486       -1911.807
  -8145662.879 9  -6335934.24848  19212265.076    19212266.6714   19212272.3764
       812.590         633.187
 -12141590.480 9  -9176818.74246  22976460.607    22976462.0614   22976469.6284
      2619.592        2041.241
  -9613104.600 9  -7294652.20748  20147975.882    20147977.1234   20147983.3984
      1526.856        1189.758
   2878984.140 9   2243147.78947  21514769.236    21514771.2194   21514777.8214
     -1357.720       -1057.964
 -20408900.341 9 -15540374.11548  20610985.457    20610987.0574   20610993.9604
      3793.138        2955.692
 -14958263.690 9 -11633739.82847  22346585.897    22346587.8714   22346593.7374
      3233.654        2519.730
 97  4 24 16 41 59.9960000  0  7 31 27 15  2 19  7 26               -0.003193372
   8238518.866 9   6415490.69246  23845640.724    23845641.8894   23845648.7164
     -2460.583       -1917.337
  -8169832.809 9  -6354767.97148  19207665.722    19207667.2764   19207672.9924
       797.376         621.332
 -12219968.874 9  -9237892.78546  22961545.478    22961547.1204   22961554.6764
      2604.227        2029.268
  -9658817.052 9  -7330272.30248  20139277.075    20139278.3424   20139284.5914
      1519.218        1183.806
   2919853.632 9   2274994.10747  21522546.585    21522548.4634   21522555.0274
     -1368.223       -1066.148
 -20522507.258 9 -15628898.96848  20589366.765    20589368.3534   20589375.2734
      3779.223        2944.849
 -15055067.115 9 -11709171.06647  22328164.736    22328166.7824   22328172.7744
      3218.527        2507.943
 97  4 24 16 42 29.9960000  0  7 31 27 15  2 19  7 26               -0.003215684
   8312424.378 9   6473079.35346  23859704.384    23859705.6894   23859712.4064
     -2466.670       -1922.081
  -8193547.947 9  -6373247.30848  19203152.859    19203154.4304   19203160.1664
       783.070         610.184
 -12297888.583 9  -9298609.41346  22946717.878    22946719.4454   22946727.0114
      2589.848        2018.063
  -9704302.422 9  -7365715.45148  20130621.501    20130622.7564   20130629.0014
      1512.640        1178.681
   2961029.485 9   2307079.15047  21530382.211    21530384.0004   21530390.5534
     -1377.303       -1073.223
 -20635692.608 9 -15717095.33248  20567828.330    20567829.9274   20567836.8134
      3766.011        2934.554
 -15151414.976 9 -11784247.30847  22309830.362    22309832.3844   22309838.3964
      3204.237        2496.808
 97  4 24 16 42 59.9960000  0  7 31 27 15  2 19  7 26               -0.003238007
   8386477.499 9   6530783.04846  23873796.230    23873797.6224   23873804.1704
     -2471.972       -1926.212
  -8216849.807 9  -6391404.61148  19198718.650    19198720.2344   19198725.9774
       768.420         598.769
 -12375394.932 9  -9359003.95046  22931969.029    22931970.4214   22931977.9254
      2575.179        2006.633
  -9749624.316 9  -7401031.21348  20121997.040    20121998.3044   20122004.5454
      1506.928        1174.230
   3002448.623 9   2339353.77247  21538263.988    21538265.8484   21538272.3994
     -1385.916       -1079.935
 -20748502.101 9 -15804998.81848  20546361.398    20546363.0034   20546369.8644
      3752.709        2924.189
 -15247366.432 9 -11859014.67347  22291571.518    22291573.4164   22291579.4134
      3190.559        2486.150
 97  4 24 16 43 29.9960000  0  7 31 27 15  2 19  7 26               -0.003260316
   8460702.334 9   6588620.54446  23887920.728    23887922.2524   23887928.6714
     -2476.408       -1929.668
  -8239690.764 9  -6409202.77348  19194372.208    19194373.7464   19194379.4994
       753.855         587.419
 -12452435.938 9  -9419035.87946  22917308.628    22917309.9844   22917317.4864
      2560.456        1995.161
  -9794753.708 9  -7436196.97948  20113409.207    20113410.4964   20113416.7144
      1501.287        1169.834
   3044149.105 9   2371847.61847  21546199.339    21546201.2104   21546207.7944
     -1394.623       -1086.719
 -20860895.368 9 -15892577.97648  20524973.617    20524975.2694   20524982.1164
      3740.000        2914.286
 -15342881.481 9 -11933441.98447  22273395.493    22273397.4744   22273403.4714
      3176.546        2475.231
 97  4 24 16 43 59.9960000  0  7 31 27 15  2 19  7 26               -0.003282630
   8535029.134 9   6646537.49746  23902064.752    23902066.2344   23902072.6514
     -2479.450       -1932.039
  -8262107.809 9  -6426670.61148  19190106.396    19190107.9324   19190113.6764
       739.795         576.464
 -12529045.864 9  -9478731.90946  22902730.062    22902731.6094   22902739.0914
      2546.146        1984.010
  -9839725.528 9  -7471239.95848  20104851.328    20104852.6484   20104858.8894
      1496.072        1165.770
   3086102.392 9   2404538.45247  21554182.687    21554184.6384   21554191.2634
     -1402.985       -1093.235
 -20972935.918 9 -15979882.28148  20503653.036    20503654.6614   20503661.5224
      3728.728        2905.502
 -15437979.071 9 -12007543.99547  22255298.902    22255301.0024   22255306.9744
      3162.412        2464.217
 97  4 24 16 44 29.9960000  0  7 31 27 15  2 19  7 26               -0.003304941
   8609452.985 9   6704530.07746  23916227.061    23916228.6374   23916235.0064
     -2482.520       -1934.431
  -8284078.067 9  -6443790.30548  19185925.635    19185927.1694   19185932.8884
       724.505         564.549
 -12605214.573 9  -9538084.13446  22888235.638    22888237.1044   22888244.6894
      2531.378        1972.502
  -9884528.386 9  -7506151.28248  20096325.610    20096326.9274   20096333.1904
      1490.425        1161.370
   3128320.068 9   2437435.29947  21562216.348    21562218.3694   21562225.0434
     -1411.975       -1100.240
 -21084628.972 9 -16066915.80948  20482398.530    20482400.1864   20482407.0394
      3717.138        2896.471
 -15532626.442 9 -12081295.19047  22237288.167    22237290.2094   22237296.1824
      3147.247        2452.400
 97  4 24 16 44 59.9960000  0  7 31 27 15  2 19  7 26               -0.003327257
   8683960.289 9   6762587.68546  23930405.175    23930406.9314   23930413.2134
     -2483.971       -1935.562
  -8305591.534 9  -6460554.05548  19181831.794    19181833.2924   19181839.0154
       710.534         553.663
 -12680947.615 9  -9597096.86146  22873824.417    22873825.5834   22873833.1134
      2518.297        1962.309
  -9929168.498 9  -7540935.78348  20087830.850    20087832.1804   20087838.4374
      1486.404        1158.237
   3170807.876 9   2470542.63847  21570301.577    21570303.5754   21570310.2324
     -1419.767       -1106.312
 -21195978.334 9 -16153681.53348  20461209.463    20461211.1294   20461217.9494
      3706.874        2888.473
 -15626829.033 9 -12154699.79947  22219362.025    22219364.0914   22219370.0414
      3133.628        2441.788
 97  4 24 16 45 29.9960000  0  7 31 27 15  2 19  7 26               -0.003349580
   8758542.599 9   6820703.73546  23944597.454    23944599.5494   23944605.7424
     -2487.249       -1938.116
  -8326662.138 9  -6476972.71348  19177822.101    19177823.6684   19177829.4364
       695.192         541.708
 -12756258.509 9  -9655780.65246  22859492.987    22859494.3554   22859501.9684
      2503.411        1950.710
  -9973652.732 9  -7575598.82748  20079365.816    20079367.1194   20079373.3594
      1480.042        1153.279
   3213564.616 9   2503859.53547  21578438.026    21578439.9574   21578446.5774
     -1429.706       -1114.057
 -21306996.549 9 -16240189.21648  20440083.445    20440085.0374   20440091.8604
      3695.236        2879.405
 -15720589.565 9 -12227759.95647  22201520.101    22201522.0954   22201528.0044
      3118.080        2429.673
 97  4 24 16 45 59.9960000  0  7 31 27 15  2 19  7 26               -0.003371904
   8833212.158 9   6878887.78846  23958806.520    23958808.7444   23958814.9464
     -2490.627       -1940.748
  -8347290.947 9  -6493047.12448  19173896.554    19173898.1874   19173903.9284
       680.299         530.103
 -12831139.828 9  -9714129.70646  22845243.610    22845244.9224   22845252.4944
      2488.899        1939.402
 -10017953.188 9  -7610118.66748  20070935.752    20070937.0234   20070943.2644
      1473.525        1148.201
   3256602.579 9   2537395.57847  21586628.042    21586629.8904   21586636.4874
     -1439.050       -1121.338
 -21417673.766 9 -16326431.18448  20419022.224    20419023.8254   20419030.6194
      3683.407        2870.187
 -15813896.909 9 -12300466.97647  22183764.309    22183766.3004   22183772.2174
      3102.828        2417.788
 97  4 24 16 46 29.9960000  0  7 31 27 15  2 19  7 26               -0.003394234
   8907982.776 9   6937150.58946  23973034.793    23973037.0814   23973043.2644
     -2494.381       -1943.674
  -8367476.166 9  -6508775.87548  19170055.486    19170057.0814   19170062.8514
       665.035         518.209
 -12905588.431 9  -9772141.57646  22831076.642    22831077.7964   22831085.3434
      2473.843        1927.670
 -10062059.817 9  -7644487.46948  20062542.458    20062543.7714   20062550.0724
      1466.534        1142.754
   3299906.894 9   2571139.16047  21594868.545    21594870.4284   21594877.0774
     -1448.180       -1128.452
 -21527986.136 9 -16412388.86248  20398030.443    20398032.0604   20398038.8134
      3670.251        2859.936
 -15906757.483 9 -12372825.87147  22166093.545    22166095.5334   22166101.3924
      3087.766        2406.051
 97  4 24 16 46 59.9960000  0  7 31 27 15  2 19  7 26               -0.003416569
   8982853.759 8   6995491.57646  23987282.123    23987284.4524   23987290.7824
     -2497.582       -1946.168
  -8387216.083 9  -6524157.64148  19166299.106    19166300.6894   19166306.4954
       650.460         506.852
 -12979589.105 9  -9829804.40646  22816994.800    22816995.8474   22817003.3774
      2458.964        1916.076
 -10105965.611 9  -7678699.77848  20054187.477    20054188.7894   20054195.0644
      1460.000        1137.662
   3343474.609 9   2605087.98447  21603159.176    21603161.1264   21603167.7724
     -1456.842       -1135.202
 -21637902.347 9 -16498037.84348  20377114.153    20377115.7264   20377122.4464
      3656.948        2849.570
 -15999182.537 9 -12444845.39047  22148505.620    22148507.6424   22148513.4864
      3073.264        2394.751
 97  4 24 16 47 29.9960000  0  7 31 27 15  2 19  7 26               -0.003438897
   9057827.482 9   7053912.62146  24001549.326    24001551.4454   24001557.7184
     -2500.560       -1948.488
  -8406510.066 9  -6539191.92248  19162627.571    19162629.1664   19162634.9744
       635.984         495.572
 -13053126.960 9  -9887106.60146  22803000.836    22803001.9904   22803009.6014
      2443.792        1904.254
 -10149656.448 9  -7712744.59148  20045873.401    20045874.7284   20045880.9664
      1452.812        1132.061
   3387311.604 9   2639246.64147  21611501.053    21611503.0354   21611509.6914
     -1465.293       -1141.787
 -21747409.955 9 -16583368.42848  20356275.567    20356277.1194   20356283.8394
      3643.814        2839.336
 -16091155.519 9 -12516512.64047  22131003.633    22131005.7264   22131011.5804
      3058.463        2383.218
 97  4 24 16 47 59.9960000  0  6 27 15  2 19  7 26                  -0.003461212
  -8425339.828 9  -6553864.47448  19159044.403    19159046.0024   19159051.8034
       620.283         483.337
 -13126184.026 9  -9944034.15846  22789098.576    22789099.7544   22789107.3344
      2427.735        1891.742
 -10193104.532 9  -7746600.24248  20037605.508    20037606.8194   20037613.0584
      1444.987        1125.964
   3431416.343 9   2673613.93347  21619893.875    21619895.9424   21619902.5924
     -1473.953       -1148.535
 -21856492.400 9 -16668367.71548  20335517.816    20335519.3934   20335526.1484
      3629.475        2828.162
 -16182649.977 9 -12587807.02247  22113592.738    22113594.8464   22113600.7384
      3042.321        2370.640
 97  4 24 16 48 29.9960000  0  6 27 15  2 19  7 26                  -0.003483535
  -8443733.125 9  -6568196.92848  19155544.303    19155545.8994   19155551.6804
       605.615         471.908
 -13198793.860 9 -10000613.21646  22775281.493    22775282.5994   22775290.1464
      2412.641        1879.980
 -10236364.270 9  -7780309.13348  20029373.427    20029374.7574   20029380.9974
      1438.866        1121.194
   3475747.598 9   2708157.72547  21628329.947    21628331.9364   21628338.5654
     -1481.760       -1154.618
 -21965177.659 9 -16753057.51048  20314835.642    20314837.2154   20314843.9684
      3615.970        2817.639
 -16273697.448 9 -12658753.10347  22096266.913    22096269.0764   22096275.0084
      3027.161        2358.827
 97  4 24 16 48 59.9960000  0  6 27 15  2 19  7 26                  -0.003505848
  -8461673.071 9  -6582176.11848  19152130.522    19152132.0624   19152137.8234
       590.389         460.043
 -13270940.922 9 -10056831.68046  22761552.171    22761553.4254   22761560.9694
      2397.165        1867.921
 -10279435.146 9  -7813870.85448  20021177.322    20021178.6264   20021184.8924
      1432.526        1116.254
   3520330.129 9   2742897.32847  21636813.732    21636815.7444   21636822.3644
     -1490.497       -1161.426
 -22073452.769 9 -16837427.70748  20294231.546    20294233.1384   20294239.8704
      3602.428        2807.087
 -16364269.140 9 -12729328.43847  22079031.732    22079033.8634   22079039.8394
      3010.862        2346.126
 97  4 24 16 49 29.9960000  0  6 27 15  2 19  7 26                  -0.003528149
  -8479163.174 9  -6595804.78248  19148802.295    19148803.8464   19148809.5924
       575.192         448.202
 -13342630.805 9 -10112693.90646  22747910.009    22747911.2484   22747918.7644
      2381.719        1855.885
 -10322321.244 9  -7847288.60048  20013016.448    20013017.7094   20013023.9244
      1426.206        1111.329
   3565171.043 9   2777838.26047  21645346.666    21645348.7324   21645355.3274
     -1499.251       -1168.247
 -22181340.256 9 -16921495.86848  20273701.227    20273702.8534   20273709.5414
      3589.521        2797.029
 -16454359.087 9 -12799528.39147  22061888.278    22061890.3144   22061896.3224
      2994.802        2333.612
 97  4 24 16 49 59.9960000  0  6 27 15  2 19  7 26                  -0.003550428
  -8496181.124 9  -6609065.53748  19145563.952    19145565.4354   19145571.2284
       559.833         436.234
 -13413841.936 9 -10168183.07946  22734359.024    22734360.2274   22734367.7404
      2366.084        1843.702
 -10365014.986 9  -7880556.45548  20004892.111    20004893.3844   20004899.5904
      1420.683        1107.026
   3610293.638 9   2812998.68047  21653933.311    21653935.3054   21653941.9684
     -1508.520       -1175.470
 -22288812.256 9 -17005240.26548  20253249.971    20253251.5814   20253258.2894
      3575.684        2786.247
 -16543955.737 9 -12869343.96347  22044838.509    22044840.5934   22044846.6054
      2978.951        2321.261
 97  4 24 16 50 29.9960000  0  6 27 15  2 19  7 26                  -0.003572695
  -8512747.023 9  -6621974.04148  19142411.613    19142413.0614   19142418.8564
       545.408         424.993
 -13484590.667 9 -10223311.94046  22720895.897    22720897.2044   22720904.6824
      2351.310        1832.190
 -10407561.073 9  -7913709.24748  19996795.823    19996797.1094   19996803.3454
      1416.527        1103.787
   3655694.390 9   2848375.85747  21662572.732    21662574.7854   21662581.4604
     -1517.298       -1182.310
 -22395883.050 9 -17088672.02448  20232875.010    20232876.6724   20232883.3914
      3563.255        2776.562
 -16633095.705 9 -12938803.66547  22027875.634    22027877.7784   22027883.8444
      2964.506        2310.005
 97  4 24 16 50 59.9960000  0  6 27 15  2 19  7 26                  -0.003594973
  -8528896.445 9  -6634558.02348  19139338.505    19139339.9434   19139345.7344
       529.733         412.779
 -13554911.008 9 -10278106.99846  22707514.516    22707515.7514   22707523.1414
      2335.175        1819.617
 -10449995.673 9  -7946775.17648  19988720.719    19988722.0484   19988728.2634
      1410.792        1099.318
   3701349.039 9   2883950.86147  21671260.562    21671262.5934   21671269.3044
     -1527.770       -1190.470
 -22502601.137 9 -17171828.96248  20212567.236    20212568.9014   20212575.6214
      3549.766        2766.051
 -16721821.432 9 -13007940.60247  22010991.761    22010993.8734   22010999.8544
      2949.117        2298.013
 97  4 24 16 51 29.9960000  0  6 27 15  2 19  7 26                  -0.003617237
  -8544567.358 9  -6646769.12848  19136356.387    19136357.8474   19136363.6534
       514.565         400.960
 -13624735.639 9 -10332515.78646  22694227.378    22694228.5874   22694235.9194
      2319.426        1807.345
 -10492249.745 9  -7979700.42948  19980680.058    19980681.3664   19980687.5634
      1405.793        1095.423
   3747314.714 9   2919768.23747  21680007.674    21680009.5884   21680016.3354
     -1536.798       -1197.505
 -22608906.330 9 -17254664.15548  20192338.041    20192339.6944   20192346.3884
      3536.703        2755.872
 -16810089.031 9 -13076720.53547  21994195.176    21994197.1504   21994203.0524
      2934.963        2286.984
 97  4 24 16 51 59.9960000  0  6 27 15  2 19  7 26                  -0.003639497
  -8559762.243 9  -6658609.31748  19133464.814    19133466.3404   19133472.1544
       498.282         388.272
 -13694069.905 9 -10386542.47446  22681033.269    22681034.7264   22681042.0114
      2302.694        1794.307
 -10534340.500 9  -8012498.42248  19972670.453    19972671.7614   19972677.9504
      1400.119        1091.002
   3793564.935 9   2955807.33747  21688808.772    21688810.7854   21688817.5374
     -1546.575       -1205.123
 -22714790.560 9 -17337171.32848  20172188.908    20172190.5534   20172197.2504
      3522.374        2744.707
 -16897910.492 9 -13145152.83947  21977483.282    21977485.2324   21977491.1104
      2919.679        2275.075
 97  4 24 16 52 29.9960000  0  6 27 15  2 19  7 26                  -0.003661761
  -8574479.994 9  -6670077.70848  19130664.127    19130665.6714   19130671.4874
       483.852         377.028
 -13762914.876 9 -10440187.90146  22667932.580    22667933.9544   22667941.2694
      2287.735        1782.651
 -10576270.546 9  -8045171.19148  19964691.416    19964692.7514   19964698.9534
      1395.866        1087.688
   3840088.345 9   2992059.30547  21697661.896    21697663.9054   21697670.6644
     -1554.045       -1210.944
 -22820267.428 9 -17419361.07648  20152117.366    20152118.9664   20152125.6784
      3510.205        2735.225
 -16985286.167 9 -13213237.78047  21960856.172    21960858.1874   21960864.0534
      2906.114        2264.504
 97  4 24 16 52 59.9960000  0  6 27 15  2 19  7 26                  -0.003684051
  -8588757.769 9  -6681203.25848  19127947.186    19127948.7384   19127954.5414
       467.495         364.282
 -13831298.376 9 -10493473.73146  22654919.846    22654921.0034   22654928.3364
      2270.558        1769.266
 -10618047.713 9  -8077724.82948  19956741.492    19956742.8434   19956749.0334
      1388.634        1082.052
   3886835.376 9   3028485.51947  21706557.638    21706559.5864   21706566.3754
     -1562.903       -1217.846
 -22925357.050 9 -17501249.07348  20132119.453    20132121.0534   20132127.8004
      3495.141        2723.486
 -17072240.821 9 -13280994.65247  21944309.294    21944311.3374   21944317.1564
      2890.223        2252.122
 97  4 24 16 53 29.9960000  0  6 27 15  2 19  7 26                  -0.003706355
  -8602579.708 9  -6691973.61648  19125316.950    19125318.5104   19125324.3474
       453.098         353.063
 -13899197.282 9 -10546381.97346  22641999.108    22642000.2364   22642007.6164
      2255.165        1757.271
 -10659641.840 9  -8110135.84348  19948826.469    19948827.7574   19948833.9624
      1383.414        1077.985
   3933801.791 9   3065082.69147  21715495.026    21715497.0244   21715503.8504
     -1569.267       -1222.805
 -23030026.889 9 -17582809.96948  20112201.460    20112203.0854   20112209.8124
      3481.971        2713.224
 -17158740.157 9 -13348396.72747  21927849.109    21927851.1474   21927856.9034
      2875.381        2240.557
 97  4 24 16 53 59.9960000  0  6 27 15  2 19  7 26                  -0.003728655
  -8615949.175 9  -6702391.39448  19122772.840    19122774.4144   19122780.2584
       438.185         341.443
 -13966607.819 9 -10598909.66746  22629171.277    22629172.4124   22629179.7924
      2238.735        1744.469
 -10701048.470 9  -8142400.75448  19940947.068    19940948.3434   19940954.5584
      1376.772        1072.809
   3981000.004 9   3101860.48247  21724476.580    21724478.5134   21724485.4014
     -1577.581       -1229.284
 -23134285.069 9 -17664050.09148  20092361.821    20092363.4094   20092370.1324
      3468.625        2702.825
 -17244757.365 9 -13415423.11547  21911480.559    21911482.6174   21911488.3794
      2858.935        2227.742
 97  4 24 16 54 29.9960000  0  6 27 15  2 19  7 26                  -0.003750960
  -8628911.750 9  -6712492.11648  19120306.225    19120307.7204   19120313.5754
       425.194         331.320
 -14033559.003 9 -10651079.42446  22616430.852    22616431.9604   22616439.3404
      2223.849        1732.869
 -10742278.967 9  -8174528.41848  19933101.144    19933102.4294   19933108.6174
      1371.002        1068.313
   4028418.883 9   3138810.21247  21733500.003    21733502.0634   21733508.9894
     -1584.604       -1234.756
 -23238179.735 9 -17745006.95748  20072591.177    20072592.8104   20072599.5574
      3456.781        2693.596
 -17330306.161 9 -13482084.52547  21895201.270    21895203.2144   21895209.0244
      2843.510        2215.722
 97  4 24 16 54 59.9960000  0  6 27 15  2 19  7 26                  -0.003773234
  -8641426.421 9  -6722243.82248  19117924.745    19117926.2854   19117932.1044
       410.752         320.066
 -14100002.844 9 -10702853.84646  22603786.871    22603788.0444   22603795.4104
      2207.370        1720.029
 -10783271.651 9  -8206470.77248  19925300.492    19925301.7964   19925307.9954
      1363.756        1062.667
   4076114.487 9   3175975.57947  21742576.264    21742578.2674   21742585.2284
     -1593.470       -1241.665
 -23341662.684 9 -17825643.00348  20052898.962    20052900.6364   20052907.3834
      3443.851        2683.520
 -17415334.573 9 -13548340.43247  21879020.785    21879022.8084   21879028.6884
      2826.762        2202.672
 97  4 24 16 55 29.9960000  0  6 27 15  2 19  7 26                  -0.003795508
  -8653528.204 9  -6731673.79248  19115621.836    19115623.3854   19115629.2384
       395.407         308.109
 -14165978.779 9 -10754263.67246  22591231.909    22591233.2144   22591240.6424
      2190.370        1706.782
 -10824077.933 9  -8238267.87848  19917535.319    19917536.6304   19917542.8454
      1356.094        1056.697
   4124058.454 9   3213334.47347  21751699.787    21751701.7624   21751708.7014
     -1603.496       -1249.477
 -23444790.439 9 -17906002.27348  20033274.413    20033276.0654   20033282.7594
      3430.660        2673.242
 -17499889.613 9 -13614227.47347  21862930.539    21862932.5324   21862938.4164
      2809.768        2189.430
 97  4 24 16 55 59.9960000  0  6 27 15  2 19  7 26                  -0.003817757
  -8665165.081 9  -6740741.50348  19113407.421    19113408.9714   19113414.8274
       380.084         296.169
 -14231441.162 9 -10805273.32946  22578774.805    22578776.1724   22578783.5944
      2173.563        1693.685
 -10864650.053 9  -8269882.51848  19909814.718    19909816.0124   19909822.2424
      1348.547        1050.816
   4172315.434 9   3250937.27147  21760882.828    21760884.8144   21760891.7394
     -1613.688       -1257.419
 -23547511.821 9 -17986044.89548  20013727.249    20013728.8914   20013735.5484
      3417.109        2662.682
 -17583941.556 9 -13679722.49347  21846936.008    21846937.9404   21846943.8794
      2793.591        2176.824
 97  4 24 16 56 29.9960000  0  6 27 15  2 19  7 26                  -0.003840024
  -8676374.246 9  -6749475.93348  19111274.394    19111275.9584   19111281.8144
       366.765         285.791
 -14296437.153 9 -10855919.57046  22566406.386    22566407.8334   22566415.3084
      2159.208        1682.500
 -10905043.237 9  -8301357.73248  19902128.147    19902129.4624   19902135.6764
      1344.156        1047.394
   4220827.783 9   3288739.06147  21770114.573    21770116.5204   21770123.3894
     -1620.632       -1262.830
 -23649849.505 9 -18065788.53048  19994253.001    19994254.6694   19994261.3314
      3405.007        2653.252
 -17667554.935 9 -13744875.78047  21831024.857    21831026.8114   21831032.7684
      2780.462        2166.594
 97  4 24 16 56 59.9960000  0  6 27 15  2 19  7 26                  -0.003862317
  -8687122.593 9  -6757851.28248  19109229.055    19109230.6424   19109236.4814
       351.073         273.563
 -14360952.950 9 -10906191.62546  22554129.439    22554130.8434   22554138.4324
      2143.025        1669.890
 -10945265.555 9  -8332699.79848  19894474.122    19894475.4194   19894481.6024
      1338.706        1043.148
   4269590.605 9   3326736.01847  21779393.781    21779395.7664   21779402.6934
     -1628.802       -1269.196
 -23751772.677 9 -18145209.16548  19974857.589    19974859.2774   19974865.9504
      3391.009        2642.345
 -17750733.330 9 -13809690.10247  21815196.539    21815198.4694   21815204.4794
      2765.927        2155.268
 97  4 24 16 57 29.9960000  0  6 27 15  2 19  7 26                  -0.003884636
  -8697398.372 9  -6765858.39548  19107273.685    19107275.2444   19107281.0744
       335.939         261.771
 -14424984.828 9 -10956086.60046  22541944.618    22541946.0334   22541953.5624
      2127.629        1657.893
 -10985324.786 9  -8363914.79048  19886851.170    19886852.4344   19886858.5944
      1333.822        1039.342
   4318588.971 9   3364916.51847  21788717.825    21788719.8014   21788726.8044
     -1635.928       -1274.749
 -23853268.152 9 -18224296.53648  19955543.681    19955545.3444   19955552.0154
      3377.258        2631.630
 -17833466.081 9 -13874157.18247  21799453.016    21799454.9784   21799460.9214
      2751.246        2143.828
 97  4 24 16 57 59.9960000  0  6 27 15  2 19  7 26                  -0.003906950
  -8707189.708 9  -6773488.01548  19105410.365    19105412.0224   19105417.8464
       319.259         248.773
 -14488517.288 9 -11005592.41946  22529854.811    22529856.1984   22529863.7704
      2110.417        1644.481
 -11025206.354 9  -8394991.33748  19879262.024    19879263.2194   19879269.3934
      1327.606        1034.498
   4367843.357 9   3403296.51647  21798090.692    21798092.6534   21798099.6384
     -1644.953       -1281.782
 -23954315.356 9 -18303034.59848  19936315.046    19936316.7054   19936323.3884
      3361.898        2619.661
 -17915705.350 9 -13938239.72747  21783803.433    21783805.4024   21783811.3214
      2733.946        2130.348
 97  4 24 16 58 29.9960000  0  6 27 15  2 19  7 26                  -0.003929250
  -8716476.918 9  -6780724.81248  19103643.114    19103644.7314   19103650.5784
       301.147         234.660
 -14551533.489 9 -11054695.95746  22517863.169    22517864.6144   22517872.2104
      2091.784        1629.962
 -11064905.455 9  -8425925.69648  19871707.455    19871708.6984   19871714.9084
      1320.213        1028.737
   4417355.709 9   3441877.52447  21807512.611    21807514.5894   21807521.5694
     -1654.650       -1289.338
 -24054910.314 9 -18381420.26048  19917172.436    19917174.0614   19917180.7754
      3345.615        2606.973
 -17997422.377 9 -14001915.32747  21768253.149    21768255.1644   21768261.1114
      2715.060        2115.631
 97  4 24 16 58 59.9960000  0  6 27 15  2 19  7 26                  -0.003951540
  -8725283.078 9  -6787586.77048  19101967.349    19101968.9544   19101974.8524
       285.165         222.206
 -14614047.378 9 -11103408.07946  22505967.223    22505968.6094   22505976.1844
      2074.858        1616.772
 -11104438.835 9  -8456730.93248  19864184.521    19864185.7704   19864191.9494
      1314.440        1024.239
   4467103.996 9   3480642.38247  21816979.400    21816981.4574   21816988.4224
     -1662.782       -1295.674
 -24155080.435 9 -18459474.88748  19898110.640    19898112.2974   19898119.0354
      3331.430        2595.919
 -18078623.508 9 -14065188.93147  21752801.043    21752803.1194   21752809.0444
      2697.445        2101.905
 97  4 24 16 59 29.9960000  0  6 27 15  2 19  7 26                  -0.003973789
  -8733598.232 9  -6794066.12748  19100384.999    19100386.6504   19100392.5574
       269.536         210.028
 -14676027.173 9 -11151704.01946  22494172.587    22494174.2144   22494181.8204
      2057.523        1603.265
 -11143774.379 9  -8487382.01248  19856699.254    19856700.4914   19856706.6504
      1308.414        1019.543
   4517124.779 9   3519619.56947  21826498.249    21826500.1204   21826507.0944
     -1671.748       -1302.661
 -24254805.616 9 -18537182.80848  19879133.548    19879135.2404   19879141.9484
      3317.298        2584.908
 -18159270.986 9 -14128031.12647  21737454.364    21737456.4454   21737462.3354
      2679.555        2087.965
 97  4 24 16 59 59.9960000  0  6 27 15  2 19  7 26                  -0.003996020
  -8741456.356 9  -6800189.35448  19098889.673    19098891.2964   19098897.2194
       253.961         197.892
 -14737501.851 9 -11199606.36946  22482474.369    22482476.0114   22482483.5674
      2040.498        1589.998
 -11182952.308 9  -8517910.27548  19849243.906    19849245.1754   19849251.3074
      1303.225        1015.500
   4567398.537 9   3558793.88647  21836064.961    21836066.9134   21836073.9064
     -1679.883       -1309.000
 -24354120.421 9 -18614570.95548  19860234.604    19860236.2824   19860242.9664
      3303.434        2574.104
 -18239412.443 9 -14190479.01447  21722204.019    21722206.0304   21722211.8944
      2663.242        2075.254
 97  4 24 17  0 29.9960000  0  6 27 15  2 19  7 26                  -0.004018265
  -8748868.665 9  -6805965.19548  19097479.185    19097480.7964   19097486.7264
       239.995         187.009
 -14798483.400 9 -11247124.45346  22470870.098    22470871.6164   22470879.1384
      2024.531        1577.557
 -11221993.652 9  -8548332.10748  19841814.623    19841815.8604   19841821.9924
      1299.160        1012.332
   4617889.154 9   3598137.17247  21845673.035    21845674.9304   21845682.0054
     -1686.548       -1314.193
 -24453034.852 9 -18691647.11748  19841411.790    19841413.4744   19841420.1874
      3290.473        2564.005
 -18319096.006 9 -14252570.10247  21707040.683    21707042.7614   21707048.5954
      2648.681        2063.907
 97  4 24 17  0 59.9950000  0  6 27 15  2 19  7 26                  -0.004040507
  -8755837.023 9  -6811395.09648  19096153.175    19096154.7604   19096160.6824
       223.201         173.923
 -14858950.586 9 -11294241.72746  22459363.532    22459365.1004   22459372.5754
      2005.457        1562.694
 -11260881.352 9  -8578634.21448  19834414.478    19834415.7624   19834421.9084
      1292.113        1006.841
   4668613.525 9   3637662.61047  21855325.512    21855327.4354   21855334.6214
     -1696.434       -1321.897
 -24551521.816 9 -18768390.19048  19822670.450    19822672.0224   19822678.7294
      3274.374        2551.460
 -18398307.758 9 -14314293.54247  21691967.169    21691969.2324   21691975.1234
      2630.978        2050.113
 97  4 24 17  1 29.9950000  0  6 27 15  2 19  7 26                  -0.004062739
  -8762332.879 9  -6816456.81948  19094917.136    19094918.6794   19094924.5774
       208.321         162.328
 -14918887.059 9 -11340945.46546  22447957.963    22447959.5014   22447967.0974
      1988.826        1549.735
 -11299591.143 9  -8608797.69148  19827048.244    19827049.5154   19827055.6644
      1287.042        1002.890
   4719598.708 9   3677391.27647  21865027.806    21865029.6314   21865036.8144
     -1704.012       -1327.802
 -24649571.100 9 -18844792.21848  19804012.307    19804013.8764   19804020.5474
      3260.725        2540.825
 -18477030.871 9 -14375636.23247  21676986.666    21676988.7094   21676994.6214
      2615.693        2038.202
 97  4 24 17  1 59.9950000  0  6 27 15  2 19  7 26                  -0.004084978
  -8768359.718 9  -6821153.07548  19093770.330    19093771.8534   19093777.7504
       193.127         150.489
 -14978307.318 9 -11387246.96246  22436650.801    22436652.1924   22436659.8244
      1972.005        1536.627
 -11338133.024 9  -8638830.32848  19819713.935    19819715.2254   19819721.3744
      1281.845         998.840
   4770821.755 9   3717305.30047  21874775.157    21874777.1534   21874784.3024
     -1711.203       -1333.405
 -24747188.709 9 -18920857.87248  19785436.278    19785437.8514   19785444.5494
      3246.575        2529.799
 -18555274.817 9 -14436605.54647  21662097.273    21662099.3664   21662105.3124
      2599.978        2025.957
 97  4 24 17  2 29.9950000  0  6 27 15  2 19  7 26                  -0.004107230
  -8773951.125 9  -6825510.03648  19092706.297    19092707.8424   19092713.7744
       179.110         139.566
 -15037234.568 9 -11433164.28746  22425437.423    22425438.7764   22425446.3484
      1955.947        1524.115
 -11376521.348 9  -8668743.31248  19812408.805    19812410.1384   19812416.2954
      1276.782         994.895
   4822252.304 9   3757380.99647  21884562.220    21884564.1204   21884571.2424
     -1718.028       -1338.723
 -24844392.602 9 -18996601.15548  19766938.946    19766940.5384   19766947.2544
      3233.197        2519.374
 -18633048.291 9 -14497208.25147  21647297.502    21647299.5234   21647305.4814
      2584.315        2013.752
 97  4 24 17  2 59.9950000  0  6 27 15  2 19  7 26                  -0.004129476
  -8779079.131 9  -6829505.90648  19091730.523    19091732.0204   19091737.9724
       162.966         126.986
 -15095644.226 9 -11478678.29746  22414322.495    22414323.8294   22414331.3534
      1938.376        1510.423
 -11414720.828 9  -8698509.14748  19805139.771    19805141.0404   19805147.1904
      1270.052         989.651
   4873923.906 9   3797644.52947  21894395.195    21894396.9404   21894404.0874
     -1726.506       -1345.329
 -24941163.163 9 -19072006.77348  19748524.076    19748525.7044   19748532.4134
      3218.505        2507.926
 -18710310.527 9 -14557412.58947  21632594.958    21632596.9884   21632602.9634
      2566.802        2000.105
 97  4 24 17  3 29.9950000  0  6 27 15  2 19  7 26                  -0.004151721
  -8783722.019 9  -6833123.75848  19090846.981    19090848.5184   19090854.4824
       146.973         114.524
 -15153526.038 9 -11523780.99946  22403307.865    22403309.2284   22403316.7304
      1920.689        1496.641
 -11452710.464 9  -8728111.46748  19797910.622    19797911.8804   19797918.0304
      1263.036         984.184
   4925854.550 9   3838109.91347  21904277.174    21904279.0264   21904286.1544
     -1735.186       -1352.093
 -25037491.431 9 -19147067.74748  19730193.413    19730195.0214   19730201.6974
      3203.622        2496.329
 -18787050.783 9 -14617210.19847  21617991.795    21617993.8074   21617999.8094
      2549.595        1986.697
 97  4 24 17  3 59.9950000  0  6 27 15  2 19  7 26                  -0.004173960
  -8787903.832 9  -6836382.33848  19090051.216    19090052.7444   19090058.7064
       131.350         102.351
 -15210887.502 9 -11568478.23946  22392392.166    22392393.5974   22392401.1174
      1902.938        1482.809
 -11490507.854 9  -8757563.98648  19790718.022    19790719.3094   19790725.4374
      1256.368         978.988
   4978030.366 9   3878766.33747  21914205.753    21914207.7924   21914214.9534
     -1743.695       -1358.723
 -25133381.913 9 -19221787.59048  19711946.027    19711947.6824   19711954.3074
      3188.700        2484.701
 -18863290.758 9 -14676617.97247  21603483.795    21603485.8474   21603491.8754
      2532.714        1973.543
 97  4 24 17  4 29.9950000  0  6 27 15  2 19  7 26                  -0.004196206
  -8791642.797 9  -6839295.83448  19089339.757    19089341.2814   19089347.2054
       116.377          90.683
 -15267740.284 9 -11612779.10046  22381573.548    22381574.8984   22381582.3884
      1885.816        1469.467
 -11528125.799 9  -8786876.66948  19783559.563    19783560.8564   19783566.9754
      1250.135         974.131
   5030442.351 9   3919606.79147  21924179.430    21924181.4604   21924188.6774
     -1751.823       -1365.057
 -25228858.323 9 -19296184.77848  19693777.481    19693779.1214   19693785.7464
      3175.015        2474.038
 -18939048.226 9 -14735649.76847  21589067.736    21589069.7284   21589075.7274
      2516.335        1960.781
 97  4 24 17  4 59.9950000  0  6 27 15  2 19  7 26                  -0.004218442
  -8794904.093 9  -6841837.12148  19088719.172    19088720.7064   19088726.6194
       100.587          78.379
 -15324056.364 9 -11656661.75146  22370857.024    22370858.3664   22370865.7924
      1867.959        1455.552
 -11565542.123 9  -8816032.24848  19776439.458    19776440.7414   19776446.8704
      1243.719         969.132
   5083123.373 9   3960656.87647  21934204.475    21934206.4234   21934213.5924
     -1760.638       -1371.926
 -25323905.520 9 -19370247.51748  19675690.591    19675692.2504   19675698.8674
      3160.835        2462.988
 -19014291.852 9 -14794281.16447  21574749.414    21574751.3944   21574757.3394
      2499.360        1947.553
 97  4 24 17  5 29.9950000  0  6 27 15  2 19  7 26                  -0.004240674
  -8797710.383 9  -6844023.86048  19088185.157    19088186.7144   19088192.6424
        85.482          66.609
 -15379843.302 9 -11700132.08446  22360241.143    22360242.4914   22360249.9094
      1850.175        1441.695
 -11602778.860 9  -8845047.89448  19769353.580    19769354.8584   19769360.9494
      1237.889         964.589
   5136056.118 9   4001903.12047  21944277.487    21944279.2854   21944286.3914
     -1768.989       -1378.433
 -25418534.762 9 -19443984.57748  19657683.232    19657684.8844   19657691.5214
      3146.733        2452.000
 -19089037.815 9 -14852524.77547  21560525.679    21560527.7024   21560533.6264
      2482.626        1934.514
 97  4 24 17  5 59.9950000  0  6 27 15  2 19  7 26                  -0.004262890
  -8800062.237 9  -6845856.49248  19087737.619    19087739.1834   19087745.1364
        70.686          55.080
 -15435096.130 9 -11743186.22346  22349726.764    22349728.2084   22349735.6674
      1832.869        1428.210
 -11639846.004 9  -8873931.39148  19762299.970    19762301.2424   19762307.3344
      1232.712         960.555
   5189231.978 9   4043338.79847  21954396.602    21954398.3594   21954405.4804
     -1776.552       -1384.326
 -25512738.152 9 -19517389.80448  19639756.874    19639758.5354   19639765.1814
      3132.973        2441.278
 -19163270.823 9 -14910368.68247  21546399.640    21546401.6564   21546407.5764
      2465.654        1921.289
 97  4 24 17  6 29.9950000  0  6 27 15  2 19  7 26                  -0.004285086
  -8801963.117 9  -6847337.71748  19087375.922    19087377.4694   19087383.4324
        54.489          42.459
 -15489825.321 9 -11785832.34146  22339312.226    22339313.5984   22339321.0104
      1814.283        1413.727
 -11676755.770 9  -8902692.25248  19755276.252    19755277.5394   19755283.6394
      1226.429         955.659
   5242642.278 9   4084957.16147  21964560.232    21964562.0754   21964569.1814
     -1785.407       -1391.226
 -25606519.843 9 -19590466.43048  19621910.772    19621912.4774   19621919.1374
      3117.596        2429.296
 -19236980.253 9 -14967804.59747  21532373.215    21532375.2224   21532381.1174
      2446.938        1906.705
 97  4 24 17  6 59.9950000  0  6 27 15  2 19  7 26                  -0.004307276
  -8803421.415 9  -6848474.07248  19087098.400    19087099.9654   19087105.9474
        41.125          32.045
 -15544043.764 9 -11828080.46746  22328994.930    22328996.1474   22329003.5864
      1798.616        1401.519
 -11713525.838 9  -8931344.26048  19748279.060    19748280.4064   19748286.5214
      1223.198         953.141
   5296263.252 9   4126739.68447  21974764.005    21974765.8284   21974772.9484
     -1790.864       -1395.478
 -25699878.094 9 -19663213.10448  19604145.319    19604146.9934   19604153.6474
      3104.563        2419.140
 -19310183.730 9 -15024846.26847  21518443.061    21518445.0594   21518450.9444
      2431.784        1894.897
 97  4 24 17  7 29.9950000  0  6 27 15  2 19  7 26                  -0.004329448
  -8804404.276 9  -6849239.95348  19086911.365    19086912.9334   19086918.9154
        24.187          18.847
 -15597718.590 9 -11869905.00046  22318780.947    22318782.2194   22318789.5754
      1779.587        1386.691
 -11750119.102 9  -8959858.50048  19741315.595    19741316.9154   19741323.0284
      1216.219         947.703
   5350120.161 9   4168706.05147  21985012.565    21985014.4834   21985021.6354
     -1799.675       -1402.344
 -25792761.562 9 -19735589.81548  19586470.182    19586471.8524   19586478.4834
      3087.576        2405.903
 -19382855.374 9 -15081473.52347  21504614.094    21504616.0924   21504621.9884
      2412.903        1880.184
 97  4 24 17  7 59.9950000  0  6 27 15  2 19  7 26                  -0.004351605
  -8804890.010 9  -6849618.46848  19086818.983    19086820.5414   19086826.5094
         8.047           6.270
 -15650845.850 9 -11911302.84946  22308671.064    22308672.3814   22308679.7544
      1762.097        1373.062
 -11786516.457 9  -8988220.08348  19734389.448    19734390.7534   19734396.8344
      1210.172         942.991
   5404221.342 9   4210862.76746  21995307.597    21995309.6384   21995316.7244
     -1807.202       -1408.209
 -25885155.915 9 -19807585.40448  19568888.119    19568889.7794   19568896.4264
      3072.008        2393.772
 -19454987.093 9 -15137680.06047  21490887.917    21490889.8854   21490895.7844
      2395.872        1866.913
 97  4 24 17  8 29.9950000  0  6 27 15  2 19  7 26                  -0.004373780
  -8804895.288 9  -6849622.59348  19086817.993    19086819.5174   19086825.4904
        -7.588          -5.913
 -15703452.198 9 -11952294.80046  22298660.349    22298661.7074   22298669.0534
      1745.032        1359.765
 -11822740.432 9  -9016446.56648  19727496.339    19727497.5974   19727503.6544
      1204.783         938.792
   5458544.699 9   4253192.60047  22005644.971    22005647.0794   22005654.1554
     -1814.276       -1413.722
 -25977094.764 9 -19879226.05148  19551392.698    19551394.3364   19551400.9994
      3057.379        2382.373
 -19526622.609 9 -15193499.94247  21477256.140    21477258.1214   21477264.0524
      2380.038        1854.575
 97  4 24 17  8 59.9950000  0  6 27 15  2 19  7 26                  -0.004395976
  -8804413.247 9  -6849246.99248  19086909.752    19086911.2554   19086917.2924
       -23.640         -18.421
 -15755521.497 9 -11992868.27346  22288751.931    22288753.2124   22288760.5814
      1727.009        1345.721
 -11858775.010 9  -9044525.46248  19720639.154    19720640.4264   19720646.5354
      1198.412         933.828
   5513100.702 9   4295703.72446  22016026.637    22016028.7634   22016035.8924
     -1821.948       -1419.700
 -26068579.322 9 -19950512.70748  19533983.770    19533985.4214   19533992.0694
      3042.424        2370.720
 -19597770.642 9 -15248939.97747  21463717.176    21463719.1164   21463725.0704
      2363.866        1841.974
 97  4 24 17  9 29.9950000  0  6 27 15  2 19  7 26                  -0.004418200
  -8803468.208 9  -6848510.61648  19087089.597    19087091.0854   19087097.1714
       -39.687         -30.925
 -15807066.825 9 -12033033.45846  22278943.356    22278944.4744   22278951.7864
      1708.974        1331.668
 -11894636.092 9  -9072469.16748  19713815.012    19713816.2784   19713822.4184
      1192.058         928.876
   5567871.979 9   4338382.58446  22026449.259    22026451.4734   22026458.6344
     -1829.726       -1425.761
 -26159633.859 9 -20021464.28848  19516656.686    19516658.3524   19516664.9734
      3027.618        2359.183
 -19668441.293 9 -15304008.03048  21450268.955    21450270.9374   21450276.9124
      2347.228        1829.009
 97  4 24 17  9 59.9950000  0  6 27 15  2 19  7 26                  -0.004440404
  -8801984.772 9  -6847354.70348  19087371.895    19087373.4014   19087379.4704
       -56.850         -44.299
 -15858012.487 9 -12072731.37546  22269248.729    22269249.8204   22269257.1714
      1689.637        1316.600
 -11930256.834 9  -9100225.59848  19707036.645    19707037.8894   19707043.9744
      1185.055         923.419
   5622932.996 9   4381287.21646  22036927.223    22036929.3374   22036936.4784
     -1838.709       -1432.760
 -26250193.694 9 -20092030.37548  19499423.767    19499425.4034   19499432.0224
      3011.929        2346.958
 -19738564.448 9 -15358649.44648  21436925.065    21436926.9864   21436932.8984
      2329.746        1815.386
 97  4 24 17 10 29.9950000  0  6 27 15  2 19  7 26                  -0.004462622
  -8800052.533 9  -6845849.07748  19087739.602    19087741.1284   19087747.1334
       -73.088         -56.952
 -15908429.549 9 -12112017.39446  22259654.530    22259655.7144   22259663.1994
      1670.349        1301.571
 -11965727.735 9  -9127865.27348  19700286.853    19700288.0574   19700294.0504
      1178.456         918.277
   5678205.163 9   4424356.38246  22047445.200    22047447.3064   22047454.4694
     -1847.258       -1439.422
 -26340334.792 9 -20162270.17948  19482270.470    19482272.1104   19482278.7284
      2996.286        2334.768
 -19808202.698 9 -15412913.02448  21423673.343    21423675.2604   21423681.1444
      2311.747        1801.361
 97  4 24 17 10 59.9950000  0  6 27 15  2 19  7 26                  -0.004484823
  -8797641.550 9  -6843970.40748  19088198.464    19088199.9744   19088205.9494
       -86.894         -67.710
 -15958275.175 9 -12150858.14646  22250169.076    22250170.3644   22250177.9354
      1653.667        1288.572
 -12001000.767 9  -9155350.76148  19693574.632    19693575.8514   19693581.8164
      1174.092         914.877
   5733725.139 9   4467618.64346  22058010.445    22058012.4074   22058019.6054
     -1853.170       -1444.029
 -26430008.419 9 -20232145.72548  19465206.154    19465207.7884   19465214.3844
      2982.827        2324.281
 -19877308.229 9 -15466761.49548  21410522.992    21410524.9114   21410530.7894
      2296.098        1789.167
 97  4 24 17 11 29.9950000  0  6 27 15  2 19  7 26                  -0.004507036
  -8794782.656 9  -6841742.70948  19088742.511    19088743.9994   19088749.9794
      -103.598         -80.726
 -16007602.082 9 -12189294.69346  22240782.667    22240783.7754   22240791.2814
      1634.798        1273.869
 -12036124.237 9  -9182719.69748  19686890.815    19686892.0574   19686898.0694
      1167.505         909.744
   5789450.262 9   4511040.76946  22068614.334    22068616.6694   22068623.7734
     -1861.686       -1450.664
 -26519253.585 9 -20301687.40048  19448223.403    19448225.0004   19448231.5804
      2966.826        2311.812
 -19945918.854 9 -15520224.32548  21397466.860    21397468.8034   21397474.6724
      2277.985        1775.053
 97  4 24 17 11 59.9950000  0  6 27 15  2 19  7 26                  -0.004529246
  -8791453.269 9  -6839148.40448  19089376.106    19089377.5704   19089383.5754
      -117.602         -91.638
 -16056391.832 9 -12227312.68846  22231498.466    22231499.5554   22231506.8374
      1618.511        1261.177
 -12071084.699 9  -9209961.62348  19680238.045    19680239.2934   19680245.3804
      1163.858         906.902
   5845401.289 9   4554638.91646  22079261.606    22079263.8444   22079270.9904
     -1867.578       -1455.255
 -26608047.848 9 -20370877.72848  19431326.418    19431327.9844   19431334.6014
      2953.419        2301.365
 -20014012.959 9 -15573284.67148  21384509.071    21384510.9734   21384516.7904
      2262.221        1762.770
 97  4 24 17 12 29.9950000  0  6 27 15  2 19  7 26                  -0.004551453
  -8787664.533 9  -6836196.15648  19090097.166    19090098.5674   19090104.5664
      -134.666        -104.934
 -16104649.513 9 -12264916.07646  22222315.292    22222316.4744   22222323.7034
      1599.031        1245.998
 -12105890.509 9  -9237083.03648  19673614.816    19673616.0024   19673622.0874
      1156.864         901.452
   5901571.241 9   4598407.65046  22089950.448    22089952.6064   22089959.8904
     -1876.716       -1462.376
 -26696400.475 9 -20439723.91948  19414513.440    19414515.0084   19414521.6444
      2937.020        2288.587
 -20081589.893 9 -15625942.03148  21371649.612    21371651.4814   21371657.2764
      2243.397        1748.101
 97  4 24 17 12 59.9950000  0  6 27 15  2 19  7 26                  -0.004573658
  -8783405.306 9  -6832877.30048  19090907.712    19090909.1234   19090915.1114
      -148.920        -116.041
 -16152370.178 9 -12302101.00146  22213234.140    22213235.4454   22213242.6984
      1582.611        1233.203
 -12140534.829 9  -9264078.62448  19667022.262    19667023.4454   19667029.4684
      1153.175         898.578
   5957965.765 9   4642351.36946  22100682.097    22100684.1954   22100691.4524
     -1882.554       -1466.925
 -26784303.655 9 -20508219.89648  19397786.057    19397787.6084   19397794.2134
      2923.478        2278.035
 -20148649.538 9 -15678196.30548  21358888.544    21358890.4084   21358896.2194
      2227.441        1735.668
 97  4 24 17 13 29.9950000  0  6 27 15  2 19  7 26                  -0.004595854
  -8778687.515 9  -6829201.11548  19091805.550    19091806.9194   19091812.8824
      -165.163        -128.698
 -16199555.682 9 -12338868.91446  22204254.866    22204256.2814   22204263.6044
      1563.374        1218.214
 -12175036.857 9  -9290963.32548  19660456.789    19660457.9364   19660463.9144
      1147.327         894.021
   6014566.446 9   4686455.73646  22111452.963    22111454.9314   22111462.2754
     -1890.441       -1473.071
 -26871760.385 9 -20576367.99048  19381143.641    19381145.1854   19381151.7364
      2907.221        2265.367
 -20215182.658 9 -15730040.29748  21346227.746    21346229.5564   21346235.3914
      2208.414        1720.842
 97  4 24 17 13 59.9950000  0  6 27 15  2 19  7 26                  -0.004618031
  -8773526.561 9  -6825179.61848  19092787.585    19092789.0304   19092795.0154
      -178.139        -138.810
 -16246195.196 9 -12375211.38046  22195379.664    22195381.0484   22195388.3504
      1546.815        1205.310
 -12209406.100 9  -9317744.55748  19653916.489    19653917.6604   19653923.6454
      1144.672         891.952
   6071360.759 9   4730710.99346  22122260.575    22122262.4924   22122269.9194
     -1895.091       -1476.694
 -26958770.244 9 -20644167.87549  19364586.189    19364587.7624   19364594.3114
      2894.247        2255.257
 -20281182.188 9 -15781468.51148  21333668.365    21333670.2354   21333676.1294
      2192.327        1708.307
 97  4 24 17 14 29.9950000  0  6 27 15  2 19  7 26                  -0.004640196
  -8767943.939 9  -6820829.54448  19093849.934    19093851.3824   19093857.3604
      -193.495        -150.775
 -16292302.696 9 -12411139.30846  22186605.906    22186607.1754   22186614.3444
      1527.649        1190.376
 -12243654.041 9  -9344431.26048  19647399.299    19647400.4594   19647406.4954
      1139.154         887.652
   6128331.972 9   4775104.08646  22133101.990    22133103.8554   22133111.2154
     -1902.258       -1482.279
 -27045349.177 9 -20711631.96649  19348110.806    19348112.3594   19348118.9324
      2878.311        2242.840
 -20346657.704 9 -15832488.39948  21321208.696    21321210.5954   21321216.5434
      2173.326        1693.501
 97  4 24 17 14 59.9950000  0  6 27 15  2 19  7 26                  -0.004662331
  -8761911.930 9  -6816129.30048  19094997.863    19094999.2654   19095005.2404
      -209.209        -163.020
 -16337848.366 9 -12446629.43546  22177939.017    22177940.1894   22177947.2964
      1508.204        1175.224
 -12277748.932 9  -9370998.70948  19640911.346    19640912.4784   19640918.5034
      1133.400         883.169
   6185502.867 9   4819652.77446  22143981.445    22143983.1374   22143990.5464
     -1909.662       -1488.048
 -27131460.428 9 -20778731.63549  19331724.391    19331725.9434   19331732.5334
      2862.115        2230.219
 -20411576.051 9 -15883074.12848  21308855.150    21308857.1024   21308863.0114
      2154.190        1678.590
 97  4 24 17 15 29.9950000  0  6 27 15  2 19  7 26                  -0.004684449
  -8755426.109 9  -6811075.43548  19096232.077    19096233.5164   19096239.4664
      -223.258        -173.967
 -16382837.286 9 -12481685.72746  22169378.006    22169379.0924   22169386.2284
      1491.064        1161.868
 -12311699.303 9  -9397453.55448  19634450.873    19634452.0114   19634457.9914
      1129.948         880.479
   6242872.618 9   4864356.41746  22154898.423    22154900.2414   22154907.7124
     -1915.086       -1492.275
 -27217120.745 9 -20845479.92848  19315423.789    19315425.3114   19315431.8934
      2848.584        2219.676
 -20475956.659 9 -15933240.84048  21296604.132    21296605.9404   21296611.7844
      2137.948        1665.934
 97  4 24 17 15 59.9950000  0  6 27 15  2 19  7 26                  -0.004706556
  -8748457.823 9  -6805645.61948  19097558.098    19097559.5484   19097565.5054
      -239.220        -186.405
 -16427262.691 9 -12516302.91946  22160924.012    22160925.2134   22160932.4084
      1472.647        1147.517
 -12345486.621 9  -9423781.34048  19628021.387    19628022.4994   19628028.4684
      1124.515         876.245
   6300467.490 9   4909235.47346  22165858.330    22165860.2164   22165867.7094
     -1922.543       -1498.085
 -27302324.881 9 -20911872.74948  19299209.917    19299211.4784   19299218.0504
      2833.670        2208.055
 -20539803.487 9 -15982991.62148  21284454.495    21284456.3164   21284462.1114
      2120.538        1652.367
 97  4 24 17 16 29.9950000  0  6 27 15  2 19  7 26                  -0.004728646
  -8740982.227 9  -6799820.50148  19098980.673    19098982.1234   19098988.0994
      -256.433        -199.818
 -16471110.369 9 -12550469.93546  22152580.100    22152581.2654   22152588.5004
      1453.196        1132.361
 -12379082.295 9  -9449959.79248  19621628.218    19621629.4044   19621635.4044
      1117.964         871.141
   6358312.819 9   4954309.69646  22176865.949    22176867.8914   22176875.4004
     -1931.012       -1504.685
 -27387047.468 9 -20977890.34049  19283087.753    19283089.2974   19283095.8474
      2817.331        2195.323
 -20603103.927 9 -16032316.64848  21272408.845    21272410.6734   21272416.4734
      2102.363        1638.205
 97  4 24 17 16 59.9950000  0  6 27 15  2 19  7 26                  -0.004750753
  -8733021.453 9  -6793617.32048  19100495.620    19100497.0314   19100503.0114
      -274.132        -213.609
 -16514410.617 9 -12584210.38647  22144340.595    22144341.5364   22144348.7614
      1433.569        1117.067
 -12412520.251 9  -9476015.35148  19615265.112    19615266.3344   19615272.3484
      1111.413         866.036
   6416375.742 9   4999553.46946  22187915.069    22187917.0034   22187924.5274
     -1939.740       -1511.486
 -27471329.758 9 -21043564.84349  19267049.348    19267050.8974   19267057.4564
      2801.587        2183.055
 -20665910.577 9 -16081256.89848  21260457.054    21260458.9494   21260464.7134
      2084.901        1624.598
 97  4 24 17 17 29.9950000  0  6 27 15  2 19  7 26                  -0.004772872
  -8724556.018 9  -6787020.89448  19102106.598    19102107.9644   19102113.9304
      -292.178        -227.671
 -16557144.957 9 -12617509.87946  22136208.478    22136209.4724   22136216.6544
      1413.323        1101.291
 -12445785.584 9  -9501936.39448  19608935.028    19608936.1964   19608942.1804
      1104.118         860.352
   6474670.408 9   5044977.82746  22199008.354    22199010.1624   22199017.7114
     -1948.559       -1518.358
 -27555162.681 9 -21108889.18448  19251096.503    19251098.0174   19251104.5624
      2785.114        2170.219
 -20728212.679 9 -16129803.99548  21248601.335    21248603.2594   21248609.0374
      2066.470        1610.236
 97  4 24 17 17 59.9950000  0  6 27 15  2 19  7 26                  -0.004794996
  -8715597.798 9  -6780040.48348  19103811.294    19103812.6704   19103818.6464
      -306.820        -239.081
 -16599306.621 9 -12650363.13847  22128185.345    22128186.3544   22128193.4994
      1395.626        1087.501
 -12478863.244 9  -9527711.20348  19602640.684    19602641.7944   19602647.7384
      1099.227         856.541
   6533186.678 9   5090574.86546  22210143.685    22210145.4984   22210153.0144
     -1954.346       -1522.867
 -27638534.361 9 -21173854.12049  19235231.437    19235232.9194   19235239.4634
      2771.132        2159.324
 -20789992.672 9 -16177944.25448  21236844.986    21236846.9204   21236852.7294
      2050.416        1597.727
 97  4 24 17 18 29.9950000  0  6 27 15  2 19  7 26                  -0.004817125
  -8706160.774 9  -6772686.98048  19105607.139    19105608.4894   19105614.5034
      -323.539        -252.108
 -16640894.346 9 -12682769.16747  22120271.429    22120272.5114   22120279.5804
      1375.644        1071.930
 -12511754.451 9  -9553340.72148  19596381.675    19596382.8114   19596388.7714
      1092.193         851.059
   6591914.131 9   5136336.45546  22221319.177    22221321.0844   22221328.5034
     -1961.912       -1528.763
 -27721447.297 9 -21238461.59349  19219453.580    19219455.1044   19219461.6614
      2755.184        2146.897
 -20851251.413 9 -16225678.34948  21225187.843    21225189.7424   21225195.5894
      2032.281        1583.596
 97  4 24 17 18 59.9950000  0  6 27 15  2 19  7 26                  -0.004839260
  -8696251.989 9  -6764965.87148  19107492.700    19107494.0964   19107500.0984
      -338.940        -264.109
 -16681907.522 9 -12714727.50347  22112466.940    22112468.0104   22112475.0344
      1356.693        1057.163
 -12544455.450 9  -9578822.02048  19590158.802    19590159.9614   19590166.0074
      1085.998         846.232
   6650845.196 9   5182256.70646  22232533.224    22232535.2934   22232542.7934
     -1968.642       -1534.007
 -27803905.319 9 -21302714.58649  19203762.320    19203763.8594   19203770.3944
      2739.955        2135.030
 -20911987.459 9 -16273005.14548  21213630.298    21213632.0794   21213637.9174
      2014.880        1570.036
 97  4 24 17 19 29.9950000  0  6 27 15  2 19  7 26                  -0.004861420
  -8685911.916 9  -6756908.69848  19109460.370    19109461.7944   19109467.7834
      -351.099        -273.584
 -16722381.956 9 -12746266.04847  22104765.016    22104766.0004   22104773.0634
      1340.911        1044.866
 -12576992.646 9  -9604175.68948  19583967.140    19583968.2884   19583974.3594
      1082.538         843.536
   6709945.977 9   5228309.19646  22243779.860    22243781.8314   22243789.3724
     -1972.078       -1536.684
 -27885921.363 9 -21366623.18349  19188155.172    19188156.7484   19188163.2704
      2727.108        2125.019
 -20972223.405 9 -16319942.26148  21202167.812    21202169.5964   21202175.4124
      2000.267        1558.650
 97  4 24 17 19 59.9950000  0  6 27 15  2 19  7 26                  -0.004883606
  -8675145.186 9  -6748519.06348  19111509.221    19111510.6644   19111516.6534
      -366.739        -285.771
 -16762321.616 9 -12777387.87947  22097164.493    22097165.7444   22097172.8064
      1321.727        1029.917
 -12609367.595 9  -9629402.93248  19577806.372    19577807.5274   19577813.5734
      1075.863         838.335
   6769216.634 9   5274494.06246  22255058.704    22255060.6644   22255068.2344
     -1979.359       -1542.358
 -27967489.065 9 -21430182.42249  19172633.306    19172634.8814   19172641.4254
      2710.629        2112.178
 -21031960.304 9 -16366490.51048  21190800.126    21190802.0164   21190807.8364
      1982.212        1544.581
 97  4 24 17 20 29.9950000  0  6 27 15  2 19  7 26                  -0.004905800
  -8663924.048 9  -6739775.34048  19113644.584    19113645.9794   19113651.9744
      -382.375        -297.954
 -16801708.359 9 -12808078.86347  22089669.448    22089670.6954   22089677.8004
      1302.987        1015.315
 -12641569.318 9  -9654495.19548  19571678.633    19571679.8194   19571685.7944
      1069.843         833.644
   6828685.602 9   5320833.45346  22266375.252    22266377.2764   22266384.8204
     -1986.323       -1547.784
 -28048579.365 9 -21493369.65549  19157202.342    19157203.9494   19157210.4884
      2694.347        2099.491
 -21091177.764 9 -16412633.98848  21179531.392    21179533.3524   21179539.1694
      1964.428        1530.723
 97  4 24 17 20 59.9950000  0  6 27 15  2 19  7 26                  -0.004927961
  -8652199.879 9  -6730639.64848  19115875.591    19115877.0134   19115883.0484
      -398.844        -310.788
 -16840496.028 9 -12838303.02947  22082288.414    22082289.5784   22082296.7974
      1283.438        1000.082
 -12673556.359 9  -9679420.17148  19565591.784    19565592.9224   19565598.8974
      1063.311         828.554
   6888406.353 9   5367369.04746  22277739.796    22277741.7534   22277749.3914
     -1994.317       -1554.013
 -28129138.793 9 -21556143.22949  19141872.404    19141874.0304   19141880.5754
      2676.954        2085.938
 -21149813.282 9 -16458324.01348  21168373.372    21168375.3584   21168381.2254
      1945.186        1515.729
 97  4 24 17 21 29.9950000  0  6 27 15  2 19  7 26                  -0.004950109
  -8640002.258 9  -6721135.03548  19118196.723    19118198.1644   19118204.2124
      -414.163        -322.724
 -16878724.620 9 -12868091.55847  22075013.735    22075014.8954   22075022.1154
      1265.217         985.883
 -12705383.220 9  -9704220.33148  19559535.254    19559536.4084   19559542.4914
      1058.599         824.882
   6948333.039 9   5414065.10646  22289143.471    22289145.5024   22289153.0994
     -2000.626       -1558.929
 -28209213.889 9 -21618539.40049  19126634.601    19126636.2274   19126642.7924
      2661.613        2073.984
 -21207899.843 9 -16503586.27848  21157319.825    21157321.8674   21157327.7474
      1927.352        1501.833
 97  4 24 17 21 59.9950000  0  6 27 15  2 19  7 26                  -0.004972229
  -8627322.541 9  -6711254.75348  19120609.659    19120611.0694   19120617.0934
      -431.290        -336.070
 -16916379.231 9 -12897432.81846  22067848.411    22067849.4924   22067856.6344
      1244.833         970.000
 -12737043.159 9  -9728890.42048  19553510.445    19553511.6514   19553517.8154
      1051.803         819.587
   7008477.574 9   5460930.92246  22300588.587    22300590.7114   22300598.2824
     -2009.224       -1565.629
 -28288809.040 9 -21680561.58449  19111488.079    19111489.7194   19111496.3014
      2644.431        2060.595
 -21265419.731 9 -16548406.97748  21146374.181    21146376.2184   21146382.0914
      1907.105        1486.056
 97  4 24 17 22 29.9950000  0  6 27 15  2 19  7 26                  -0.004994325
  -8614177.632 9  -6701011.99048  19123111.115    19123112.5064   19123118.5054
      -445.336        -347.015
 -16953468.308 9 -12926333.40447  22060790.699    22060791.7434   22060798.8314
      1227.294         956.333
 -12768540.629 9  -9753433.91048  19547516.766    19547517.9204   19547524.0344
      1047.588         816.302
   7068834.428 9   5507962.16746  22312074.263    22312076.2494   22312083.8524
     -2014.981       -1570.115
 -28367937.315 9 -21742219.97249  19096430.449    19096432.0734   19096438.6384
      2630.457        2049.707
 -21322378.540 9 -16592790.47348  21135535.407    21135537.3694   21135543.1824
      1889.864        1472.621
 97  4 24 17 22 59.9950000  0  6 27 15  2 19  7 26                  -0.005016408
  -8600585.302 9  -6690420.58748  19125697.684    19125699.0494   19125705.0744
      -459.380        -357.958
 -16989994.980 9 -12954795.74746  22053839.948    22053840.9694   22053848.0654
      1209.338         942.341
 -12799873.718 9  -9777849.31448  19541554.414    19541555.5124   19541561.5114
      1042.905         812.653
   7129390.262 9   5555148.46346  22323597.699    22323599.7434   22323607.3544
     -2020.513       -1574.426
 -28446618.280 9 -21803529.80849  19081458.027    19081459.6274   19081466.1484
      2616.463        2038.802
 -21378792.598 9 -16636749.47948  21124800.268    21124802.1634   21124807.9584
      1872.815        1459.336
 97  4 24 17 23 29.9940000  0  6 27 15  2 19  7 26                  -0.005038516
  -8586579.891 9  -6679507.30448  19128362.786    19128364.1544   19128370.2414
      -475.996        -370.906
 -17025987.387 9 -12982841.77546  22046990.736    22046991.8194   22046998.9304
      1188.398         926.024
 -12831069.876 9  -9802158.01848  19535618.046    19535619.1214   19535625.0354
      1035.017         806.507
   7190103.853 9   5602457.68846  22335151.182    22335153.2644   22335160.7624
     -2029.164       -1581.167
 -28524884.548 9 -21864516.49848  19066564.451    19066566.0324   19066572.5754
      2599.504        2025.588
 -21434719.070 9 -16680328.56548  21114157.775    21114159.6754   21114165.4874
      1853.870        1444.574
 97  4 24 17 23 59.9940000  0  6 27 15  2 19  7 26                  -0.005060621
  -8572116.136 9  -6668236.87148  19131115.105    19131116.5014   19131122.6094
      -488.868        -380.936
 -17061391.071 9 -13010429.06147  22040253.559    22040254.7054   22040261.8584
      1171.342         912.734
 -12862066.482 9  -9826311.22948  19529719.507    19529720.6274   19529726.5894
      1030.998         803.375
   7251044.721 9   5649944.01346  22346748.060    22346749.9434   22346757.4994
     -2034.049       -1584.973
 -28602670.262 9 -21925128.73549  19051762.319    19051763.8944   19051770.4274
      2585.664        2014.803
 -21490116.484 9 -16723495.38648  21103615.909    21103617.8604   21103623.6734
      1838.826        1432.851
 97  4 24 17 24 29.9940000  0  6 27 15  2 19  7 26                  -0.005082742
  -8557198.194 9  -6656612.52548  19133953.917    19133955.3244   19133961.4164
      -505.186        -393.651
 -17096224.324 9 -13037571.84846  22033625.139    22033626.1904   22033633.3434
      1151.385         897.183
 -12892888.052 9  -9850328.04548  19523854.220    19523855.4054   19523861.4544
      1024.386         798.223
   7312187.103 9   5697587.35746  22358383.309    22358385.0234   22358392.5884
     -2041.461       -1590.749
 -28679984.689 9 -21985373.74049  19037049.888    19037051.4574   19037057.9484
      2569.239        2002.004
 -21545014.380 9 -16766272.97748  21093169.204    21093171.1144   21093176.9164
      1821.499        1419.350
 97  4 24 17 24 59.9940000  0  6 27 15  2 19  7 26                  -0.005104860
  -8541767.520 9  -6644588.64548  19136890.302    19136891.7324   19136897.8104
      -522.115        -406.843
 -17130444.382 9 -13064236.82746  22027113.339    22027114.3504   22027121.4264
      1131.400         881.610
 -12923504.998 9  -9874185.41248  19518028.006    19518029.2004   19518035.2754
      1018.402         793.560
   7373555.250 9   5745406.62646  22370061.207    22370063.0344   22370070.6174
     -2048.316       -1596.090
 -28756793.501 9 -22045224.75548  19022433.609    19022435.1734   19022441.6934
      2552.656        1989.082
 -21599373.617 9 -16808630.83048  21082825.085    21082826.9114   21082832.7364
      1803.780        1405.543
 97  4 24 17 25 29.9940000  0  6 27 15  2 19  7 26                  -0.005127013
  -8525895.170 9  -6632220.60148  19139910.732    19139912.1714   19139918.2384
      -536.785        -418.274
 -17164133.448 9 -13090488.04247  22020702.350    22020703.4934   22020710.6134
      1113.632         867.765
 -12954020.745 9  -9897963.92748  19512221.173    19512222.3224   19512228.3784
      1015.073         790.966
   7435063.921 9   5793335.38446  22381766.069    22381767.8324   22381775.4134
     -2053.116       -1599.831
 -28833164.007 9 -22104734.23048  19007900.781    19007902.3124   19007908.8534
      2537.862        1977.555
 -21653260.374 9 -16850620.52148  21072570.774    21072572.6094   21072578.4544
      1787.590        1392.927
 97  4 24 17 25 59.9940000  0  6 27 15  2 19  7 26                  -0.005149154
  -8509532.114 9  -6619470.19148  19143024.556    19143025.9424   19143032.0314
      -554.794        -432.307
 -17197241.181 9 -13116286.26847  22014401.910    22014403.2294   22014410.4554
      1092.879         851.594
 -12984393.921 9  -9921631.35148  19506441.451    19506442.6014   19506448.6104
      1009.134         786.338
   7496755.734 9   5841406.84946  22393505.839    22393507.4944   22393515.0264
     -2060.262       -1605.399
 -28909047.453 9 -22163864.18149  18993460.724    18993462.2264   18993468.7044
      2520.503        1964.028
 -21706600.104 9 -16892183.95548  21062420.663    21062422.4644   21062428.2924
      1767.770        1377.483
 97  4 24 17 26 29.9940000  0  6 27 15  2 19  7 26                  -0.005171275
  -8492663.973 9  -6606326.20948  19146234.435    19146235.8554   19146241.9644
      -570.028        -444.178
 -17229759.405 9 -13141625.12747  22008213.978    22008215.1724   22008222.4174
      1074.545         837.308
 -13014615.065 9  -9945180.29848  19500690.532    19500691.6894   19500697.7124
      1005.193         783.267
   7558623.244 9   5889615.22946  22405278.890    22405280.5174   22405288.0574
     -2064.552       -1608.742
 -28984451.642 9 -22222620.68949  18979111.854    18979113.3184   18979119.7604
      2505.907        1952.655
 -21759371.025 9 -16933304.16448  21052378.695    21052380.5084   21052386.3274
      1749.771        1363.458
 97  4 24 17 26 59.9940000  0  6 27 15  2 19  7 26                  -0.005193374
  -8475326.321 9  -6592816.37848  19149533.677    19149535.1234   19149541.2494
      -584.788        -455.679
 -17261700.743 9 -13166514.47846  22002136.090    22002136.9864   22002144.1864
      1055.906         822.784
 -13044696.495 9  -9968620.38048  19494966.054    19494967.3104   19494973.3714
      1001.232         780.181
   7620639.269 9   5937939.31546  22417080.147    22417081.8714   22417089.4334
     -2069.022       -1612.225
 -29059380.275 9 -22281006.62749  18964853.382    18964854.8644   18964861.3444
      2490.269        1940.469
 -21811565.468 9 -16973975.16848  21042446.390    21042448.2374   21042454.0844
      1731.088        1348.900
 97  4 24 17 27 29.9940000  0  6 27 15  2 19  7 26                  -0.005215450
  -8457528.121 9  -6578947.67448  19152920.606    19152922.0394   19152928.1624
      -600.973        -468.291
 -17293061.562 9 -13190951.47447  21996168.356    21996169.2174   21996176.3914
      1035.654         807.003
 -13074622.866 9  -9991939.63948  19489271.183    19489272.4724   19489278.5624
       994.515         774.947
   7682822.301 9   5986393.53946  22428913.133    22428915.0134   22428922.5624
     -2075.764       -1617.478
 -29133815.284 9 -22339007.92449  18950688.850    18950690.3734   18950696.8854
      2473.066        1927.064
 -21863181.895 9 -17014195.77348  21032624.087    21032625.9514   21032631.8194
      1710.907        1333.174
 97  4 24 17 27 59.9940000  0  6 27 15  2 19  7 26                  -0.005237513
  -8439272.061 9  -6564722.19848  19156394.675    19156396.0834   19156402.1794
      -615.379        -479.516
 -17323846.723 9 -13214939.90247  21990310.001    21990310.9664   21990318.1374
      1017.369         792.755
 -13104366.662 9 -10015116.63648  19483611.274    19483612.4724   19483618.5084
       989.130         770.751
   7745177.696 9   6034982.07946  22440779.095    22440780.9454   22440788.4784
     -2080.696       -1621.322
 -29207771.251 9 -22396635.94849  18936615.579    18936617.0694   18936623.5354
      2458.002        1915.326
 -21914223.373 9 -17053968.35948  21022911.212    21022913.0594   21022918.9384
      1692.689        1318.978
 97  4 24 17 28 29.9940000  0  6 27 15  2 19  7 26                  -0.005259579
  -8420587.821 9  -6550163.07648  19159950.278    19159951.6264   19159957.6994
      -629.675        -490.656
 -17354082.383 9 -13238500.14347  21984556.317    21984557.2574   21984564.5074
       998.834         778.312
 -13133943.713 9 -10038163.70448  19477983.093    19477984.2234   19477990.2034
       983.374         766.265
   7807692.435 9   6083694.78746  22452675.293    22452677.2204   22452684.6994
     -2086.473       -1625.823
 -29281268.848 9 -22453906.79748  18922629.409    18922630.8914   18922637.3774
      2442.451        1903.209
 -21964719.889 9 -17093316.30848  21013302.099    21013303.9254   21013309.7764
      1674.377        1304.709
 97  4 24 17 28 59.9940000  0  6 27 15  2 19  7 26                  -0.005281629
  -8401450.730 9  -6535251.07848  19163591.943    19163593.3084   19163599.3884
      -646.149        -503.493
 -17383740.468 9 -13261610.32947  21978912.347    21978913.4484   21978920.7954
       978.410         762.397
 -13163335.578 9 -10061066.46448  19472390.024    19472391.2024   19472397.1624
       976.121         760.614
   7870414.810 9   6132569.28946  22464610.965    22464612.8704   22464620.4824
     -2095.058       -1632.513
 -29354282.615 9 -22510800.62448  18908735.198    18908736.7574   18908743.2904
      2425.371        1889.899
 -22014656.157 9 -17132227.68948  21003799.579    21003801.3834   21003807.2084
      1655.020        1289.626
 97  4 24 17 29 29.9940000  0  6 27 15  2 19  7 26                  -0.005303666
  -8381848.611 9  -6519976.72848  19167322.088    19167323.4514   19167329.6004
      -661.956        -515.810
 -17412822.536 9 -13284271.68247  21973378.396    21973379.3924   21973386.7004
       959.082         747.337
 -13192540.266 9 -10083823.37048  19466832.482    19466833.6954   19466839.7114
       969.679         755.594
   7933363.117 9   6181619.84346  22476589.597    22476591.5774   22476599.1274
     -2102.699       -1638.467
 -29426828.902 9 -22567330.19449  18894930.176    18894931.7134   18894938.2054
      2409.700        1877.688
 -22064052.938 9 -17170718.69648  20994399.710    20994401.5264   20994407.3094
      1636.729        1275.373
 97  4 24 17 29 59.9940000  0  6 27 15  2 19  7 26                  -0.005325686
  -8361778.109 9  -6504337.40248  19171141.358    19171142.7394   19171148.9104
      -675.950        -526.714
 -17441321.166 9 -13306478.41347  21967955.374    21967956.2974   21967963.6104
       940.901         733.170
 -13221565.709 9 -10106440.60048  19461309.003    19461310.2394   19461316.3394
       965.581         752.401
   7996532.906 9   6230842.98046  22488610.458    22488612.4304   22488619.9594
     -2108.355       -1642.874
 -29498898.224 9 -22623488.10248  18881215.922    18881217.4164   18881223.8514
      2394.964        1866.206
 -22112902.749 9 -17208783.49748  20985103.948    20985105.7374   20985111.5284
      1620.182        1262.479
 97  4 24 17 30 29.9940000  0  6 27 15  2 19  7 26                  -0.005347721
  -8341284.247 9  -6488368.18548  19175041.222    19175042.5994   19175048.7834
      -690.746        -538.244
 -17469267.920 9 -13328255.11147  21962637.208    21962638.1864   21962645.4954
       921.869         718.339
 -13250473.211 9 -10128965.93348  19455807.934    19455809.2074   19455815.3894
       961.229         749.010
   8059867.779 9   6280194.74846  22500662.786    22500664.7534   22500672.3004
     -2114.222       -1647.446
 -29570524.788 9 -22679301.00048  18867585.781    18867587.2874   18867593.7634
      2379.756        1854.355
 -22161265.959 9 -17246469.12648  20975900.753    20975902.5314   20975908.3734
      1603.678        1249.619
 97  4 24 17 30 59.9940000  0  6 27 15  2 19  7 26                  -0.005369779
  -8320351.573 9  -6472057.03748  19179024.594    19179025.9844   19179032.1714
      -704.608        -549.045
 -17496649.095 9 -13349591.11347  21957426.533    21957427.6034   21957435.0184
       903.662         704.152
 -13279252.629 9 -10151391.47048  19450331.450    19450332.7184   19450338.8214
       957.448         746.063
   8123366.054 9   6329673.84046  22512746.376    22512748.1824   22512755.6604
     -2118.771       -1650.990
 -29641695.936 9 -22734759.03248  18854042.359    18854043.8704   18854050.3674
      2364.999        1842.856
 -22209148.806 9 -17283780.44848  20966788.990    20966790.7664   20966796.5824
      1588.609        1237.877
 97  4 24 17 31 29.9940000  0  6 27 15  2 19  7 26                  -0.005391868
  -8298978.438 9  -6455402.67048  19183091.749    19183093.1734   19183099.3634
      -720.022        -561.056
 -17523454.390 9 -13370478.37347  21952325.453    21952326.6884   21952334.1114
       883.576         688.501
 -13307884.457 9 -10173701.99748  19444883.188    19444884.3744   19444890.3674
       951.527         741.450
   8187017.014 9   6379271.90946  22524858.736    22524860.6144   22524868.0304
     -2124.383       -1655.363
 -29712388.124 9 -22789843.84348  18840590.129    18840591.6214   18840598.1094
      2348.058        1829.656
 -22256545.486 9 -17320712.93348  20957769.666    20957771.5054   20957777.3074
      1571.319        1224.404
 97  4 24 17 31 59.9940000  0  6 27 15  2 19  7 26                  -0.005413993
  -8277175.168 9  -6438413.13048  19187240.790    19187242.2014   19187248.4104
      -735.611        -573.203
 -17549688.791 9 -13390920.78047  21947333.270    21947334.4844   21947341.9084
       863.336         672.729
 -13336366.450 9 -10195895.76948  19439463.410    19439464.5324   19439470.4744
       945.144         736.476
   8250800.259 9   6428973.05746  22536996.363    22536998.2314   22537005.6534
     -2129.965       -1659.713
 -29782608.551 9 -22844561.04948  18827227.617    18827229.1204   18827235.6244
      2331.394        1816.671
 -22303453.174 9 -17357264.38948  20948843.564    20948845.3144   20948851.1014
      1553.821        1210.770
 97  4 24 17 32 29.9940000  0  6 27 15  2 19  7 26                  -0.005436133
  -8254907.046 9  -6421061.37348  19191478.320    19191479.6824   19191485.9194
      -749.552        -584.066
 -17575330.487 9 -13410901.35446  21942454.050    21942455.0234   21942462.4824
       845.538         658.861
 -13364657.730 9 -10217940.93548  19434079.806    19434080.8864   19434086.8564
       940.465         732.830
   8314748.388 9   6478802.68646  22549165.405    22549167.2614   22549174.6674
     -2133.946       -1662.815
 -29852350.284 9 -22898905.24948  18813956.172    18813957.7114   18813964.2454
      2317.374        1805.746
 -22349839.087 9 -17393409.27248  20940016.681    20940018.3994   20940024.1784
      1537.863        1198.335
 97  4 24 17 32 59.9940000  0  6 27 15  2 19  7 26                  -0.005458278
  -8232180.036 9  -6403352.03848  19195803.071    19195804.5174   19195810.7224
      -765.114        -596.193
 -17600396.742 9 -13430433.52446  21937684.137    21937685.1574   21937692.5744
       826.029         643.659
 -13392765.539 9 -10239843.13348  19428730.919    19428732.0864   19428738.1544
       933.996         727.789
   8378866.192 9   6528764.52946  22561366.636    22561368.4644   22561376.0104
     -2140.037       -1667.561
 -29921621.413 9 -22952882.74848  18800774.401    18800775.9184   18800782.3984
      2301.247        1793.179
 -22395684.644 9 -17429133.09748  20931292.525    20931294.2804   20931300.0724
      1518.994        1183.632
 97  4 24 17 33 29.9940000  0  6 27 15  2 19  7 26                  -0.005480395
  -8208974.745 9  -6385270.01448  19200218.976    19200220.3754   19200226.5594
      -781.851        -609.235
 -17624871.209 9 -13449504.56247  21933026.730    21933027.8064   21933035.2484
       805.707         627.824
 -13420677.239 9 -10261592.51848  19423419.431    19423420.5984   19423426.7664
       926.923         722.278
   8443172.441 9   6578873.21946  22573603.812    22573605.6384   22573613.1844
     -2147.024       -1673.006
 -29990408.398 9 -23006482.98848  18787684.642    18787686.1674   18787692.6674
      2284.650        1780.247
 -22440941.746 9 -17464398.38348  20922680.373    20922682.1284   20922687.9524
      1498.182        1167.415
 97  4 24 17 33 59.9940000  0  6 27 15  2 19  7 26                  -0.005502474
  -8185295.463 9  -6366818.65248  19204724.976    19204726.4324   19204732.6134
      -797.776        -621.644
 -17648766.238 9 -13468124.08947  21928479.547    21928480.7264   21928488.1864
       786.241         612.655
 -13448412.134 9 -10283204.13748  19418141.673    19418142.8144   19418148.9754
       921.030         717.686
   8507661.917 9   6629124.67646  22585875.854    22585877.6394   22585885.1954
     -2153.357       -1677.941
 -30058729.550 9 -23059720.24748  18774683.481    18774685.0224   18774691.5704
      2268.920        1767.990
 -22485602.674 9 -17499199.11748  20914181.711    20914183.4704   20914189.2924
      1478.179        1151.828
 97  4 24 17 34 29.9940000  0  6 27 15  2 19  7 26                  -0.005524502
  -8161130.140 9  -6347988.55248  19209323.526    19209324.9664   19209331.1594
      -814.297        -634.517
 -17672066.554 9 -13486280.19046  21924045.705    21924046.8234   21924054.2614
       766.038         596.913
 -13475967.138 9 -10304675.58548  19412898.205    19412899.3284   19412905.4234
       914.988         712.978
   8572355.967 9   6679535.54646  22598186.757    22598188.5524   22598196.1804
     -2160.577       -1683.566
 -30126559.900 9 -23112575.05548  18761775.759    18761777.3164   18761783.8574
      2251.916        1754.740
 -22529653.635 9 -17533524.55248  20905799.105    20905800.8914   20905806.7254
      1457.673        1135.849
 97  4 24 17 34 59.9940000  0  6 27 15  2 19  7 26                  -0.005546497
  -8136503.556 9  -6328799.02448  19214009.794    19214011.2524   19214017.4524
      -828.839        -645.849
 -17694789.503 9 -13503986.40746  21919721.672    21919722.8074   21919730.2364
       747.412         582.399
 -13503369.498 9 -10326028.08648  19407683.872    19407684.9324   19407690.8984
       910.307         709.330
   8637226.226 9   6730083.72546  22610531.146    22610532.9264   22610540.6444
     -2165.462       -1687.373
 -30193905.718 9 -23165052.30648  18748960.298    18748961.8364   18748968.3584
      2236.510        1742.735
 -22573122.320 9 -17567396.26448  20897527.304    20897529.0694   20897534.9454
      1439.064        1121.349
 97  4 24 17 35 29.9940000  0  6 27 15  2 19  7 26                  -0.005568476
  -8111418.369 9  -6309252.15148  19218783.408    19218784.8314   19218791.0494
      -844.423        -657.992
 -17716932.723 9 -13521240.87646  21915507.942    21915509.1314   21915516.5544
       727.795         567.113
 -13530603.939 9 -10347249.74248  19402501.424    19402502.4804   19402508.3494
       904.376         704.709
   8702264.873 9   6780763.10546  22622907.670    22622909.3704   22622917.1964
     -2171.446       -1692.036
 -30260769.875 9 -23217154.24248  18736236.462    18736238.0174   18736244.5144
      2219.985        1729.858
 -22616027.905 9 -17600829.20448  20889362.701    20889364.4304   20889370.2834
      1420.473        1106.862
 97  4 24 17 35 59.9940000  0  6 27 15  2 19  7 26                  -0.005590442
  -8085860.392 9  -6289336.86748  19223646.959    19223648.4084   19223654.6044
      -860.096        -670.205
 -17738476.671 9 -13538028.37646  21911408.347    21911409.4474   21911416.8784
       707.764         551.504
 -13557652.432 9 -10368326.50248  19397354.211    19397355.3364   19397361.2104
       898.160         699.865
   8767493.661 9   6831590.65346  22635320.294    22635322.1154   22635329.9374
     -2177.716       -1696.922
 -30327124.928 9 -23268859.47048  18723609.535    18723611.0654   18723617.5564
      2202.987        1716.613
 -22658377.352 9 -17633828.78248  20881303.927    20881305.6184   20881311.4214
      1402.267        1092.676
 97  4 24 17 36 29.9940000  0  6 27 15  2 19  7 26                  -0.005612422
  -8059858.694 9  -6269075.83448  19228594.969    19228596.3794   19228602.5734
      -874.418        -681.365
 -17759443.510 9 -13554366.19146  21907418.627    21907419.6614   21907427.0904
       689.050         536.922
 -13584536.112 9 -10389274.83648  19392238.348    19392239.5134   19392245.4524
       893.055         695.887
   8832884.720 9   6882544.65246  22647763.943    22647765.7184   22647773.5714
     -2182.469       -1700.625
 -30392992.125 9 -23320184.55348  18711075.394    18711076.9464   18711083.4574
      2187.228        1704.334
 -22700210.937 9 -17666426.39248  20873343.181    20873344.9434   20873350.7434
      1385.746        1079.802
 97  4 24 17 36 59.9940000  0  6 27 15  2 19  7 26                  -0.005634412
  -8033392.826 9  -6248453.10548  19233631.254    19233632.6704   19233638.8674
      -890.255        -693.705
 -17779814.141 9 -13570239.41746  21903542.202    21903543.2594   21903550.7194
       668.620         521.003
 -13611226.536 9 -10410072.58048  19387159.182    19387160.4244   19387166.4794
       885.908         690.318
   8898443.994 9   6933629.72046  22660239.462    22660241.2654   22660249.1924
     -2188.616       -1705.415
 -30458358.168 9 -23371119.12648  18698636.648    18698638.2014   18698644.7124
      2170.112        1690.996
 -22741513.637 9 -17698610.32848  20865483.475    20865485.2684   20865491.0974
      1367.449        1065.545
 97  4 24 17 37 29.9940000  0  6 27 15  2 19  7 26                  -0.005656416
  -8006477.379 9  -6227480.05348  19238753.143    19238754.5404   19238760.7304
      -904.690        -704.953
 -17799595.159 9 -13585653.21246  21899778.010    21899778.9754   21899786.4684
       649.568         506.157
 -13637734.158 9 -10430727.88048  19382114.898    19382116.1464   19382122.2914
       880.816         686.350
   8964171.933 9   6984846.20446  22672747.154    22672748.9104   22672756.9184
     -2193.828       -1709.476
 -30523230.091 9 -23421668.67048  18686291.920    18686293.4804   18686299.9714
      2154.080        1678.504
 -22782300.734 9 -17730392.49048  20857722.070    20857723.7994   20857729.5904
      1350.977        1052.709
 97  4 24 17 37 59.9940000  0  6 27 15  2 19  7 26                  -0.005678445
  -7979139.823 9  -6206178.08648  19243955.362    19243956.7224   19243962.9194
      -919.062        -716.152
 -17818815.607 9 -13600630.18646  21896120.412    21896121.4614   21896128.8964
       630.623         491.395
 -13664100.739 9 -10451273.27548  19377097.593    19377098.7804   19377104.9354
       875.742         682.396
   9030043.411 9   7036174.55046  22685282.170    22685283.7824   22685291.9194
     -2198.644       -1713.229
 -30587637.977 9 -23471856.62648  18674035.498    18674037.0404   18674043.5354
      2138.717        1666.533
 -22822594.665 9 -17761790.36848  20850054.386    20850056.1334   20850061.9024
      1334.129        1039.581
 97  4 24 17 38 29.9940000  0  6 27 15  2 19  7 26                  -0.005700473
  -7951333.889 9  -6184511.15248  19249246.635    19249248.0364   19249254.2384
      -933.902        -727.716
 -17837440.209 9 -13615142.87646  21892576.312    21892577.2994   21892584.7164
       611.742         476.682
 -13690284.598 9 -10471676.30148  19372115.133    19372116.2234   19372122.2974
       870.617         678.403
   9096083.145 9   7087633.98946  22697849.116    22697850.8134   22697858.8594
     -2203.227       -1716.800
 -30651560.935 9 -23521666.72348  18661871.447    18661872.9314   18661879.3854
      2123.526        1654.696
 -22862354.928 9 -17792772.40948  20842488.263    20842490.0054   20842495.7814
      1317.269        1026.443
 97  4 24 17 38 59.9940000  0  6 27 15  2 19  7 26                  -0.005722508
  -7923070.276 9  -6162487.57948  19254625.096    19254626.4284   19254632.6474
      -949.525        -739.890
 -17855488.211 9 -13629206.26346  21889141.870    21889142.9404   21889150.2944
       592.144         461.411
 -13716308.698 9 -10491954.83048  19367163.101    19367164.1314   19367170.0554
       865.170         674.158
   9162270.350 9   7139208.36046  22710444.211    22710445.9334   22710453.9534
     -2208.643       -1721.021
 -30715016.165 9 -23571112.35148  18649796.291    18649797.7884   18649804.2334
      2107.463        1642.179
 -22901596.068 9 -17823349.93548  20835020.912    20835022.6624   20835028.4494
      1299.478        1012.580
 97  4 24 17 39 29.9940000  0  6 27 15  2 19  7 26                  -0.005744559
  -7894370.185 9  -6140123.89848  19260086.572    19260087.8844   19260094.1354
      -964.481        -751.544
 -17872985.328 9 -13642840.39746  21885812.224    21885813.2964   21885820.6924
       573.628         446.983
 -13742214.713 9 -10512141.34448  19362233.437    19362234.4224   19362240.2864
       861.206         671.070
   9228583.027 9   7190880.47446  22723063.005    22723064.8284   22723072.9444
     -2212.689       -1724.173
 -30778026.798 9 -23620211.54048  18637805.776    18637807.2584   18637813.7104
      2092.623        1630.615
 -22940339.891 9 -17853539.93848  20827648.205    20827649.9564   20827655.7614
      1282.631         999.453
 97  4 24 17 39 59.9940000  0  6 27 15  2 19  7 26                  -0.005766592
  -7865191.804 9  -6117387.52648  19265639.025    19265640.3584   19265646.6154
      -980.941        -764.370
 -17889894.584 9 -13656016.46046  21882594.327    21882595.6044   21882603.0244
       553.437         431.250
 -13767965.023 9 -10532206.53448  19357333.261    19357334.2964   19357340.1354
       855.367         666.520
   9295036.097 9   7242661.99446  22735708.857    22735710.5024   22735718.6084
     -2217.515       -1727.934
 -30840566.541 9 -23668943.80448  18625904.939    18625906.3624   18625912.8004
      2076.467        1618.026
 -22978532.093 9 -17883300.10648  20820380.418    20820382.1784   20820388.0734
      1263.510         984.553
 97  4 24 17 40 29.9940000  0  6 27 15  2 19  7 26                  -0.005788626
  -7835562.289 9  -6094299.62248  19271277.370    19271278.6974   19271284.9784
      -994.273        -774.758
 -17906236.630 9 -13668750.53246  21879484.479    21879485.7794   21879493.2574
       535.974         417.642
 -13793583.673 9 -10552169.12948  19352458.005    19352459.1574   19352465.0704
       852.512         664.295
   9361590.476 9   7294522.45246  22748373.917    22748375.4444   22748383.6064
     -2219.532       -1729.505
 -30902652.210 9 -23717322.24448  18614090.507    18614091.8674   18614098.2944
      2062.377        1607.047
 -23016190.707 9 -17912644.49748  20813214.161    20813215.9614   20813221.9044
      1246.973         971.667
 97  4 24 17 40 59.9940000  0  6 27 15  2 19  7 26                  -0.005810669
  -7805519.595 9  -6070889.75348  19276994.360    19276995.6724   19277001.9604
     -1008.514        -785.855
 -17922032.802 9 -13681059.25446  21876478.603    21876479.8244   21876487.3394
       517.059         402.903
 -13819098.225 9 -10572050.61048  19347602.665    19347603.8174   19347609.8154
       848.324         661.032
   9428229.980 9   7346449.26246  22761055.041    22761056.6024   22761064.7844
     -2223.215       -1732.375
 -30964294.277 9 -23765355.01248  18602360.373    18602361.7164   18602368.1994
      2047.087        1595.133
 -23053331.688 9 -17941585.53348  20806146.479    20806148.3054   20806154.2144
      1229.080         957.725
 97  4 24 17 41 29.9940000  0  6 27 15  2 19  7 26                  -0.005832704
  -7775049.392 9  -6047146.76748  19282792.675    19282793.9824   19282800.2784
     -1021.610        -796.060
 -17937252.067 9 -13692918.44646  21873582.763    21873583.7754   21873591.2424
       498.755         388.640
 -13844464.909 9 -10591816.86848  19342775.496    19342776.6614   19342782.7244
       843.962         657.633
   9494985.661 9   7398466.58046  22773758.205    22773759.8514   22773768.0774
     -2226.030       -1734.569
 -31025470.488 9 -23813024.78248  18590718.904    18590720.2564   18590726.7144
      2032.543        1583.800
 -23089927.074 9 -17970101.43148  20799182.670    20799184.4894   20799190.3614
      1211.862         944.308
 97  4 24 17 41 59.9940000  0  6 27 15  2 19  7 26                  -0.005854721
  -7744133.657 9  -6023056.61048  19288675.732    19288677.0374   19288683.3754
     -1037.286        -808.275
 -17951866.826 9 -13704306.59546  21870801.681    21870802.7174   21870810.0974
       477.768         372.287
 -13869638.898 9 -10611432.97448  19337985.138    19337986.2244   19337992.3134
       836.539         651.849
   9561883.690 8   7450594.82646  22786488.284    22786490.0974   22786498.4864
     -2231.778       -1739.048
 -31086150.901 9 -23860308.22048  18579171.885    18579173.2154   18579179.6014
      2014.923        1570.070
 -23125945.731 9 -17998167.93848  20792328.603    20792330.3784   20792336.2554
      1191.782         928.661
 97  4 24 17 42 29.9940000  0  6 27 15  2 19  7 26                  -0.005876620
  -7712811.152 9  -5998649.48848  19294636.196    19294637.5164   19294643.8584
     -1052.108        -819.824
 -17965914.597 9 -13715252.92946  21868128.449    21868129.5514   21868136.9604
       457.530         356.517
 -13894652.238 9 -10630923.89748  19333225.344    19333226.4064   19333232.4794
       829.691         646.512
   9628906.863 9   7502820.57946  22799242.434    22799244.2324   22799252.6984
     -2237.770       -1743.717
 -31146358.056 9 -23907222.87848  18567714.894    18567716.1694   18567722.5884
      1997.770        1556.704
 -23161432.338 9 -18025819.85048  20785575.752    20785577.5354   20785583.3714
      1172.795         913.866
 97  4 24 17 42 59.9940000  0  6 27 15  2 19  7 26                  -0.005898606
  -7681049.901 9  -5973900.49348  19300680.151    19300681.5324   19300687.8524
     -1066.424        -830.980
 -17979367.666 9 -13725735.86646  21865568.425    21865569.4884   21865576.9684
       438.250         341.494
 -13919463.502 9 -10650257.36048  19328504.110    19328505.0844   19328511.1114
       823.291         641.525
   9696105.917 9   7555183.38846  22812030.059    22812031.8684   22812040.2564
     -2243.161       -1747.918
 -31206071.587 9 -23953752.89248  18556351.799    18556353.0604   18556359.4994
      1981.948        1544.375
 -23196365.472 9 -18053040.48848  20778928.204    20778929.9984   20778935.8034
      1155.047         900.037
 97  4 24 17 43 29.9940000  0  7  4 27 15  2 19  7 26               -0.005920618
   -341795.20018   -241091.23954  23252930.644           0.0005          0.0005
      4535.810        3534.397
  -7648864.251 9  -5948820.79448  19306804.879    19306806.2874   19306812.6234
     -1079.340        -841.044
 -17992249.908 9 -13735774.00546  21863117.026    21863118.0694   21863125.6134
       420.674         327.798
 -13944088.127 9 -10669445.39348  19323818.322    19323819.2814   19323825.2454
       818.590         637.862
   9763460.389 9   7607667.30746  22824847.203    22824849.0904   22824857.3384
     -2246.906       -1750.836
 -31265310.238 9 -23999912.87748  18545079.075    18545080.3694   18545086.7664
      1967.380        1533.023
 -23230769.581 9 -18079848.90548  20772381.248    20772383.0674   20772388.9284
      1138.614         887.232
 97  4 24 17 43 59.9940000  0  7  4 27 15  2 19  7 26               -0.005942639
   -477916.899 8    -22250.59152  23227028.316           0.0005          0.0005
      4538.901        3536.806
  -7616245.844 9  -5923403.88448  19313011.964    19313013.3444   19313019.7214
     -1095.384        -853.546
 -18004567.655 9 -13745372.27746  21860773.160    21860774.1344   21860781.6804
       400.350         311.961
 -13968540.554 9 -10688499.24248  19319165.185    19319166.2064   19319172.1264
       811.425         632.279
   9830966.875 8   7660269.66246  22837693.337    22837695.1934   22837703.4604
     -2253.631       -1756.076
 -31324075.758 9 -24045704.18548  18533896.366    18533897.6364   18533904.0354
      1950.184        1519.624
 -23264640.557 9 -18106241.89148  20765935.754    20765937.6294   20765943.5194
      1119.464         872.310
 97  4 24 17 44 29.9940000  0  7  4 27 15  2 19  7 26               -0.005964678
   -614189.419 8   -128436.53455  23201096.019           0.0004          0.0005
      4545.457        3541.915
  -7583195.736 9  -5897650.58548  19319301.104    19319302.6144   19319308.9924
     -1108.356        -863.654
 -18016322.694 9 -13754532.07447  21858536.292    21858537.3194   21858544.7404
       382.928         298.385
 -13992821.638 9 -10707419.58648  19314544.584    19314545.6534   19314551.5824
       806.889         628.745
   9898626.428 9   7712991.30446  22850568.791    22850570.4834   22850578.7134
     -2257.446       -1759.049
 -31382376.826 9 -24091133.58448  18522801.939    18522803.2534   18522809.6974
      1936.230        1508.751
 -23297997.040 9 -18132233.97748  20759588.236    20759590.1504   20759596.0054
      1103.888         860.172
 97  4 24 17 44 59.9940000  0  7  4 27 15  2 19  7 26               -0.005986735
   -750609.314 8   -234737.63055  23175135.864           0.0004          0.0005
      4550.034        3545.481
  -7549709.787 9  -5871557.66748  19325673.339    19325674.8134   19325681.2074
     -1123.166        -875.194
 -18027508.345 9 -13763248.18646  21856407.792    21856408.8014   21856416.2334
       363.538         283.276
 -14016925.762 9 -10726202.02748  19309957.633    19309958.7554   19309964.7244
       800.933         624.104
   9966436.922 9   7765830.54946  22863472.884    22863474.5654   22863482.7174
     -2262.342       -1762.864
 -31440213.062 9 -24136200.77548  18511796.076    18511797.3984   18511803.8254
      1920.097        1496.179
 -23330844.712 9 -18157829.58248  20753337.568    20753339.4764   20753345.2594
      1086.562         846.672
 97  4 24 17 45 29.9940000  0  7  4 27 15  2 19  7 26               -0.006008815
   -887208.723 8   -341178.72355  23149141.260           0.0005   23149149.7855
      4554.517        3548.974
  -7515817.311 9  -5845147.97048  19332122.868    19332124.3194   19332130.7714
     -1138.150        -886.870
 -18038145.819 9 -13771537.14446  21854383.577    21854384.5594   21854391.9844
       343.804         267.899
 -14040892.515 9 -10744877.43248  19305396.747    19305397.9614   19305403.9724
       795.068         619.534
  10034358.777 9   7818756.58246  22876398.235    22876399.8164   22876407.9834
     -2267.453       -1766.846
 -31497595.387 9 -24180914.27148  18500876.570    18500877.8624   18500884.2964
      1903.700        1483.403
 -23363194.315 9 -18183037.07948  20747181.727    20747183.5774   20747189.3544
      1068.308         832.448
 97  4 24 17 45 59.9930000  0  7  4 27 15  2 19  7 26               -0.006030889
  -1023941.343 8   -447723.53155  23123121.625    23123122.8495   23123130.9755
      4561.170        3554.158
  -7481492.662 9  -5818401.52048  19338654.647    19338656.0774   19338662.5534
     -1150.179        -896.243
 -18048206.916 9 -13779376.97346  21852469.054    21852470.0184   21852477.4224
       326.978         254.788
 -14064697.303 9 -10763426.62948  19300866.773    19300868.0194   19300874.0614
       792.045         617.178
  10102410.670 9   7871783.93746  22889348.228    22889349.8384   22889357.9634
     -2269.385       -1768.352
 -31554507.468 9 -24225261.34148  18490046.517    18490047.7954   18490054.2314
      1890.494        1473.112
 -23395018.229 9 -18207834.95648  20741125.922    20741127.7244   20741133.4964
      1053.460         820.878
 97  4 24 17 46 29.9930000  0  7  4 27 15  2 19  7 26               -0.006052980
  -1160816.287 8   -554379.24345  23097074.790    23097076.0995   23097084.3414
      4564.799        3556.986
  -7446751.628 9  -5791330.61148  19345265.714    19345267.0934   19345273.5854
     -1164.697        -907.556
 -18057708.286 9 -13786780.63946  21850660.847    21850661.9104   21850669.3934
       307.646         239.724
 -14088360.283 9 -10781865.32648  19296363.863    19296365.0694   19296371.1644
       786.769         613.067
  10170579.224 9   7924902.19746  22902320.371    22902321.9594   22902330.1264
     -2273.952       -1771.911
 -31610961.451 9 -24269251.45748  18479303.734    18479304.9984   18479311.3984
      1874.198        1460.414
 -23426343.045 9 -18232243.92248  20735165.044    20735166.8374   20735172.6244
      1035.862         807.165
 97  4 24 17 46 59.9930000  0  8  4 27 15  9  2 19  7 26            -0.006075053
  -1297787.407 8   -661109.89445  23071009.824    23071011.6524   23071019.7494
      4567.641        3559.201
  -7411566.742 9  -5763913.84548  19351961.232    19351962.5914   19351969.0774
     -1180.176        -919.618
 -18066626.280 9 -13793729.71846  21848963.620    21848964.8554   21848972.3424
       287.743         224.215
   -569695.83118   -429698.31655  23313794.144    23313798.3305   23313807.0525
      4512.447        3516.192
 -14111868.233 9 -10800183.22048  19291890.503    19291891.6674   19291897.7614
       781.258         608.772
  10238886.401 9   7978128.47546  22915318.789    22915320.4694   22915328.6344
     -2278.905       -1775.770
 -31666914.530 9 -24312851.25648  18468656.292    18468657.5134   18468663.9144
      1856.890        1446.927
 -23457118.657 9 -18256224.93648  20729308.640    20729310.4534   20729316.2394
      1016.655         792.199
 97  4 24 17 47 29.9930000  0  8  4 27 15  9  2 19  7 26            -0.006097097
  -1434873.035 8   -767929.77845  23044923.177    23044924.7354   23044933.1254
      4570.374        3561.330
  -7375937.112 9  -5736150.52348  19358741.393    19358742.7184   19358749.1954
     -1195.947        -931.907
 -18074969.289 9 -13800230.75946  21847376.001    21847377.2424   21847384.7364
       267.649         208.558
   -705078.540 8   -535191.29555  23288034.012    23288036.5204   23288044.8115
      4512.100        3515.922
 -14135227.293 9 -10818385.09448  19287445.511    19287446.6264   19287452.6964
       775.071         603.951
  10307319.587 9   8031452.93546  22928341.338    22928342.8194   22928351.1204
     -2284.194       -1779.891
 -31722376.337 9 -24356068.24048  18458102.191    18458103.4574   18458109.8844
      1839.879        1433.672
 -23487334.495 9 -18279769.75948  20723558.770    20723560.5294   20723566.3414
       997.204         777.042
 97  4 24 17 47 59.9930000  0  8  4 27 15  9  2 19  7 26            -0.006119123
  -1572051.607 8   -874822.08445  23018818.757    23018820.5054   23018828.8734
      4575.369        3565.223
  -7339854.271 9  -5708034.05048  19365607.749    19365609.0804   19365615.5504
     -1209.064        -942.128
 -18082725.841 9 -13806274.81846  21845900.120    21845901.2724   21845908.7654
       249.857         194.694
   -840445.796 9   -640672.24545  23262275.146    23262277.5665   23262285.1294
      4512.743        3516.423
 -14158410.777 9 -10836450.16048  19283033.987    19283035.0204   19283041.0244
       770.974         600.759
  10375895.569 9   8084888.67146  22941390.926    22941392.4984   22941400.8024
     -2287.121       -1782.172
 -31777337.264 9 -24398894.93848  18447643.509    18447644.7354   18447651.1234
      1824.526        1421.708
 -23516997.350 9 -18302883.68748  20717914.101    20717915.8554   20717921.6974
       980.648         764.141
 97  4 24 17 48 29.9930000  0  8  4 27 15  9  2 19  7 26            -0.006141153
  -1709349.687 8   -981807.50345  22992691.854    22992693.5104   22992701.9814
      4578.416        3567.597
  -7303345.664 9  -5679585.81548  19372555.168    19372556.4714   19372562.9434
     -1224.229        -953.945
 -18089906.378 9 -13811870.02446  21844533.905    21844534.8644   21844542.4224
       229.480         178.816
   -975786.169 9   -746132.24545  23236521.241    23236523.3484   23236530.7094
      4510.507        3514.681
 -14181430.360 9 -10854387.50848  19278653.660    19278654.6324   19278660.5694
       764.293         595.553
  10444606.065 9   8138429.22346  22954466.154    22954467.7034   22954476.1064
     -2292.732       -1786.544
 -31831793.516 9 -24441328.37848  18437280.930    18437282.1164   18437288.4504
      1806.578        1407.723
 -23546117.257 9 -18325574.54148  20712372.831    20712374.5264   20712380.4024
       961.268         749.040
 97  4 24 17 48 59.9930000  0  8  4 27 15  9  2 19  7 26            -0.006163184
  -1846764.698 8  -1088884.01945  22966542.783    22966544.3324   22966552.6794
      4582.853        3571.054
  -7266415.400 9  -5650809.01348  19379582.783    19379584.0654   19379590.5614
     -1237.504        -964.289
 -18096507.845 9 -13817014.02346  21843277.859    21843278.6694   21843286.2454
       210.855         164.303
  -1111081.111 8   -851556.85245  23210775.731    23210777.5764   23210784.9294
      4509.346        3513.776
 -14204276.134 9 -10872189.42348  19274306.310    19274307.3024   19274313.1674
       758.945         591.386
  10513442.570 8   8192067.96646  22967565.359    22967567.0104   22967575.4224
     -2296.008       -1789.097
 -31885751.947 9 -24483373.90648  18427012.928    18427014.1604   18427020.5304
      1791.080        1395.647
 -23574687.797 9 -18347837.31548  20706936.080    20706937.7734   20706943.6524
       943.896         735.503
 97  4 24 17 49 29.9930000  0  8  4 27 15  9  2 19  7 26            -0.006185237
  -1984298.424 8  -1196053.05646  22940370.899    22940372.5224   22940380.6564
      4586.720        3574.068
  -7229090.221 9  -5621724.48748  19386685.482    19386686.8414   19386693.3364
     -1250.000        -974.026
 -18102543.955 9 -13821717.47146  21842129.340    21842130.0824   21842137.5514
       192.370         149.899
  -1246334.984 9   -956949.44145  23185038.020    23185039.6324   23185046.8854
      4508.546        3513.153
 -14226949.668 9 -10889857.12648  19269991.755    19269992.7264   19269998.5774
       753.466         587.116
  10582388.953 8   8245792.31346  22980685.443    22980687.1244   22980695.5864
     -2299.605       -1791.900
 -31939252.524 9 -24525062.66148  18416832.069    18416833.3344   18416839.7124
      1776.402        1384.209
 -23602745.656 9 -18369700.60048  20701596.882    20701598.5804   20701604.4344
       927.604         722.808
 97  4 24 17 49 59.9930000  0  8  4 27 15  9  2 19  7 26            -0.006207316
  -2121917.687 8  -1303288.74246  22914182.834    22914184.3714   22914192.4674
      4588.281        3575.284
  -7191365.772 9  -5592328.83848  19393864.210    19393865.5864   19393872.0514
     -1264.757        -985.525
 -18108004.572 9 -13825972.49146  21841090.242    21841090.9884   21841098.3894
       172.026         134.046
  -1381555.964 9  -1062316.40446  23159306.329    23159307.9374   23159315.2964
      4506.610        3511.644
 -14249439.973 9 -10907382.05548  19265711.988    19265712.9474   19265718.8294
       746.346         581.568
  10651453.851 8   8299609.00246  22993828.114    22993829.8244   22993838.1904
     -2304.385       -1795.625
 -31992289.087 9 -24566389.85248  18406739.621    18406740.8544   18406747.1934
      1759.796        1371.270
 -23630297.898 9 -18391169.89548  20696353.901    20696355.5864   20696361.4334
       909.396         708.620
 97  4 24 17 50 29.9930000  0  8  4 27 15  9  2 19  7 26            -0.006229389
  -2259610.172 8  -1410581.48146  22887980.715    22887982.3404   22887990.3624
      4589.899        3576.545
  -7153218.644 9  -5562603.83048  19401123.451    19401124.7914   19401131.2424
     -1279.786        -997.236
 -18112887.641 9 -13829777.48146  21840160.987    21840161.7584   21840169.1254
       152.236         118.625
  -1516754.771 9  -1167666.10046  23133578.832    23133580.4014   23133587.7834
      4505.426        3510.722
 -14271750.985 9 -10924767.27048  19261466.222    19261467.2554   19261473.2334
       739.808         576.474
  10720628.782 8   8353511.43346  23006991.761    23006993.5124   23007001.8194
     -2308.493       -1798.826
 -32044871.089 9 -24607362.84148  18396733.614    18396734.8444   18396741.1584
      1744.460        1359.319
 -23657328.170 9 -18412232.46048  20691210.190    20691211.9004   20691217.7434
       891.463         694.646
 97  4 24 17 50 59.9930000  0  8  4 27 15  9  2 19  7 26            -0.006251448
  -2397379.268 8  -1517933.93646  22861764.007    22861765.7844   22861773.6874
      4593.704        3579.510
  -7114641.794 9  -5532543.97548  19408464.467    19408465.7404   19408472.2044
     -1293.100       -1007.610
 -18117214.735 9 -13833149.23646  21839337.346    21839338.2764   21839345.6654
       135.027         105.216
  -1651948.955 9  -1273012.18446  23107852.282    23107853.8234   23107861.0804
      4506.436        3511.509
 -14293909.221 9 -10942033.43848  19257249.531    19257250.6214   19257256.6594
       736.072         573.562
  10789886.135 8   8407478.09146  23020171.055    23020172.8504   23020181.2474
     -2309.874       -1799.902
 -32097032.824 9 -24648008.34148  18386807.552    18386808.7644   18386815.1304
      1731.864        1349.504
 -23683860.251 9 -18432906.83248  20686161.400    20686163.0154   20686168.8934
       876.260         682.800
 97  4 24 17 51 29.9930000  0  8  4 27 15  9  2 19  7 26            -0.006273481
  -2535217.098 9  -1625339.94646  22835534.131    22835535.9804   22835543.9304
      4594.657        3580.252
  -7075618.139 9  -5502135.96348  19415890.337    19415891.6884   19415898.1994
     -1309.461       -1020.359
 -18120975.966 9 -13836080.06946  21838621.544    21838622.4584   21838629.9474
       114.806          89.459
  -1787127.002 9  -1378345.70546  23082128.851    23082130.2344   23082137.4274
      4504.654        3510.120
 -14315909.784 9 -10959176.74548  19253062.833    19253064.0034   19253070.1234
       729.709         568.604
  10859237.293 8   8461517.83345  23033368.206    23033370.0234   23033378.3714
     -2314.380       -1803.413
 -32148765.060 9 -24688319.17248  18376963.282    18376964.4894   18376970.8224
      1715.792        1336.981
 -23709888.769 9 -18453188.81248  20681208.407    20681209.9864   20681215.8344
       857.914         668.504
 97  4 24 17 51 59.9930000  0  8  4 27 15  9  2 19  7 26            -0.006295481
  -2673135.771 9  -1732808.95246  22809288.856    22809290.7434   22809298.7394
      4599.498        3584.024
  -7036136.779 9  -5471371.29948  19423403.441    19423404.7694   19423411.2914
     -1322.794       -1030.749
 -18124174.551 9 -13838572.47846  21838012.782    21838013.8084   21838021.3254
        98.143          76.475
  -1922293.211 9  -1483669.99646  23056407.853    23056408.9034   23056416.0664
      4506.012        3511.178
 -14337766.981 9 -10976208.34148  19248903.439    19248904.6814   19248910.8444
       727.136         566.599
  10928667.846 8   8515619.45645  23046580.525    23046582.2004   23046590.6284
     -2314.659       -1803.630
 -32200043.544 9 -24728276.43648  18367205.368    18367206.5164   18367212.8274
      1702.487        1326.613
 -23735397.302 9 -18473065.61148  20676354.296    20676355.8944   20676361.7024
       842.271         656.315
 97  4 24 17 52 29.9930000  0  8  4 27 15  9  2 19  7 26            -0.006317448
  -2811143.237 9  -1840347.14746  22783026.884    22783028.6004   22783036.6674
      4601.032        3585.220
  -6996210.417 9  -5440259.88048  19431001.202    19431002.5504   19431009.0394
     -1338.634       -1043.091
 -18126815.448 9 -13840630.34046  21837510.261    21837511.2314   21837518.7904
        77.992          60.773
  -2057442.460 9  -1588981.07646  23030689.730    23030690.8424   23030698.0154
      4504.037        3509.639
 -14359487.562 9 -10993133.47848  19244770.142    19244771.3674   19244777.5404
       720.826         561.683
  10998179.257 8   8569784.07945  23059808.240    23059809.9504   23059818.2084
     -2319.303       -1807.249
 -32250866.409 9 -24767878.66248  18357533.939    18357535.2034   18357541.5754
      1685.593        1313.449
 -23760380.227 9 -18492532.84348  20671600.126    20671601.7844   20671607.6114
       823.431         641.635
 97  4 24 17 52 59.9930000  0  8  4 27 15  9  2 19  7 26            -0.006339406
  -2949223.334 9  -1947941.91346  22756751.174    22756752.8234   22756760.7934
      4605.409        3588.630
  -6955850.430 9  -5408810.57148  19438681.522    19438682.8394   19438689.2854
     -1350.703       -1052.496
 -18128879.736 9 -13842238.90246  21837117.409    21837118.3404   21837125.9794
        60.710          47.306
  -2192555.492 9  -1694263.93746  23004978.730    23004979.6924   23004986.7434
      4504.702        3510.157
 -14381039.788 9 -11009927.43948  19240668.889    19240670.1294   19240676.2744
       716.897         558.621
  11067802.590 8   8624035.90845  23073056.995    23073058.9074   23073067.1874
     -2321.142       -1808.682
 -32301198.116 9 -24807098.17648  18347956.153    18347957.4184   18347963.7874
      1671.047        1302.115
 -23784827.377 9 -18511582.59148  20666948.005    20666949.6444   20666955.5294
       807.554         629.263
 97  4 24 17 53 29.9930000  0  8  4 27 15  9  2 19  7 26            -0.006361399
  -3087414.571 9  -2055623.27646  22730454.088    22730455.8054   22730463.7784
      4607.303        3590.106
  -6915123.294 9  -5377075.17148  19446431.665    19446432.9694   19446439.4144
     -1364.560       -1063.293
 -18130407.389 9 -13843429.29846  21836826.671    21836827.6174   21836835.2924
        41.048          31.985
  -2327680.845 9  -1799556.38846  22979265.243    22979266.0724   22979273.1464
      4503.648        3509.336
 -14402449.627 9 -11026610.44448  19236594.846    19236596.0214   19236602.1234
       710.364         553.530
  11137509.349 8   8678352.74145  23086321.958    23086323.8134   23086332.1424
     -2325.971       -1812.445
 -32351070.256 9 -24845959.58948  18338465.890    18338467.0824   18338473.4054
      1653.645        1288.554
 -23808778.034 9 -18530245.45748  20662390.266    20662391.9944   20662397.9244
       789.130         614.906
 97  4 24 17 53 59.9930000  0  8  4 27 15  9  2 19  7 26            -0.006383423
  -3225694.578 9  -2163373.83446  22704140.450    22704141.9614   22704149.7944
      4610.331        3592.466
  -6874015.660 9  -5345043.28248  19454254.163    19454255.5324   19454261.9714
     -1376.721       -1072.770
 -18131380.122 9 -13844187.29546  21836641.652    21836642.5404   21836650.1744
        22.803          17.768
  -2462810.111 9  -1904851.89046  22953550.849    22953551.9264   22953558.9024
      4503.944        3509.567
 -14423690.241 9 -11043161.58848  19232552.944    19232554.0894   19232560.1424
       704.740         549.148
  11207329.993 8   8732758.32045  23099608.684    23099610.1014   23099618.5304
     -2329.729       -1815.373
 -32400455.804 9 -24884441.82948  18329068.093    18329069.3124   18329075.6434
      1637.960        1276.332
 -23832212.128 9 -18548505.81048  20657930.968    20657932.6244   20657938.5824
       772.306         601.797
 97  4 24 17 54 29.9930000  0  8  4 27 15  9  2 19  7 26            -0.006405476
  -3364043.732 9  -2271178.27346  22677813.159    22677814.9924   22677822.8134
      4613.098        3594.622
  -6832525.835 9  -5312713.58248  19462149.433    19462150.7884   19462157.2664
     -1389.325       -1082.591
 -18131779.429 9 -13844498.47046  21836565.628    21836566.6334   21836574.1304
         3.884           3.026
  -2597916.541 9  -2010129.60046  22927840.962    22927841.9694   22927848.9374
      4503.111        3508.918
 -14444728.932 9 -11059555.39048  19228549.536    19228550.5954   19228556.5954
       698.000         543.896
  11277293.873 8   8787275.50745  23112922.553    23112923.8684   23112932.3754
     -2334.405       -1819.017
 -32449351.699 9 -24922542.52248  18319763.547    18319764.7444   18319771.0804
      1621.739        1263.693
 -23855123.286 9 -18566358.67948  20653571.113    20653572.8034   20653578.7294
       755.180         588.452
 97  4 24 17 54 59.9930000  0  8  4 27 15  9  2 19  7 26            -0.006427564
  -3502488.309 9  -2379057.08446  22651467.739    22651469.8124   22651477.5934
      4617.218        3597.832
  -6790670.083 9  -5280098.73748  19470114.314    19470115.7084   19470122.1884
     -1400.544       -1091.333
 -18131630.985 9 -13844382.83146  21836594.047    21836595.0164   21836602.4164
       -13.160         -10.255
  -2733009.848 9  -2115397.07346  22902133.570    22902134.5434   22902141.5654
      4503.795        3509.451
 -14465590.776 9 -11075811.38748  19224579.748    19224580.7464   19224586.6914
       693.568         540.442
  11347371.807 8   8841881.57845  23126257.840    23126259.3844   23126267.8794
     -2336.652       -1820.768
 -32497779.622 9 -24960278.56748  18310548.123    18310549.2844   18310555.5814
      1607.560        1252.644
 -23877539.864 9 -18583826.16348  20649305.450    20649307.1004   20649313.0304
       739.963         576.595
 97  4 24 17 55 29.9930000  0  8  4 27 15  9  2 19  7 26            -0.006449657
  -3641042.169 9  -2487021.04746  22625101.731    22625103.8054   22625111.5564
      4620.560        3600.436
  -6748448.844 9  -5247199.10648  19478148.858    19478150.1744   19478156.6404
     -1413.472       -1101.407
 -18130951.971 9 -13843853.77146  21836723.405    21836724.2624   21836731.6494
       -31.244         -24.346
  -2868103.810 9  -2220665.08046  22876425.919    22876426.9744   22876433.9884
      4503.316        3509.077
 -14486303.913 9 -11091951.51248  19220638.303    19220639.2314   19220645.1434
       688.327         536.359
  11417532.148 8   8896551.86145  23139608.884    23139610.5284   23139619.0594
     -2339.592       -1823.059
 -32545762.949 9 -24997668.17148  18301417.219    18301418.3234   18301424.6334
      1592.196        1240.672
 -23899475.782 9 -18600919.10948  20645131.108    20645132.8084   20645138.7514
       723.347         563.647
 97  4 24 17 55 59.9930000  0  7  4 27 15  9  2  7 26               -0.006471737
  -3779645.686 9  -2595023.70646  22598726.405    22598728.3354   22598736.2344
      4619.982        3599.986
  -6705784.452 9  -5213954.14948  19486267.659    19486268.9674   19486275.4094
     -1430.490       -1114.668
 -18129683.558 9 -13842865.42246  21836964.786    21836965.6464   21836973.0834
       -53.018         -41.313
  -3003127.143 9  -2325878.02846  22850731.769    22850732.8824   22850739.9534
      4498.604        3505.406
 -14506815.933 9 -11107934.91948  19216735.112    19216735.9704   19216741.8504
       679.529         529.503
 -32593240.578 9 -25034663.72148  18292382.437    18292383.5834   18292389.8924
      1573.354        1225.990
 -23920868.117 9 -18617588.48348  20641060.267    20641062.0104   20641067.9794
       702.966         547.766
 97  4 24 17 56 29.9930000  0  7  4 27 15  9  2  7 26               -0.006493811
  -3918315.524 9  -2703078.03846  22572338.272    22572340.2354   22572348.2064
      4622.586        3602.015
  -6662692.872 9  -5180376.32748  19494467.697    19494469.0394   19494475.4874
     -1444.470       -1125.561
 -18127850.087 9 -13841436.76946  21837313.597    21837314.5854   21837322.0104
       -71.313         -55.569
  -3138096.304 9  -2431048.77046  22825048.045    22825049.0454   22825056.2224
      4497.490        3504.538
 -14527158.189 9 -11123786.04648  19212864.123    19212865.0194   19212870.8644
       674.628         525.684
 -32640240.701 9 -25071287.20048  18283438.682    18283439.8084   18283446.0594
      1557.801        1213.871
 -23941731.009 9 -18633845.29948  20637090.343    20637091.9984   20637097.9454
       685.754         534.354
 97  4 24 17 56 59.9930000  0  7  4 27 15  9  2  7 26               -0.006515868
  -4057030.908 9  -2811167.87146  22545941.481    22545943.4594   22545951.5754
      4623.585        3602.794
  -6619149.807 9  -5146446.69948  19502753.646    19502754.9944   19502761.4744
     -1459.810       -1137.514
 -18125442.860 9 -13839561.03146  21837771.525    21837772.6524   21837780.0524
       -90.642         -70.630
  -3273022.422 9  -2536185.96846  22799372.331    22799373.3884   22799380.5944
      4496.172        3503.511
 -14547338.946 9 -11139511.32748  19209023.860    19209024.7584   19209030.5664
       669.222         521.472
 -32686749.339 9 -25107527.69448  18274588.283    18274589.4724   18274595.7674
      1541.458        1201.136
 -23962049.892 9 -18649678.22048  20633223.818    20633225.4774   20633231.4044
       667.317         519.987
 97  4 24 17 57 29.9930000  0  7  4 27 15  9  2  7 26               -0.006537917
  -4195815.422 9  -2919311.58346  22519531.609    22519533.4794   22519541.7474
      4627.386        3605.755
  -6575186.001 9  -5112189.22148  19511119.757    19511121.0774   19511127.5474
     -1472.467       -1147.377
 -18122493.986 9 -13837263.22346  21838332.661    21838333.7024   21838341.1854
      -107.272         -83.589
  -3407952.903 9  -2641326.57046  22773695.959    22773697.0374   22773704.1334
      4497.759        3504.747
 -14567391.816 9 -11155136.96248  19205207.888    19205208.8354   19205214.6154
       666.281         519.180
 -32732811.905 9 -25143420.60948  18265822.799    18265824.0274   18265830.3614
      1528.064        1190.699
 -23981846.196 9 -18665103.93648  20629456.711    20629458.3704   20629464.3104
       651.209         507.436
 97  4 24 17 57 59.9930000  0  7  4 27 15  9  2  7 26               -0.006559932
  -4334634.589 9  -3027482.28746  22493115.015    22493117.1114   22493125.3304
      4626.900        3605.377
  -6530770.723 9  -5077579.94448  19519571.801    19519573.0704   19519579.5114
     -1488.553       -1159.911
 -18118969.581 9 -13834516.95646  21839003.601    21839004.3874   21839011.8434
      -127.895         -99.658
  -3542854.119 9  -2746444.36846  22748025.175    22748026.1594   22748033.2954
      4495.443        3502.943
 -14587271.910 9 -11170627.95648  19201424.898    19201425.8174   19201431.5714
       658.874         513.408
 -32778402.139 9 -25178945.47048  18257147.404    18257148.5574   18257154.8254
      1511.136        1177.509
 -24001085.516 9 -18680095.63548  20625795.666    20625797.2664   20625803.1914
       631.254         491.886
 97  4 24 17 58 29.9930000  0  7  4 27 15  9  2  7 26               -0.006581917
  -4473485.353 9  -3135677.60946  22466692.549    22466694.5994   22466702.7854
      4628.809        3606.864
  -6485935.285 9  -5042643.27648  19528103.856    19528104.9934   19528111.4074
     -1501.384       -1169.910
 -18114873.603 9 -13831325.31146  21839783.041    21839783.9484   21839791.3194
      -146.160        -113.891
  -3677732.982 9  -2851544.74846  22722358.644    22722359.5664   22722366.6194
      4495.482        3502.973
 -14606976.023 9 -11185981.82748  19197675.353    19197676.2624   19197682.0314
       653.722         509.394
 -32823533.666 9 -25214112.89548  18248559.148    18248560.2684   18248566.5154
      1496.637        1166.211
 -24019778.356 9 -18694661.49948  20622238.583    20622240.1594   20622246.0464
       614.175         478.578
 97  4 24 17 58 59.9930000  0  7  4 27 15  9  2  7 26               -0.006603902
  -4612397.182 9  -3243920.51646  22440258.600    22440260.4844   22440268.7604
      4632.067        3609.403
  -6440729.763 9  -5007418.23048  19536706.192    19536707.3624   19536713.7744
     -1512.184       -1178.325
 -18110239.670 9 -13827714.47646  21840665.149    21840665.7964   21840673.1704
      -162.690        -126.771
  -3812618.041 9  -2956649.94846  22696690.872    22696691.7704   22696698.8024
      4496.612        3503.854
 -14626531.764 9 -11201220.08248  19193954.051    19193954.9664   19193960.7484
       649.922         506.433
 -32868239.797 9 -25248948.84248  18240051.853    18240052.9374   18240059.2084
      1483.884        1156.273
 -24037979.569 9 -18708844.29048  20618775.044    20618776.5874   20618782.4964
       599.307         466.992
 97  4 24 17 59 29.9930000  0  7  4 27 15  9  2  7 26               -0.006625882
  -4751353.056 9  -3352197.74946  22413816.130    22413818.0694   22413826.3324
      4632.039        3609.381
  -6395142.294 9  -4971895.56048  19545381.244    19545382.4134   19545388.7864
     -1526.445       -1189.438
 -18105050.117 9 -13823670.69046  21841652.617    21841653.3454   21841660.8044
      -182.757        -142.408
  -3947457.640 9  -3061719.72846  22671031.583    22671032.6484   22671039.6454
      4493.213        3501.205
 -14645901.384 9 -11216313.30448  19190268.126    19190269.0284   19190274.8634
       641.924         500.201
 -32912503.417 9 -25283439.97348  18231628.856    18231629.9434   18231636.1514
      1467.420        1143.444
 -24055680.733 9 -18722637.42748  20615406.603    20615408.1474   20615414.0794
       581.388         453.030
 97  4 24 17 59 59.9930000  0  7  4 27 15  9  2  7 26               -0.006647865
  -4890338.579 9  -3460498.10546  22387368.113    22387370.0104   22387378.1214
      4633.837        3610.782
  -6349174.207 9  -4936076.31248  19554128.806    19554129.9264   19554136.2924
     -1537.941       -1198.396
 -18099297.824 9 -13819188.40246  21842747.243    21842747.9604   21842755.4254
      -200.433        -156.181
  -4082230.896 9  -3166737.83146  22645385.115    22645386.1394   22645393.1454
      4491.827        3500.125
 -14665066.406 9 -11231247.10248  19186621.059    19186622.0284   19186627.9134
       636.112         495.672
 -32956302.801 9 -25317569.37048  18223294.122    18223295.2304   18223301.4444
      1452.751        1132.014
 -24072891.128 9 -18736048.15148  20612131.528    20612133.1394   20612139.0764
       566.178         441.178
 97  4 24 18  0 29.9930000  0  7  4 27 15  9  2  7 26               -0.006669886
  -5029367.257 9  -3568832.07046  22360911.820    22360913.7374   22360921.7064
      4635.105        3611.770
  -6302837.428 9  -4899969.76348  19562946.380    19562947.5324   19562953.9344
     -1551.041       -1208.603
 -18093002.071 9 -13814282.63746  21843945.173    21843945.9644   21843953.5614
      -218.927        -170.592
  -4216944.393 9  -3271709.35746  22619750.040    22619751.0764   22619757.9374
      4489.339        3498.186
 -14684052.549 9 -11246041.50848  19183008.042    19183009.0664   19183015.0004
       629.985         490.897
 -32999641.399 9 -25351339.69948  18215047.049    18215048.1494   18215054.3964
      1436.695        1119.503
 -24089631.232 9 -18749092.40548  20608945.941    20608947.5674   20608953.5594
       550.158         428.695
 97  4 24 18  0 59.9930000  0  7  4 27 15  9  2  7 26               -0.006691895
  -5168416.823 9  -3677182.31746  22334451.425    22334453.3934   22334461.3294
      4636.549        3612.895
  -6256079.945 9  -4863535.39548  19571844.005    19571845.2294   19571851.6374
     -1564.550       -1219.130
 -18086136.817 9 -13808933.11546  21845251.413    21845252.3504   21845260.0174
      -237.113        -184.763
  -4351557.935 9  -3376602.99646  22594133.793    22594134.9404   22594141.7604
      4486.573        3496.031
 -14702838.044 9 -11260679.57248  19179433.271    19179434.2744   19179440.2604
       623.970         486.210
 -33042479.041 9 -25384719.68348  18206895.235    18206896.3864   18206902.6194
      1420.782        1107.103
 -24105870.444 9 -18761746.36348  20605855.681    20605857.2894   20605863.3584
       533.975         416.084
 97  4 24 18  1 29.9930000  0  7  4 27 15  9  2  7 26               -0.006713902
  -5307505.418 9  -3785562.97746  22307983.885    22307985.6704   22307993.5674
      4637.674        3613.772
  -6208910.592 9  -4826780.09548  19580819.931    19580821.2434   19580827.7214
     -1578.194       -1229.762
 -18078723.701 9 -13803156.69346  21846662.113    21846663.0924   21846670.6394
      -255.412        -199.022
  -4486083.750 9  -3481428.26646  22568534.205    22568535.5834   22568542.4054
      4483.808        3493.876
 -14721436.600 9 -11275171.96548  19175893.983    19175895.0644   19175901.1014
       617.773         481.382
 -33084839.429 9 -25417727.77748  18198834.266    18198835.4454   18198841.6724
      1404.915        1094.739
 -24121611.420 9 -18774012.08648  20602860.307    20602861.9404   20602867.9874
       517.176         402.994
 97  4 24 18  1 59.9930000  0  7  4 27 15  9  2  7 26               -0.006735899
  -5446611.441 9  -3893957.19846  22281512.689    22281514.5884   22281522.4244
      4637.115        3613.336
  -6161326.132 9  -4789701.32848  19589874.920    19589876.2824   19589882.7914
     -1593.210       -1241.462
 -18070750.370 9 -13796943.73646  21848179.417    21848180.3994   21848187.9324
      -275.254        -214.484
  -4620525.996 9  -3586188.42846  22542950.626    22542952.0024   22542958.8434
      4479.764        3490.725
 -14739844.188 9 -11289515.55548  19172391.102    19172392.1714   19172398.2884
       610.493         475.709
 -33126708.968 9 -25450353.38648  18190866.701    18190867.9044   18190874.1514
      1387.363        1081.062
 -24136831.744 9 -18785872.09548  20599964.056    20599965.7234   20599971.7034
       498.380         388.348
 97  4 24 18  2 29.9930000  0  7  4 27 15  9  2  7 26               -0.006757904
  -5585770.862 9  -4002393.03346  22255031.512    22255033.4164   22255041.1394
      4638.728        3614.593
  -6113358.476 9  -4752323.97048  19599002.920    19599004.2254   19599010.7504
     -1605.848       -1251.310
 -18062248.907 9 -13790319.25346  21849797.134    21849798.2344   21849805.6634
      -292.845        -228.191
  -4754915.436 9  -3690907.44746  22517377.051    22517378.4404   22517385.3184
      4478.320        3489.600
 -14758114.232 9 -11303751.96648  19168914.367    19168915.4624   19168921.6594
       606.068         472.261
 -33168125.243 9 -25482625.80748  18182985.489    18182986.6804   18182992.9374
      1372.395        1069.399
 -24151552.865 9 -18797343.12248  20597162.744    20597164.4144   20597170.3804
       481.755         375.394
 97  4 24 18  2 59.9930000  0  7  4 27 15  9  2  7 26               -0.006779908
  -5724957.534 9  -4110850.11846  22228544.893    22228547.0014   22228554.7114
      4639.018        3614.819
  -6065008.899 9  -4714649.01548  19608203.673    19608204.9034   19608211.4024
     -1618.773       -1261.381
 -18053211.569 9 -13783277.19846  21851516.839    21851518.0374   21851525.4114
      -311.090        -242.408
  -4889260.927 9  -3795592.21646  22491811.893    22491813.3724   22491820.2684
      4476.698        3488.336
 -14776239.630 9 -11317875.67048  19165465.220    19165466.3164   19165472.5604
       600.868         468.209
 -33209090.436 9 -25514546.74048  18175190.071    18175191.3184   18175197.5484
      1357.275        1057.617
 -24165765.997 9 -18808418.31248  20594458.042    20594459.7414   20594465.7064
       464.467         361.922
 97  4 24 18  3 29.9930000  0  7  4 27 15  9  2  7 26               -0.006801898
  -5864143.011 9  -4219306.25646  22202058.583    22202060.5804   22202068.5084
      4639.017        3614.818
  -6016263.320 9  -4676665.48248  19617479.710    19617480.9154   19617487.4094
     -1631.867       -1271.585
 -18043612.879 9 -13775797.72746  21853343.450    21853344.6084   21853352.0074
      -329.867        -257.039
  -5023553.089 9  -3900235.42246  22466256.838    22466258.3524   22466265.3104
      4474.994        3487.008
 -14794194.497 9 -11331866.48748  19162048.496    19162049.6314   19162055.8954
       595.151         463.754
 -33249588.249 9 -25546103.47648  18167483.613    18167484.8694   18167491.0864
      1341.502        1045.326
 -24179450.250 9 -18819081.39448  20591854.045    20591855.7614   20591861.7304
       446.872         348.212
 97  4 24 18  3 59.9930000  0  7  4 27 15  9  2  7 26               -0.006823889
  -6003347.521 9  -4327777.23946  22175568.589    22175570.7764   22175578.6434
      4639.822        3615.446
  -5967140.266 9  -4638387.81648  19626827.431    19626828.7304   19626835.2464
     -1644.518       -1281.443
 -18033459.523 9 -13767886.05246  21855275.679    21855276.8064   21855284.1364
      -348.457        -271.525
  -5157806.560 9  -4004848.48946  22440709.282    22440710.6864   22440717.7254
      4473.576        3485.903
 -14811990.943 9 -11345733.86548  19158661.974    19158663.1034   19158669.3774
       589.872         459.641
 -33289620.874 9 -25577297.73148  18159865.649    18159866.8754   18159873.1144
      1325.881        1033.154
 -24192619.832 9 -18829343.43048  20589348.047    20589349.7484   20589355.7034
       429.698         334.830
 97  4 24 18  4 29.9930000  0  7  4 27 15  9  2  7 26               -0.006845884
  -6142580.833 9  -4436270.64946  22149073.324    22149075.4924   22149083.4044
      4640.828        3616.230
  -5917644.808 9  -4599819.96748  19636246.089    19636247.3924   19636253.9634
     -1656.616       -1290.870
 -18022757.550 9 -13759546.89346  21857312.411    21857313.3264   21857320.7004
      -366.475        -285.565
  -5292016.223 9  -4109427.42546  22415170.186    22415171.4394   22415178.4494
      4472.445        3485.022
 -14829628.898 9 -11359477.73848  19155305.596    19155306.7334   19155313.0454
       584.255         455.264
 -33329195.955 9 -25608135.45948  18152334.721    18152335.9734   18152342.1924
      1310.939        1021.511
 -24205287.889 9 -18839214.65948  20586937.401    20586939.1024   20586945.0834
       413.446         322.166
 97  4 24 18  4 59.9930000  0  7  4 27 15  9  2  7 26               -0.006867901
  -6281861.862 9  -4544801.25946  22122568.953    22122571.1344   22122579.0914
      4643.446        3618.270
  -5867800.946 9  -4560980.62948  19645731.114    19645732.4054   19645738.9594
     -1667.532       -1299.376
 -18011527.845 9 -13750796.51246  21859449.501    21859450.2854   21859457.7464
      -383.388        -298.744
  -5426201.434 9  -4213987.28846  22389635.744    22389636.7924   22389643.7884
      4471.808        3484.526
 -14847099.081 9 -11373090.88248  19151981.184    19151982.3244   19151988.6304
       579.199         451.324
 -33368332.690 9 -25638631.62248  18144887.288    18144888.5304   18144894.7304
      1297.041        1010.681
 -24217484.508 9 -18848718.54348  20584616.460    20584618.1314   20584624.1764
       398.434         310.468
 97  4 24 18  5 29.9930000  0  7  4 27 15  9  2  7 26               -0.006889937
  -6421199.190 9  -4653375.73646  22096053.980    22096056.1714   22096064.0944
      4644.162        3618.828
  -5817612.070 9  -4521872.45948  19655281.739    19655283.0594   19655289.6264
     -1679.786       -1308.924
 -17999768.760 9 -13741633.62346  21861687.168    21861687.9244   21861695.5014
      -401.789        -313.082
  -5560332.500 9  -4318504.97446  22364111.475    22364112.4764   22364119.5084
      4468.955        3482.303
 -14864392.162 9 -11386566.02548  19148690.498    19148691.6054   19148697.8734
       572.399         446.025
 -33407026.301 9 -25668782.49048  18137524.088    18137525.3764   18137531.5854
      1281.296         998.412
 -24229204.646 9 -18857851.13348  20582386.177    20582387.8754   20582393.9484
       381.599         297.350
 97  4 24 18  5 59.9930000  0  7  4 27 15  9  2  7 26               -0.006911970
  -6560549.105 9  -4761960.02646  22069536.609    22069538.7524   22069546.6594
      4645.173        3619.615
  -5767050.734 9  -4482474.04848  19664903.272    19664904.5834   19664911.1574
     -1691.525       -1318.071
 -17987462.941 9 -13732044.70846  21864028.967    21864029.6704   21864037.3124
      -418.992        -326.487
  -5694374.418 9  -4422953.18946  22338604.052    22338605.1494   22338612.1024
      4466.732        3480.570
 -14881489.493 9 -11399888.63448  19145437.168    19145438.1664   19145444.3674
       567.040         441.849
 -33445254.451 9 -25698570.66248  18130249.503    18130250.7764   18130257.0194
      1266.881         987.180
 -24240421.646 9 -18866591.67448  20580251.651    20580253.3434   20580259.4334
       365.767         285.013
 97  4 24 18  6 29.9930000  0  7  4 27 15  9  2  7 26               -0.006933998
  -6699903.445 9  -4870547.76746  22043018.407    22043020.5254   22043028.3074
      4645.109        3619.565
  -5716114.088 9  -4442783.20048  19674596.283    19674597.5274   19674604.1254
     -1704.402       -1328.105
 -17974630.751 9 -13722045.64346  21866470.813    21866471.5824   21866479.2064
      -436.607        -340.213
  -5828336.097 9  -4527338.88046  22313111.776    22313113.0714   22313120.0044
      4464.103        3478.522
 -14898411.249 9 -11413074.43448  19142217.171    19142218.1164   19142224.2594
       560.952         437.105
 -33483043.534 9 -25728016.70848  18123058.579    18123059.8284   18123066.0184
      1252.305         975.822
 -24251154.440 9 -18874954.91548  20578209.156    20578210.8954   20578217.0294
       349.676         272.475
 97  4 24 18  6 59.9930000  0  7  4 27 15  9  2  7 26               -0.006956027
  -6839276.900 9  -4979150.40446  22016496.438    22016498.5554   22016506.3504
      4645.514        3619.881
  -5664799.048 9  -4402797.49648  19684361.181    19684362.5084   19684369.0754
     -1717.574       -1338.369
 -17961289.361 9 -13711649.78746  21869009.510    21869010.3894   21869018.0064
      -453.672        -353.511
  -5962231.617 9  -4631673.02446  22287632.419    22287633.6234   22287640.5254
      4461.265        3476.310
 -14915176.718 9 -11426138.45148  19139026.906    19139027.7894   19139033.8824
       555.835         433.118
 -33520414.503 9 -25757136.94448  18115947.145    18115948.3594   18115954.5764
      1238.182         964.817
 -24261420.968 9 -18882954.82248  20576255.527    20576257.2224   20576263.3524
       333.857         260.148
 97  4 24 18  7 29.9930000  0  7  4 27 15  9  2  7 26               -0.006978044
  -6978649.912 9  -5087752.68646  21989974.709    21989976.7714   21989984.5064
      4645.193        3619.631
  -5613083.737 9  -4362499.89548  19694202.308    19694203.6174   19694210.1904
     -1730.997       -1348.829
 -17947430.436 9 -13700850.66146  21871646.541    21871647.6454   21871655.2134
      -470.891        -366.928
  -6096046.546 9  -4735944.37346  22262168.166    22262169.4564   22262176.3384
      4459.130        3474.647
 -14931788.059 9 -11439082.36548  19135865.896    19135866.7804   19135872.8534
       550.835         429.222
 -33557361.516 9 -25785926.82448  18108916.297    18108917.5714   18108923.8194
      1224.183         953.909
 -24271207.451 9 -18890580.67648  20574393.236    20574394.9374   20574401.0934
       317.945         247.749
 97  4 24 18  7 59.9930000  0  7  4 27 15  9  2  7 26               -0.007000028
  -7117979.026 9  -5196320.77246  21963461.190    21963463.1734   21963470.8814
      4645.385        3619.781
  -5560927.871 9  -4321858.99748  19704127.315    19704128.5754   19704135.1724
     -1743.966       -1358.935
 -17933025.266 9 -13689625.88646  21874387.691    21874388.8534   21874396.4234
      -487.611        -379.957
  -6229770.861 9  -4840145.11446  22236721.387    22236722.5594   22236729.4254
      4457.594        3473.450
 -14948218.268 9 -11451885.13848  19132739.390    19132740.2434   19132746.2594
       546.327         425.709
 -33593863.145 9 -25814369.65848  18101970.342    18101971.5834   18101977.7764
      1211.024         943.655
 -24280495.929 9 -18897818.46948  20572625.768    20572627.4324   20572633.5874
       303.170         236.236
 97  4 24 18  8 29.9920000  0  7  4 27 15  9  2  7 26               -0.007021999
  -7257287.889 9  -5304873.08846  21936951.600    21936953.3994   21936961.1364
      4643.480        3618.296
  -5508369.254 9  -4280904.27548  19714128.956    19714130.1774   19714136.7634
     -1758.533       -1370.285
 -17918091.876 9 -13677989.50546  21877229.334    21877230.6234   21877238.1294
      -506.630        -394.777
  -6363417.799 9  -4944285.54946  22211289.223    22211290.3494   22211297.2014
      4453.900        3470.571
 -14964478.627 9 -11464555.56148  19129645.107    19129646.0134   19129652.0154
       539.013         420.010
 -33629935.525 9 -25842478.00648  18095105.956    18095107.2094   18095113.4134
      1195.096         931.244
 -24289317.916 9 -18904692.76948  20570947.027    20570948.6974   20570954.8754
       286.309         223.098
 97  4 24 18  8 59.9920000  0  7  4 27 15  9  2  7 26               -0.007043976
  -7396589.845 9  -5413420.00346  21910443.159    21910445.0794   21910452.8274
      4641.820        3617.003
  -5455438.701 9  -4239659.73048  19724201.381    19724202.5534   19724209.1684
     -1771.529       -1380.412
 -17902640.374 9 -13665949.40646  21880169.845    21880170.9384   21880178.4784
      -524.925        -409.032
  -6497013.692 9  -5048386.21946  22185866.805    22185867.9474   22185874.7654
      4450.993        3468.306
 -14980573.581 9 -11477097.10048  19126582.375    19126583.2714   19126589.2584
       532.469         414.911
 -33665574.229 9 -25870248.42548  18088324.134    18088325.3414   18088331.5364
      1179.285         918.923
 -24297682.237 9 -18911210.43848  20569355.372    20569357.0644   20569363.2184
       269.773         210.213
 97  4 24 18  9 29.9920000  0  7  4 27 15  9  2  7 26               -0.007065938
  -7535825.185 8  -5521915.01646  21883947.621    21883949.5624   21883957.2144
      4639.868        3615.482
  -5402124.470 9  -4198116.20848  19734346.669    19734347.9164   19734354.5904
     -1783.496       -1389.737
 -17886629.834 9 -13653473.69146  21883216.757    21883217.7054   21883225.2764
      -543.185        -423.261
  -6630515.463 9  -5152413.55246  22160462.185    22160463.3814   22160470.1554
      4448.446        3466.322
 -14996454.026 9 -11489471.48748  19123560.391    19123561.3064   19123567.2944
       525.607         409.564
 -33700726.785 9 -25897640.03048  18081634.952    18081636.0994   18081642.2564
      1163.448         906.583
 -24305534.766 9 -18917329.31748  20567861.020    20567862.7784   20567868.9054
       253.016         197.155
 97  4 24 18  9 59.9920000  0  7  4 27 15  9  2  7 26               -0.007087910
  -7675032.335 8  -5630388.06046  21857457.406    21857459.2954   21857466.8864
      4639.504        3615.198
  -5348478.556 9  -4156314.23748  19744555.133    19744556.4214   19744563.1214
     -1794.110       -1398.008
 -17870097.005 9 -13640590.99846  21886362.897    21886363.8974   21886371.5154
      -560.293        -436.592
  -6763953.145 9  -5256390.94046  22135069.883    22135071.0264   22135077.7084
      4446.025        3464.435
 -15012156.138 9 -11501706.91648  19120572.357    19120573.3084   19120579.2884
       519.932         405.142
 -33735426.061 9 -25924678.43048  18075031.868    18075033.0474   18075039.2424
      1148.375         894.838
 -24312913.747 9 -18923079.19348  20566456.845    20566458.5824   20566464.7184
       237.554         185.107
 97  4 24 18 10 29.9920000  0  7  4 27 15  9  2  7 26               -0.007109894
  -7814216.371 9  -5738843.10446  21830971.678    21830973.4534   21830981.0674
      4638.990        3614.797
  -5294490.975 9  -4114246.03148  19754828.658    19754829.9544   19754836.6284
     -1805.541       -1406.915
 -17853029.942 9 -13627292.00646  21889610.630    21889611.6774   21889619.3934
      -577.878        -450.295
  -6897298.825 9  -5360296.63946  22109695.011    22109696.2224   22109702.8714
      4443.397        3462.387
 -15027663.081 9 -11513790.25648  19117621.471    19117622.4324   19117628.4064
       513.558         400.175
 -33769641.779 9 -25951340.02548  18068520.798    18068521.9744   18068528.2134
      1132.423         882.408
 -24319800.345 9 -18928445.39848  20565146.395    20565148.1034   20565154.2654
       221.197         172.361
